GFSWCAN_700_rhum_003.txt.gz
RH
98 100 96 89 69 26 14 18 24 30 40 36 41 41 42 67 57 43 28 44 38 28 26 31 34 35 33 38 41 42 45 43 40 37 43 49 56 50 62 64 63 60 64 66 68 68 64 53 52 56 51 47 48 56
97 99 97 90 75 39 17 18 23 35 41 40 40 40 35 62 58 71 44 29 31 28 32 29 31 34 35 37 41 42 45 57 51 54 64 72 74 72 70 69 67 63 61 61 60 59 54 49 50 53 53 58 61 64
96 99 100 82 78 50 25 21 29 38 41 43 40 36 34 32 68 57 70 70 49 53 43 49 36 35 41 47 49 55 57 70 77 84 83 79 76 75 68 69 69 68 68 70 63 61 56 58 62 68 71 73 74 75
93 99 100 90 90 59 34 36 43 42 46 46 45 40 28 26 34 69 62 63 80 84 87 76 67 51 41 41 57 65 60 67 74 83 86 81 78 78 77 76 77 74 71 68 67 66 66 64 66 68 67 60 58 53
72 98 99 84 84 66 47 51 57 52 54 53 52 40 24 18 20 33 72 77 77 84 84 88 90 84 78 62 62 78 83 81 83 83 80 83 82 84 86 91 90 85 81 81 68 60 65 68 62 55 54 51 43 34
78 97 99 96 90 88 59 66 73 65 63 61 56 46 38 19 9 7 22 59 100 98 94 94 89 89 94 92 90 91 93 86 87 85 82 87 90 91 87 86 56 55 66 60 57 57 51 53 48 42 42 36 30 32
92 96 100 90 98 99 75 84 85 81 73 70 71 71 66 46 14 6 10 27 60 99 99 98 96 92 100 96 98 94 93 92 94 99 100 100 92 92 94 84 46 44 44 36 34 34 39 39 36 39 41 42 44 45
90 94 99 98 98 99 95 88 92 92 85 80 82 81 71 49 29 16 14 16 36 58 99 97 68 54 77 99 99 99 97 98 99 98 99 99 94 96 76 48 33 31 40 43 40 36 33 34 38 42 47 49 48 42
98 98 98 98 98 99 98 97 96 98 95 92 88 86 66 46 32 24 18 15 31 67 97 72 66 48 44 91 100 100 100 100 97 100 96 97 91 78 44 48 36 30 31 36 38 39 43 47 51 51 47 42 34 28
96 96 98 99 97 98 98 98 99 99 100 100 95 88 73 54 48 35 29 38 78 98 73 65 68 67 41 73 100 99 100 99 98 100 100 100 70 52 44 48 47 48 48 48 47 56 52 48 45 45 43 40 38 33
96 97 97 98 98 98 99 99 99 99 99 99 97 93 79 85 50 41 39 40 39 49 45 43 45 42 51 97 100 99 99 98 100 92 93 99 34 30 31 38 49 54 51 55 51 45 40 43 46 43 33 30 37 39
96 97 98 97 98 98 98 98 98 98 99 98 98 89 95 97 94 61 54 44 31 29 22 26 38 60 82 100 100 100 88 75 90 81 97 66 33 38 39 40 39 37 41 43 43 46 46 38 28 17 15 26 33 44
95 96 97 98 97 96 98 98 98 98 98 99 98 97 96 95 89 65 56 44 30 23 17 14 44 100 96 100 95 72 67 77 57 86 73 42 36 45 45 42 43 44 43 47 44 33 31 14 12 15 20 34 45 54
94 95 96 97 98 97 97 98 97 97 97 97 96 96 95 92 74 60 59 49 42 31 13 8 44 94 100 90 71 61 84 81 94 83 44 41 44 49 51 54 54 52 48 40 29 14 9 8 21 27 36 43 52 69
94 95 96 96 97 97 96 96 97 97 97 97 96 95 90 90 76 67 59 52 41 20 11 18 57 66 95 85 66 69 85 88 70 41 36 39 44 50 58 57 52 48 34 16 10 7 7 10 31 47 42 38 54 71
94 94 95 95 96 96 97 97 96 94 97 96 94 90 86 88 82 64 58 49 32 24 20 49 88 86 90 66 63 52 59 43 39 36 40 43 50 49 48 44 31 21 17 12 10 10 12 18 34 53 60 66 75 81
89 94 95 95 96 97 96 96 97 96 97 96 94 90 84 76 79 60 58 49 38 21 24 46 50 54 42 27 31 27 31 32 34 35 35 35 35 35 34 31 27 26 20 15 12 12 16 25 53 56 67 76 81 88
77 87 94 95 95 96 96 96 96 96 96 95 96 92 87 72 70 66 31 36 44 41 41 44 33 28 34 33 31 34 35 36 38 39 39 38 37 37 38 39 35 28 21 16 14 18 23 34 57 69 76 88 93 91
83 85 92 95 96 96 96 96 96 96 96 92 93 90 89 69 68 67 38 28 37 55 68 43 34 37 37 37 38 38 37 36 37 37 38 38 38 39 40 36 29 23 15 12 16 32 50 55 66 79 86 91 97 100
78 84 96 96 95 96 95 96 95 96 96 96 94 88 62 49 47 54 53 73 98 100 86 51 36 37 38 38 37 35 33 36 39 38 38 38 37 40 37 30 23 16 11 12 30 53 64 73 82 88 92 96 100 100
74 77 94 96 97 97 96 95 96 96 96 95 96 97 96 91 82 87 98 98 98 96 94 57 38 36 37 36 34 32 34 33 33 36 37 38 37 32 23 16 12 10 13 25 42 55 68 85 90 92 93 99 100 100
65 81 95 96 96 97 95 93 94 97 96 96 97 96 94 95 90 75 67 57 50 48 50 50 52 52 52 50 50 49 47 48 48 47 46 39 30 22 16 12 12 22 34 45 56 67 79 83 87 91 94 100 98 80
60 88 98 96 97 96 96 97 96 93 95 96 96 97 97 97 96 96 96 93 89 78 74 75 89 88 83 77 69 61 55 50 41 30 22 17 16 15 15 19 33 41 49 69 84 86 86 87 90 94 94 76 69 68
72 90 94 95 97 97 97 97 95 95 92 90 95 94 91 85 88 94 90 81 78 84 94 94 91 84 75 68 54 40 25 19 16 16 17 18 21 27 32 41 50 61 72 86 92 93 92 94 88 70 67 66 66 62
87 84 84 86 92 96 97 96 97 96 96 96 97 96 95 95 97 93 81 78 88 94 90 88 71 33 21 18 17 21 23 23 25 29 32 35 43 52 56 58 66 78 90 95 97 97 87 71 70 69 66 61 43 37
94 87 70 71 68 69 86 92 96 95 95 96 95 96 96 95 94 86 74 61 41 49 38 28 22 24 31 36 36 40 42 40 42 48 52 53 53 54 59 69 83 94 96 97 96 85 82 75 69 64 47 39 40 39
84 81 67 54 53 58 63 71 88 93 92 92 90 91 90 71 52 47 34 25 22 25 38 55 72 73 65 59 56 57 54 52 52 51 49 51 60 72 85 95 98 98 98 97 95 91 79 66 54 42 43 42 36 34
75 60 59 56 56 59 72 76 80 85 86 88 86 94 78 62 58 52 56 70 71 86 81 70 53 46 42 39 38 40 52 58 57 58 64 70 83 94 98 100 100 100 97 95 89 74 63 48 46 46 41 37 36 38
69 63 64 60 59 66 64 58 57 55 58 60 64 75 80 73 76 75 67 79 84 79 73 56 44 38 40 51 66 71 68 65 69 77 87 94 96 99 100 100 98 96 94 85 75 60 52 52 48 43 39 38 42 44
66 79 74 73 72 66 67 65 65 71 71 70 67 65 69 71 67 62 67 79 82 83 83 86 87 87 83 76 75 76 79 85 90 96 97 96 98 99 98 97 96 94 89 77 60 58 55 50 46 44 45 47 48 51
74 76 71 72 73 67 64 67 69 69 70 78 82 79 81 85 84 68 62 79 90 93 90 88 87 85 87 88 89 91 95 98 100 100 98 98 98 97 96 96 95 91 78 68 66 60 53 51 50 49 52 55 56 56
98 99 96 90 85 83 89 88 83 75 65 63 56 58 73 84 86 88 88 86 85 86 86 87 88 89 91 95 99 99 100 98 98 99 99 99 99 98 96 94 92 86 82 78 64 57 55 52 52 55 55 54 53 53
96 98 99 100 100 99 93 89 79 70 56 51 53 62 67 76 80 75 72 74 82 88 92 95 97 97 98 99 99 99 100 100 100 99 98 98 97 95 94 94 93 92 84 69 62 59 57 58 56 49 33 33 45 45

GFSWCAN_700_rhum_006.txt.gz
RH
17 54 93 99 99 99 98 55 22 23 28 38 49 44 46 64 66 60 20 31 55 56 33 36 48 59 57 73 68 65 68 75 80 73 71 47 46 44 46 44 41 40 37 38 45 61 60 51 62 61 57 54 47 49
73 84 92 98 99 96 98 70 19 22 31 42 49 44 44 50 74 63 45 24 40 50 36 33 44 51 52 66 59 51 53 59 71 70 55 51 46 52 41 52 46 54 51 55 49 53 55 55 59 61 58 60 59 62
94 96 90 97 100 94 91 73 19 22 35 48 49 45 42 44 69 67 77 42 39 43 34 34 39 41 43 49 54 58 45 57 48 40 48 64 71 65 69 68 67 68 64 64 63 61 58 56 56 59 62 66 68 69
94 96 91 97 99 100 91 97 24 28 41 54 50 44 39 40 44 74 69 82 62 43 40 42 41 43 42 46 53 65 69 74 82 83 84 85 80 79 74 72 71 70 69 68 69 69 69 65 64 68 73 71 64 60
98 97 92 96 100 92 91 91 29 34 53 58 51 43 40 34 35 64 76 76 97 96 89 72 65 60 51 43 45 59 75 73 74 77 81 87 84 86 82 80 76 72 71 75 78 75 73 69 68 66 66 56 48 47
99 95 79 94 100 86 99 75 40 47 60 61 53 48 41 29 27 43 69 80 84 90 100 91 92 90 86 84 65 53 60 71 76 81 80 87 89 89 88 86 78 69 43 75 88 87 88 85 70 63 55 57 45 39
96 98 89 96 100 92 100 71 49 66 66 65 58 48 34 25 18 16 29 31 63 90 100 100 98 86 95 100 100 97 89 93 90 94 86 85 84 92 94 89 80 77 75 53 66 62 60 60 55 47 45 41 39 40
95 98 96 94 99 97 99 84 82 83 80 72 64 55 50 41 24 19 17 12 24 98 99 89 85 82 87 99 100 99 100 99 98 99 92 89 90 97 95 85 72 55 57 58 62 54 50 48 43 39 40 40 39 43
94 97 98 97 98 98 98 98 92 94 92 82 75 74 68 54 32 32 24 15 18 77 99 98 94 71 62 93 100 100 100 96 98 99 99 95 92 89 84 66 47 42 39 47 56 55 50 45 43 44 40 42 43 39
92 97 97 97 98 98 98 98 99 100 100 94 88 84 76 59 50 38 38 29 40 79 65 46 52 54 41 59 98 100 100 98 100 98 95 91 88 87 86 84 71 39 37 40 40 43 43 43 45 41 40 40 24 15
93 95 97 97 98 98 98 98 98 98 98 97 92 90 78 75 55 50 47 47 53 62 39 35 46 44 45 66 100 99 95 95 92 88 84 80 57 48 50 58 58 43 43 49 53 56 48 41 39 42 30 22 10 6
94 96 96 96 97 98 98 98 98 98 98 92 94 87 83 85 66 55 50 49 44 39 36 31 45 60 63 73 100 96 96 87 94 81 82 48 32 30 25 29 47 52 56 63 52 45 43 43 40 29 18 9 6 10
93 95 96 97 96 98 98 98 97 98 99 99 98 97 95 95 97 87 70 53 39 39 33 33 47 81 90 88 92 90 86 71 58 83 82 27 28 32 37 38 40 40 39 40 42 42 42 39 30 18 9 5 8 24
88 94 95 96 98 97 97 97 97 97 98 98 96 96 94 93 78 78 70 58 49 43 36 30 38 62 93 89 80 58 72 62 86 88 23 16 20 33 44 44 43 43 44 43 40 40 40 35 21 10 7 6 11 33
88 94 95 96 97 97 97 97 97 97 98 97 96 95 88 84 83 77 68 60 55 50 35 30 43 54 85 83 64 60 62 83 58 31 18 14 22 37 44 44 43 42 41 41 41 42 34 22 13 9 9 10 22 35
68 95 95 95 95 97 98 97 97 96 97 96 95 97 86 87 91 73 68 61 51 42 25 44 57 66 73 62 54 49 54 42 35 30 29 31 36 42 45 45 43 46 47 45 36 28 22 15 12 10 11 15 24 42
45 95 96 96 94 95 96 97 97 97 96 96 95 90 86 84 88 93 74 49 40 29 35 50 51 48 58 56 58 47 44 32 29 34 36 43 46 46 44 42 38 37 34 33 34 28 21 13 11 11 15 21 26 44
35 77 96 96 95 95 96 96 97 96 96 95 92 86 89 80 76 89 91 78 65 45 51 60 64 52 39 38 36 34 34 38 40 37 36 38 41 39 36 37 36 35 35 34 32 23 15 12 11 20 38 50 56 68
56 81 88 96 96 95 95 96 96 96 96 96 98 92 86 84 78 82 87 89 92 83 86 74 44 37 33 30 29 32 36 36 38 39 38 36 38 38 37 34 33 37 36 30 25 18 11 11 20 39 50 63 79 88
77 76 69 94 95 95 95 95 95 95 96 96 92 90 87 84 76 73 88 83 73 90 96 87 68 48 41 40 40 40 38 38 38 40 40 40 39 38 36 37 37 34 26 18 13 11 14 25 35 47 62 80 88 91
48 74 80 94 95 96 96 96 96 96 96 97 100 96 87 89 86 85 87 71 70 69 100 63 47 44 44 45 43 40 36 37 38 38 38 38 41 42 42 42 36 27 20 14 12 15 28 38 52 68 78 86 93 95
39 65 72 94 95 96 94 94 96 96 94 97 98 97 91 80 74 94 98 100 99 98 92 53 44 41 40 37 35 33 32 32 35 39 46 50 48 44 41 30 21 16 13 12 15 26 32 47 73 85 88 90 95 99
35 52 80 95 96 91 96 94 96 96 96 97 98 99 97 97 98 98 98 97 96 97 96 96 85 57 45 41 41 47 48 48 52 55 54 50 42 26 17 14 13 13 17 25 36 50 61 76 89 94 93 97 89 75
50 57 76 86 96 97 95 96 88 96 96 96 96 96 98 97 96 96 95 95 96 96 95 96 96 87 73 63 62 65 65 62 57 50 34 20 16 15 14 17 22 30 37 48 57 70 83 91 94 98 92 75 74 70
74 73 66 64 83 94 97 96 97 93 95 95 95 95 96 96 96 96 95 94 94 94 92 91 89 84 79 77 73 60 46 34 26 21 19 18 17 21 34 41 44 46 49 58 77 92 97 99 96 89 89 80 62 44
78 73 60 54 60 59 80 95 97 98 97 96 96 96 96 95 95 96 96 95 95 95 92 84 76 73 75 60 36 23 22 24 26 28 32 37 43 46 44 43 46 57 74 90 98 100 99 96 96 92 76 55 44 44
80 70 60 53 51 54 59 61 68 89 96 96 96 95 94 94 94 86 90 90 75 52 40 38 36 34 37 42 45 50 51 50 48 42 38 35 36 41 50 60 73 90 97 98 97 97 97 95 90 72 52 48 46 43
77 70 67 59 52 55 60 63 82 80 71 68 78 80 79 74 60 51 44 40 46 58 71 81 84 87 86 82 71 56 39 29 25 30 43 50 56 63 74 87 96 99 97 97 97 96 95 84 64 53 52 49 45 43
71 68 66 61 64 57 64 61 55 54 64 68 75 85 87 79 95 95 95 95 87 86 88 86 82 77 67 52 37 29 28 31 42 56 67 70 78 85 92 97 98 98 97 95 94 92 80 64 59 56 53 48 46 43
70 72 73 74 70 65 61 61 63 64 65 65 58 55 66 79 82 82 78 73 71 73 73 72 71 64 45 34 36 46 57 64 69 76 82 88 91 93 96 95 95 95 96 96 93 83 69 66 64 56 50 45 41 46
76 82 77 70 75 79 78 73 67 68 64 56 64 61 58 56 56 53 50 48 44 40 37 35 38 52 65 68 67 69 75 79 84 90 94 95 96 97 96 97 98 97 94 92 88 80 78 70 60 54 45 44 47 38
95 94 91 85 81 80 81 79 75 77 78 75 76 85 80 68 64 66 73 83 86 67 66 83 87 81 77 78 80 84 85 89 94 98 98 99 98 98 97 97 96 94 93 92 89 85 74 63 56 46 46 45 25 20
92 97 100 100 99 100 100 100 99 96 87 73 60 60 67 57 50 48 54 67 76 81 84 83 81 81 83 86 91 96 97 97 98 99 99 98 97 96 94 94 94 94 93 90 85 75 66 56 48 50 44 35 27 26

GFSWCAN_700_rhum_009.txt.gz
RH
99 98 80 17 25 96 100 98 100 100 55 45 52 53 53 58 69 81 70 27 46 71 52 36 55 67 73 73 88 97 100 100 100 100 98 77 76 73 62 57 60 68 61 57 47 42 43 48 45 47 46 53 54 65
96 100 99 48 49 95 99 99 100 100 52 44 50 51 54 57 62 85 77 37 46 68 54 42 51 62 64 76 73 75 83 81 98 87 82 66 57 72 54 47 49 49 54 46 45 39 36 39 41 52 55 60 54 53
77 100 100 82 52 95 99 100 100 99 44 42 49 54 54 54 57 84 80 52 42 60 57 41 41 55 57 72 71 68 66 60 74 77 65 54 56 52 46 47 48 50 49 54 55 56 57 58 58 61 63 61 62 66
55 98 96 85 72 96 100 99 100 86 40 43 49 58 53 52 54 81 86 84 50 56 57 48 40 46 51 51 61 54 57 64 66 63 61 50 63 62 64 64 65 64 65 64 63 63 63 63 61 59 61 66 71 72
36 90 100 100 78 95 100 95 91 98 41 43 55 61 52 49 52 69 91 99 90 64 73 49 43 42 46 49 53 56 62 60 74 79 84 87 84 80 75 78 75 71 69 70 71 70 71 73 74 75 75 75 75 68
22 79 97 100 75 94 99 97 95 98 34 53 67 62 49 45 48 61 98 99 100 100 100 94 66 59 54 51 48 54 65 76 79 80 77 81 77 82 82 82 76 73 68 74 71 54 84 88 86 81 79 75 74 65
15 72 95 98 93 92 99 99 98 95 43 65 72 59 46 40 40 83 95 95 100 100 99 97 95 92 93 93 85 60 52 56 68 81 85 86 83 87 92 87 80 83 81 78 76 52 82 89 88 92 89 73 51 41
13 58 94 98 96 94 98 97 99 75 74 84 73 56 47 38 30 58 61 49 73 99 99 96 90 92 94 100 99 99 99 94 96 95 89 86 93 93 92 82 79 81 81 74 66 74 52 48 53 58 51 41 39 37
14 60 93 96 96 96 98 98 98 100 100 91 71 58 47 36 27 40 39 34 54 100 97 94 90 86 84 83 93 99 100 100 100 100 100 99 98 91 82 79 75 73 51 51 50 64 62 56 53 49 40 39 36 34
13 69 94 96 97 96 99 98 98 99 100 91 74 64 55 44 41 47 56 59 99 100 100 88 86 77 60 83 99 100 99 99 99 99 99 99 83 75 80 83 77 76 76 58 42 58 58 50 42 42 42 37 35 23
12 84 93 96 97 96 98 98 98 98 99 94 78 70 66 69 58 61 63 50 51 74 59 48 65 62 55 80 100 99 95 94 93 92 84 86 51 39 45 55 72 78 83 54 41 48 50 51 45 40 40 37 26 19
11 82 93 96 97 96 98 97 98 98 98 93 82 81 85 86 64 54 57 47 42 32 33 34 48 60 60 68 95 96 92 82 84 86 87 58 29 34 31 27 69 88 83 47 50 56 50 46 43 43 38 28 24 16
10 52 92 95 95 97 98 98 98 98 98 98 99 97 95 95 94 65 57 54 46 39 34 35 48 67 67 61 76 77 73 80 64 57 43 21 16 18 23 24 39 83 74 56 54 46 42 40 44 39 34 29 23 16
10 26 88 94 96 96 98 97 98 98 97 98 96 96 93 93 83 77 63 55 46 42 37 37 47 66 67 66 63 58 73 66 54 44 19 18 16 17 22 28 36 56 71 56 45 45 46 44 39 38 34 27 19 12
12 16 93 94 96 97 97 97 97 98 98 97 96 96 90 84 83 73 69 61 53 48 43 42 58 57 64 69 60 48 51 57 37 17 16 16 20 28 35 41 43 45 46 48 49 47 44 42 39 33 28 20 14 13
13 29 95 92 94 96 98 97 97 97 97 96 95 96 89 86 84 76 70 63 56 44 43 54 66 62 66 59 47 45 44 33 33 34 33 21 26 47 56 55 55 55 54 52 50 44 39 34 32 30 22 14 14 14
14 26 90 93 94 96 96 97 97 97 97 96 96 94 94 93 85 72 72 70 57 44 55 56 50 42 49 47 46 38 36 34 34 32 27 30 41 58 63 62 60 51 41 39 37 33 32 33 32 22 16 13 11 15
17 54 86 94 95 95 96 96 97 96 96 96 94 96 95 96 96 90 73 61 59 51 54 53 48 46 47 50 47 40 39 40 38 30 38 51 62 65 58 41 39 38 35 33 32 34 35 32 26 19 12 12 15 23
30 71 79 94 95 95 95 96 96 96 96 97 94 94 96 96 95 97 97 89 63 59 62 65 57 63 61 53 42 34 35 36 35 42 55 58 46 38 37 37 37 35 34 34 34 34 30 22 14 12 13 18 26 38
45 84 80 93 94 96 96 95 96 95 96 97 96 95 93 94 95 96 96 93 95 92 94 93 84 64 54 52 38 40 43 41 40 39 40 39 37 37 36 36 38 39 39 38 35 29 22 15 12 14 18 25 37 57
29 54 65 85 95 95 95 96 96 96 95 94 96 98 98 96 95 93 94 96 96 94 89 81 85 80 66 46 43 44 43 41 41 41 40 39 37 39 44 47 46 43 39 33 26 19 13 13 16 19 26 38 58 79
29 33 55 67 96 95 95 96 96 96 95 94 96 96 96 96 95 97 96 96 96 92 88 91 87 75 62 49 43 42 41 40 39 38 39 44 48 51 50 48 42 33 23 16 13 13 16 20 29 42 54 68 85 93
32 30 60 82 94 91 96 95 96 96 96 99 99 98 96 96 96 96 97 95 94 96 98 96 72 60 53 48 45 41 39 37 38 42 41 43 50 51 49 40 23 15 14 15 16 19 28 39 51 64 79 90 94 92
43 41 62 78 92 94 93 96 96 96 97 96 97 97 99 97 96 97 95 94 95 96 98 96 68 56 52 50 53 56 59 60 54 51 56 57 53 42 26 18 16 17 20 27 31 36 43 54 72 91 95 96 92 88
57 56 56 58 72 86 96 97 97 95 95 96 95 96 96 96 96 96 95 97 97 96 96 96 82 76 78 77 77 77 80 82 72 64 53 41 27 19 17 21 29 33 30 30 37 49 65 85 94 95 95 92 90 77
61 61 54 52 61 57 82 94 96 97 96 96 95 96 96 96 95 96 96 96 96 96 96 96 96 95 94 93 90 82 69 52 36 25 24 24 27 32 34 29 19 23 36 52 64 79 88 92 92 92 90 87 72 54
70 59 54 50 50 53 58 58 75 86 95 96 97 96 96 96 95 95 97 97 96 96 95 95 95 90 78 65 53 47 48 46 47 46 42 36 27 20 19 27 41 54 66 79 88 91 92 91 91 89 82 68 56 53
70 65 60 54 48 43 45 53 55 53 53 65 95 96 96 94 94 94 95 96 96 94 75 54 46 43 44 43 48 60 68 66 55 32 19 17 24 34 45 55 65 76 86 90 91 92 92 94 92 82 67 60 60 57
65 67 67 64 63 55 55 55 54 57 64 67 76 90 91 86 73 60 65 68 66 73 79 85 90 89 90 85 79 70 58 40 27 26 34 41 56 62 71 79 86 89 90 92 96 97 97 94 82 70 68 65 59 54
70 72 69 70 67 67 62 56 57 56 56 57 61 83 93 100 98 92 96 93 88 84 82 80 77 77 76 74 69 55 41 41 51 58 66 71 78 82 87 90 91 92 95 96 96 94 92 86 78 77 74 64 54 42
72 73 72 75 74 78 72 74 73 67 62 59 60 61 69 80 81 81 82 80 78 73 68 60 54 48 44 43 47 52 61 61 66 68 74 80 86 92 95 97 96 96 96 96 96 95 91 86 84 78 66 54 44 42
84 84 87 87 81 81 81 89 85 76 71 72 72 62 59 63 66 60 64 56 49 46 44 45 42 41 41 48 67 72 71 72 76 87 90 92 96 99 98 98 98 98 98 99 97 95 92 86 78 70 52 47 44 40
92 98 100 99 94 90 91 96 92 91 85 82 78 76 73 73 80 71 60 57 62 71 78 83 85 81 74 75 80 79 82 89 95 96 96 97 100 99 98 100 100 100 98 96 95 93 88 78 67 50 47 41 39 40

GFSWCAN_700_rhum_012.txt.gz
RH
13 22 73 98 97 70 14 77 97 99 99 96 71 73 83 77 72 94 99 84 29 48 66 59 54 87 98 99 99 99 100 99 100 100 98 98 99 90 81 78 79 83 71 68 80 95 65 46 44 43 38 36 40 41
15 15 58 92 98 93 16 65 97 99 93 100 69 71 83 76 71 80 100 83 39 58 65 50 49 70 94 93 99 99 98 98 97 98 94 97 85 95 92 82 78 72 72 73 63 61 51 50 50 50 44 44 49 54
18 11 34 86 100 81 20 65 97 99 97 99 65 68 80 75 70 72 100 86 50 57 67 56 48 55 72 82 88 95 98 79 92 99 98 89 65 70 73 60 56 60 73 66 60 58 47 37 37 40 52 59 63 58
38 10 22 79 100 84 50 66 98 99 100 99 58 65 77 78 69 73 100 91 58 58 72 58 48 53 59 71 79 71 77 77 76 83 73 66 65 56 54 51 50 51 51 49 47 48 54 58 59 60 58 58 61 68
69 10 14 62 92 89 71 71 98 99 91 99 54 57 79 82 68 74 100 99 77 62 68 57 52 50 53 58 70 68 63 68 69 74 72 67 61 58 66 65 66 61 61 62 64 65 67 67 66 65 64 67 72 75
49 9 11 58 90 96 75 87 98 98 91 98 48 62 87 78 69 80 100 100 99 80 100 82 55 53 54 55 54 57 62 65 62 66 76 79 82 83 80 76 66 70 77 77 71 65 65 53 70 75 78 80 80 77
43 9 10 55 87 96 89 90 98 99 98 87 46 74 89 70 72 82 99 98 100 100 91 84 86 69 56 57 59 60 62 67 70 73 79 77 74 74 74 72 61 59 63 68 69 75 72 61 73 86 87 86 83 83
46 11 11 57 91 97 94 89 97 98 99 88 66 92 86 67 70 98 100 92 99 100 99 99 95 86 83 75 76 70 65 63 70 79 84 76 77 79 82 54 58 64 66 73 74 78 71 60 78 89 88 84 60 39
46 15 12 70 92 96 93 86 98 99 98 94 95 98 75 60 60 99 100 97 100 99 98 96 95 86 93 99 99 97 99 96 86 85 87 89 83 78 67 64 66 68 78 83 59 66 76 72 58 56 54 45 41 38
46 20 12 75 88 93 95 95 98 99 98 100 100 86 73 61 56 99 100 83 100 99 98 92 93 91 78 96 100 98 98 99 100 99 99 98 87 68 77 79 81 78 67 67 72 46 62 85 67 58 45 44 40 35
45 27 11 74 88 94 97 98 98 98 98 99 98 79 75 62 55 100 83 94 87 93 98 97 91 88 82 100 100 98 99 95 90 87 90 84 47 36 40 54 74 85 85 84 75 62 82 71 53 48 45 40 37 29
45 31 10 60 90 94 97 98 97 98 98 100 95 87 96 95 92 82 85 70 54 52 48 45 61 87 90 100 98 98 91 86 86 85 82 63 27 24 32 43 71 95 98 94 73 61 58 60 52 43 40 38 32 31
44 31 9 35 91 94 96 98 98 98 98 99 100 100 88 78 77 65 63 58 46 40 35 41 65 85 84 82 82 82 77 79 65 61 48 27 21 15 23 42 72 98 100 89 65 64 60 47 43 40 40 38 35 32
43 30 8 42 91 96 96 98 97 98 97 97 98 97 80 88 68 68 60 52 44 41 34 34 56 76 69 65 60 62 65 66 58 46 23 20 17 15 21 31 56 87 90 78 73 70 50 46 43 41 40 38 33 27
41 27 8 68 93 95 96 97 97 97 98 97 95 90 79 82 73 64 66 57 49 42 38 41 62 60 65 60 52 44 51 48 35 19 15 16 15 18 23 31 62 93 88 85 85 56 46 44 44 41 36 34 30 24
42 22 11 64 95 95 97 98 97 97 98 96 95 96 80 77 82 71 61 59 55 49 47 62 70 63 61 48 43 38 32 22 21 26 34 31 20 24 31 41 74 100 98 66 50 48 47 41 36 33 31 32 27 19
29 15 17 81 95 95 96 97 99 97 97 96 94 93 92 89 81 69 68 61 56 50 54 62 60 51 55 54 47 35 27 27 31 33 34 27 30 38 44 47 52 54 54 52 44 39 35 32 32 33 33 29 22 14
24 25 41 90 94 95 96 97 97 96 96 94 92 95 89 93 86 76 75 77 60 58 59 61 51 50 44 45 43 39 33 32 33 34 33 35 49 55 58 59 59 51 40 38 36 35 33 32 33 32 28 20 14 13
31 66 68 94 94 95 96 96 96 95 95 97 91 89 91 96 96 94 88 89 73 69 84 70 54 50 48 46 46 44 42 40 37 37 40 58 68 68 66 50 39 38 36 35 36 37 36 35 32 26 20 15 13 14
24 30 53 91 95 96 95 95 95 95 96 98 96 96 96 96 97 96 96 96 96 94 93 78 75 70 61 56 55 54 46 37 36 37 49 71 73 56 38 37 36 36 40 42 42 40 38 34 28 21 15 13 13 16
27 22 26 70 95 95 95 96 95 96 96 96 97 97 97 98 97 96 96 96 96 95 95 94 95 95 92 76 56 44 40 39 50 56 66 67 42 38 36 35 37 41 42 42 41 37 30 22 16 13 13 15 22 32
31 24 24 64 96 95 96 96 95 96 96 96 96 96 97 95 95 96 96 96 96 94 85 87 89 93 83 68 53 48 53 62 66 59 46 40 38 37 39 41 42 44 43 39 30 20 15 15 14 15 20 28 37 52
36 29 32 73 93 96 96 96 96 96 96 96 96 96 96 96 96 96 97 96 95 85 97 98 99 88 70 62 58 56 53 60 67 52 45 43 46 44 44 49 50 46 36 21 17 17 16 17 19 21 28 42 62 80
41 39 54 77 86 92 96 96 96 95 96 96 96 95 96 97 96 96 95 89 90 94 100 98 96 94 72 55 52 52 51 49 50 51 55 55 51 54 60 58 43 27 20 18 17 17 16 16 24 39 60 79 87 88
46 46 53 55 65 83 95 96 96 96 96 95 96 96 96 96 96 96 95 95 98 97 96 97 96 85 68 60 52 54 56 59 62 63 68 72 78 71 44 29 21 19 20 20 12 14 25 40 56 74 82 86 86 85
53 50 51 47 54 65 88 95 96 96 96 96 96 96 96 96 95 96 92 93 99 98 97 97 96 96 90 79 75 75 81 84 90 89 74 53 34 26 23 23 23 17 11 15 21 30 48 69 80 84 87 89 88 83
57 53 47 45 45 48 62 64 83 95 96 96 96 96 96 96 95 95 95 99 97 97 97 97 96 96 95 94 95 95 90 78 66 54 44 38 33 27 19 13 11 16 19 27 44 62 77 84 87 88 89 88 81 71
60 58 55 51 46 42 43 53 57 70 68 95 96 96 95 95 93 99 98 97 97 96 97 96 96 96 96 95 90 74 62 58 58 55 44 29 19 15 14 14 20 30 46 64 76 82 87 89 90 90 87 81 73 68
58 59 60 61 59 54 50 54 58 63 65 67 72 87 94 93 96 97 97 97 96 96 96 96 96 96 95 94 92 85 71 66 59 43 29 20 19 24 32 42 55 68 78 85 88 89 89 89 89 87 83 77 73 69
64 61 64 62 60 59 56 54 52 50 58 67 82 84 82 90 93 92 92 94 96 96 96 97 97 97 96 91 82 75 70 61 42 35 34 38 48 57 68 75 82 87 90 92 92 92 91 92 91 88 84 79 72 66
60 64 69 71 66 69 66 64 62 61 58 59 61 86 98 100 100 100 98 97 97 97 95 90 82 74 71 70 66 54 44 47 52 55 60 63 66 73 80 87 91 92 93 95 95 94 94 93 92 88 81 73 66 50
71 71 70 74 79 79 79 80 81 73 63 61 61 58 57 61 68 78 87 91 88 82 73 66 59 55 53 49 47 46 52 63 66 65 68 73 81 85 87 89 92 94 95 96 96 95 94 93 90 82 78 62 49 41
88 93 94 94 90 88 86 85 84 89 84 75 70 68 64 63 61 56 56 60 59 59 60 59 60 67 73 72 64 58 63 72 73 77 85 89 92 93 92 94 96 97 98 97 96 94 91 88 80 72 54 45 36 34

GFSWCAN_700_rhum_015.txt.gz
RH
74 48 52 14 42 89 92 97 15 91 98 89 99 100 86 96 97 84 95 100 100 61 52 85 80 79 100 99 99 98 100 99 100 99 97 86 91 86 86 94 98 97 96 98 100 97 88 57 44 45 44 37 34 34
86 50 55 11 28 69 98 94 21 87 99 88 98 100 87 92 93 84 98 100 100 52 55 82 62 74 99 100 100 100 99 96 95 100 98 83 90 87 74 75 87 88 80 70 70 77 57 53 50 49 46 49 44 42
80 62 52 15 17 64 95 95 27 62 99 96 98 98 79 88 92 82 88 100 99 53 58 72 65 65 91 98 99 100 99 100 100 99 100 98 97 99 88 80 73 72 72 70 65 63 61 55 52 40 40 46 47 52
72 70 44 23 11 53 84 85 32 52 97 100 99 100 78 83 89 78 80 100 99 70 86 71 80 61 79 86 93 99 100 100 99 100 99 99 88 80 87 84 83 74 68 66 66 68 63 54 52 42 47 52 53 54
75 74 49 10 9 46 77 83 60 59 97 100 100 93 70 80 87 83 90 100 99 85 85 68 62 58 68 80 84 83 79 100 95 99 92 95 90 68 60 61 61 63 56 60 64 52 54 50 58 59 58 60 61 64
70 67 48 12 9 50 71 85 72 76 97 99 98 95 70 85 87 84 100 99 100 82 100 87 63 58 60 72 82 77 70 83 78 84 76 74 70 64 65 60 43 57 63 61 62 64 66 63 54 60 67 68 72 76
76 64 44 16 10 48 74 82 84 92 97 100 99 82 72 89 90 94 97 97 99 95 99 89 76 58 58 57 66 70 72 71 73 79 75 68 69 79 82 68 43 43 51 65 72 73 68 68 66 63 70 77 82 86
68 58 42 20 11 54 78 83 75 91 98 99 98 83 92 100 91 91 100 85 99 97 88 87 79 72 58 62 68 71 80 82 85 84 80 79 78 79 76 38 37 40 40 47 56 58 68 73 68 67 80 88 92 90
68 69 45 23 12 63 82 93 84 92 98 98 99 81 100 100 91 90 98 100 91 99 99 99 97 84 71 60 60 67 68 76 72 80 80 76 72 64 40 34 36 41 50 60 71 79 82 81 73 78 93 95 90 67
66 66 43 27 14 71 84 96 95 94 98 98 98 100 100 97 93 84 99 99 100 100 99 99 97 88 85 93 96 93 90 90 94 78 74 77 58 39 52 50 60 60 65 68 65 63 58 65 73 67 74 65 49 42
57 60 42 26 13 68 90 98 99 97 98 98 98 98 99 99 100 97 98 95 94 98 98 98 98 94 87 98 100 100 99 99 96 92 93 93 66 42 40 59 74 84 87 78 73 72 61 85 83 66 61 49 42 35
50 61 37 26 11 60 93 97 98 97 97 98 98 100 100 100 97 99 97 96 81 74 87 89 88 95 91 99 100 98 95 90 86 86 89 69 39 34 34 37 66 99 99 88 78 83 62 80 79 61 48 40 36 33
56 55 36 24 9 64 94 96 98 98 98 97 98 99 96 92 78 83 84 77 60 53 53 58 73 92 90 97 98 91 87 82 77 69 64 33 22 17 15 26 43 86 100 90 92 76 64 59 56 49 41 38 37 36
61 39 34 17 10 81 95 96 97 98 97 97 98 98 82 79 59 63 58 51 41 37 36 40 49 91 94 99 82 66 69 69 63 55 29 23 20 18 16 24 52 87 97 99 90 65 64 57 46 41 39 40 39 35
36 34 28 9 19 90 95 96 97 97 97 96 94 84 64 64 54 50 53 50 45 40 40 42 73 74 91 78 57 51 55 54 41 25 22 19 17 17 18 27 54 95 99 97 74 72 57 48 43 42 42 38 33 30
26 22 15 10 57 95 95 96 97 97 97 97 92 88 66 65 71 61 55 57 52 47 45 68 86 72 72 51 48 43 41 28 24 21 18 26 28 19 24 41 72 98 95 83 79 68 49 45 44 38 32 31 30 31
22 20 18 41 90 97 94 96 97 97 97 95 95 91 81 73 66 63 59 60 55 49 51 66 63 60 57 53 45 36 30 23 21 23 33 33 27 23 26 49 83 100 94 92 64 48 44 38 34 32 31 31 31 29
17 20 33 74 93 96 95 96 97 97 96 96 94 88 83 78 72 64 60 64 63 65 62 62 59 54 51 49 43 40 35 29 27 32 33 34 26 31 43 64 92 99 81 51 45 38 35 34 34 34 33 32 28 22
23 15 19 76 92 96 96 97 96 96 96 93 91 91 88 79 78 76 77 90 81 75 75 73 63 55 52 47 44 41 42 32 31 32 35 35 40 47 68 79 60 52 45 38 36 36 38 38 38 37 34 29 23 19
27 19 14 44 90 95 95 96 96 96 97 99 89 89 82 88 95 89 96 97 92 90 96 95 69 58 52 48 46 45 42 39 36 37 38 46 55 57 56 53 43 38 36 38 40 40 39 39 38 35 28 22 16 13
28 23 16 33 88 95 96 96 96 96 97 97 98 94 84 74 78 93 97 98 97 98 99 95 82 67 58 53 53 53 60 71 55 46 43 46 62 62 50 40 37 38 41 40 38 39 41 38 32 24 17 15 13 13
26 24 20 31 81 94 95 96 95 96 96 96 97 97 98 100 97 99 99 96 96 96 96 97 97 96 97 94 94 93 72 54 55 62 67 69 67 54 42 38 40 40 37 39 44 45 39 27 19 16 15 14 14 14
26 28 23 63 85 89 96 96 96 96 96 97 97 96 96 96 98 99 98 96 95 94 96 96 96 94 87 89 83 78 68 77 84 85 89 82 57 43 44 51 49 40 44 50 49 38 24 18 17 15 13 12 17 31
29 29 35 69 79 87 92 96 96 96 96 96 96 96 96 96 96 96 96 98 96 98 97 98 96 92 80 73 66 69 78 90 90 88 74 57 62 72 67 52 50 57 60 54 33 23 18 17 11 9 15 27 43 62
29 34 38 47 56 69 89 94 96 96 96 95 95 95 95 96 96 96 96 96 96 97 97 97 96 93 92 86 84 93 91 89 93 94 78 78 81 78 78 78 75 67 46 27 22 19 10 8 12 16 30 52 69 78
40 37 37 40 48 60 84 94 95 96 96 96 96 96 96 96 96 95 94 95 97 96 96 96 95 95 95 95 96 95 90 86 75 70 72 74 86 90 92 86 51 29 25 21 12 9 11 14 22 41 63 76 81 82
46 45 39 38 38 42 59 72 84 95 95 96 96 96 96 95 95 93 91 96 96 96 96 96 96 96 96 96 95 94 93 90 92 90 90 91 90 68 39 29 25 18 12 9 10 14 22 35 56 73 80 83 82 81
50 51 48 45 45 40 39 55 67 90 94 96 96 96 96 95 92 88 89 96 96 96 96 96 96 96 96 96 96 95 95 95 95 94 91 66 42 32 23 15 12 11 12 15 20 31 50 67 77 81 82 82 82 80
52 49 48 51 51 52 46 46 57 65 73 75 90 96 97 95 96 100 100 97 97 97 97 97 97 96 96 96 96 96 95 95 88 62 48 39 30 23 17 15 16 22 28 38 51 67 76 81 82 82 82 82 81 78
57 53 53 55 54 51 49 50 47 48 54 63 74 79 85 94 96 96 97 97 97 97 97 96 96 96 96 96 96 96 90 76 67 57 44 29 22 23 22 26 39 52 60 69 76 81 84 85 84 84 84 82 78 76
50 57 62 62 61 60 58 58 56 55 53 50 60 92 91 93 100 98 97 96 96 97 97 97 97 97 96 95 94 91 81 70 58 39 33 33 40 46 48 55 67 73 78 82 85 87 88 87 86 84 81 80 76 73
56 60 64 68 70 68 69 71 66 66 66 59 56 55 73 93 99 99 100 99 97 96 96 95 95 94 93 90 81 65 50 43 40 40 46 56 61 64 71 77 82 85 88 90 90 87 86 85 83 81 79 75 67 50
70 78 81 84 84 84 83 80 76 80 79 72 63 62 60 58 56 52 53 55 65 68 70 69 66 61 58 56 56 56 54 52 53 60 69 70 75 82 88 92 94 94 92 89 87 85 83 82 78 72 67 55 43 34

GFSWCAN_700_rhum_018.txt.gz
RH
85 77 82 81 48 20 28 56 91 71 41 90 98 99 98 96 93 96 99 100 99 98 98 63 65 95 94 99 99 99 100 99 99 100 93 98 95 93 95 97 96 97 97 100 99 96 89 58 60 46 48 42 36 39
71 66 75 84 50 53 17 49 91 88 32 90 99 98 98 89 81 100 97 97 99 99 98 55 62 83 82 99 99 99 99 99 99 94 100 87 87 87 80 98 95 91 80 79 77 68 59 61 51 51 46 43 45 42
84 70 93 89 69 23 11 46 79 61 38 90 99 98 99 100 80 95 95 98 99 99 99 66 80 68 75 99 100 100 99 100 94 98 92 86 80 80 77 74 72 92 86 80 76 69 63 59 59 55 51 40 39 42
88 78 85 85 75 24 9 36 68 59 25 90 100 96 98 98 86 94 90 97 100 99 99 57 71 74 69 92 99 99 99 99 99 98 99 98 97 86 85 84 73 76 77 81 73 66 61 59 60 59 58 44 48 52
89 88 79 73 76 26 8 33 65 60 19 80 100 97 100 99 85 92 94 97 100 99 98 79 70 82 71 78 97 99 99 99 100 99 99 100 100 93 91 93 86 77 74 70 69 65 68 63 64 54 51 56 60 60
93 88 81 57 67 27 8 41 64 64 18 60 99 98 100 94 85 100 100 92 100 98 89 91 71 71 67 69 92 97 98 100 95 98 99 88 94 83 68 63 49 51 62 66 60 58 49 48 49 58 62 62 64 68
81 78 71 64 60 34 9 53 73 65 23 70 100 99 98 94 97 100 98 79 100 99 98 90 86 66 68 71 75 85 85 89 88 87 90 80 76 74 69 57 52 48 55 62 63 67 65 69 68 64 61 62 71 77
85 79 71 75 62 32 11 65 82 65 47 94 99 98 100 99 100 100 100 93 98 99 100 86 80 76 67 73 79 77 79 80 86 89 86 83 81 77 69 42 44 48 45 42 42 56 61 64 60 66 71 76 82 87
81 80 58 66 52 31 13 73 85 70 64 96 98 99 98 100 99 98 99 100 100 99 99 96 86 64 67 68 75 80 73 93 90 88 84 87 86 68 44 40 37 35 36 35 44 52 64 66 73 79 75 80 89 94
82 80 53 56 42 27 14 72 86 78 80 97 98 98 98 99 100 99 100 100 99 100 98 98 97 90 71 63 72 79 82 79 79 70 71 71 58 43 46 49 44 42 39 50 59 70 78 85 83 83 82 92 99 97
79 74 44 57 36 24 13 72 97 89 95 98 98 98 98 100 100 100 99 100 98 100 99 98 98 99 95 90 86 78 95 82 86 77 80 92 56 38 44 43 45 56 68 65 72 74 71 64 54 71 81 96 86 54
61 45 57 38 26 20 12 82 97 98 97 97 98 99 98 100 98 98 96 98 95 93 90 89 80 96 98 99 98 99 96 90 93 85 87 78 52 44 46 46 38 64 85 80 82 80 69 72 64 82 80 69 53 43
34 31 27 21 21 11 16 91 96 97 98 98 98 97 98 94 86 88 78 82 83 79 81 74 73 96 100 96 98 88 84 93 85 71 62 46 34 23 19 23 40 53 96 94 95 86 80 74 78 84 71 54 42 35
24 24 20 18 11 7 43 89 95 97 98 97 97 97 90 88 69 66 58 62 66 55 40 61 68 90 100 100 89 84 83 79 67 58 37 31 24 22 21 18 27 53 99 99 97 89 86 77 79 65 50 38 38 39
18 15 16 15 10 10 69 88 95 97 98 97 97 95 79 79 66 60 54 51 52 58 53 43 75 80 95 95 84 66 55 58 42 27 24 23 22 20 19 20 33 87 100 99 95 96 79 65 59 43 39 40 34 31
23 15 14 15 29 60 85 86 94 97 97 96 95 98 76 79 68 59 49 42 48 50 42 52 87 86 92 72 56 47 46 33 27 26 25 24 20 17 18 27 56 96 99 99 98 80 66 52 43 42 36 31 30 30
26 21 12 11 70 88 92 92 96 96 96 96 97 98 86 77 64 54 51 46 43 47 43 66 73 68 65 68 50 40 36 31 28 24 20 22 29 26 22 37 70 99 100 98 80 70 52 45 40 32 31 32 32 32
27 23 18 10 65 91 98 95 96 96 96 97 100 93 86 80 72 64 60 55 51 52 50 57 52 55 52 50 46 41 38 35 28 22 30 32 33 27 33 55 86 100 100 87 81 50 44 36 33 34 35 36 36 34
33 27 22 12 48 84 98 96 96 96 96 97 99 92 85 76 77 73 73 76 61 57 60 63 68 61 55 49 45 41 42 38 36 35 32 34 32 31 44 84 99 100 98 86 48 39 35 36 37 37 38 37 35 31
32 27 21 14 28 81 95 96 96 95 96 97 96 95 90 84 85 84 92 92 78 73 88 82 87 78 62 54 47 44 45 52 53 35 33 35 35 44 72 94 100 99 61 41 37 38 39 36 37 40 39 35 29 21
26 18 16 14 28 82 92 96 95 96 97 96 98 98 94 94 97 98 98 98 97 96 96 88 85 86 81 61 51 52 57 52 48 43 38 38 41 64 93 100 62 43 38 38 41 37 36 40 43 41 34 25 19 16
22 19 16 17 40 85 92 95 95 95 96 96 96 97 98 95 92 96 97 97 96 97 100 98 97 97 94 68 52 47 49 49 50 70 76 50 48 64 57 47 40 38 42 40 39 42 43 47 47 36 24 18 15 10
22 20 19 32 70 80 96 93 95 95 96 96 96 96 97 98 98 97 100 96 95 96 96 96 96 96 95 88 76 76 88 95 94 72 64 57 54 50 43 39 42 44 46 49 50 48 52 53 38 24 17 12 7 9
26 22 22 40 65 73 77 92 95 95 96 96 96 96 97 97 99 97 96 99 94 98 97 97 97 96 95 96 97 97 97 95 92 86 78 70 56 50 56 56 56 60 57 50 52 59 56 38 23 16 7 7 11 19
27 29 24 31 38 50 80 90 94 94 95 96 96 96 96 96 96 96 96 96 98 98 97 96 96 96 95 95 94 95 93 94 97 96 94 93 90 68 59 64 72 68 64 67 67 52 32 21 11 6 9 12 21 40
34 34 31 32 38 42 64 85 92 95 95 95 96 96 96 96 96 96 95 96 96 96 96 96 96 94 95 96 90 96 100 98 97 97 96 88 68 67 74 78 75 75 74 70 42 25 18 10 9 11 16 28 48 68
40 39 39 35 36 36 48 62 70 92 96 96 96 96 96 95 95 96 96 96 96 96 97 96 96 96 96 96 96 97 96 97 97 96 96 93 88 76 73 73 76 69 46 28 20 13 9 10 14 24 42 63 74 79
48 44 43 43 43 42 37 37 51 75 93 96 96 95 95 96 97 99 98 97 97 96 96 96 96 96 96 96 96 96 96 95 95 96 94 91 82 80 85 78 48 33 22 12 9 10 15 22 36 59 75 79 81 80
40 42 43 43 46 45 40 41 53 63 68 75 92 96 96 95 94 94 95 96 96 96 96 96 96 96 96 96 96 96 96 95 95 95 95 95 94 80 57 34 23 16 13 14 19 25 37 53 71 81 83 82 81 80
45 46 48 45 46 48 42 44 43 44 47 58 69 86 96 94 96 97 96 96 96 96 96 96 96 97 97 97 97 97 96 96 96 96 95 80 52 38 30 24 19 19 22 27 37 52 66 74 81 84 84 83 81 77
42 45 55 51 54 53 54 53 50 48 49 47 57 78 90 94 97 97 97 97 96 97 96 97 97 97 97 97 96 96 96 96 95 88 69 50 35 26 24 28 31 34 41 52 63 73 81 83 84 84 81 78 77 75
48 47 54 60 62 60 61 64 65 63 60 58 54 62 91 100 95 97 98 97 97 97 97 96 96 96 96 97 96 96 93 89 76 55 38 32 32 34 37 41 46 54 63 72 78 82 83 82 80 78 76 76 71 56
56 60 62 65 68 69 70 73 73 76 74 71 64 57 57 63 70 76 85 87 90 95 96 96 96 96 95 94 93 92 86 72 58 46 41 40 42 46 51 56 65 75 83 87 86 83 81 79 77 76 70 54 44 37

GFSWCAN_700_rhum_021.txt.gz
RH
14 43 90 63 81 92 68 58 21 31 38 22 54 85 92 80 98 99 99 100 100 98 98 100 93 84 93 98 98 99 99 99 100 99 99 96 99 92 93 86 88 98 94 99 98 89 84 54 56 56 48 39 41 44
18 74 91 78 80 90 78 22 14 30 34 29 59 97 98 96 98 100 90 100 100 100 99 99 96 70 93 97 99 99 99 98 99 99 94 88 98 98 92 99 93 95 82 83 75 65 61 62 53 52 48 47 46 36
27 84 90 86 86 85 78 26 10 31 44 35 48 91 99 98 99 99 96 100 100 100 98 99 97 77 89 96 99 99 99 99 98 94 89 97 99 87 88 80 77 88 94 85 80 64 60 60 59 56 56 47 44 40
53 79 87 88 84 75 80 29 9 29 50 38 50 97 85 97 98 91 96 100 100 99 99 97 71 68 82 92 99 99 99 100 100 96 94 99 93 82 82 76 74 71 79 83 78 70 64 63 61 60 60 55 50 47
95 71 69 83 77 57 67 38 9 37 49 39 58 100 100 95 98 95 98 100 100 99 99 98 84 73 80 75 97 99 99 99 99 99 98 93 99 95 92 88 88 77 70 72 64 70 68 66 68 65 63 50 50 57
87 85 80 83 80 83 80 41 11 46 60 40 41 97 100 98 99 100 100 98 99 99 98 100 88 68 83 75 95 99 99 99 99 100 98 99 100 100 98 88 61 73 71 78 72 71 69 66 52 56 54 57 62 64
84 71 77 77 74 78 72 27 13 61 75 38 34 90 87 98 98 100 98 82 95 99 99 95 76 69 69 70 80 97 99 99 100 98 98 100 89 91 80 69 62 55 54 71 76 67 58 57 60 62 64 65 68 71
62 69 79 76 71 64 42 22 17 71 76 30 40 100 92 99 100 100 100 84 91 100 98 96 86 72 68 71 77 78 93 92 90 90 85 83 84 84 70 56 50 57 52 53 55 63 70 73 72 72 70 71 74 78
50 59 74 73 52 54 32 17 24 71 67 28 77 99 100 100 99 96 100 100 87 95 98 94 95 69 67 70 78 86 87 86 82 85 83 83 80 70 49 43 42 45 49 55 53 51 57 63 68 68 74 76 82 87
34 49 51 42 51 39 22 13 41 80 60 51 99 99 98 98 94 100 100 98 99 100 98 99 87 84 74 75 85 94 92 90 91 87 86 87 57 50 52 51 49 47 42 38 43 50 66 73 76 80 84 85 93 98
20 25 28 26 24 18 17 12 54 99 96 97 97 98 97 97 98 99 98 99 98 98 95 99 99 95 87 96 99 93 88 80 75 72 73 72 42 30 34 35 38 45 57 55 53 64 79 83 82 71 77 88 98 100
16 14 14 17 16 15 11 13 70 99 99 96 97 98 98 98 97 98 99 96 86 86 98 86 77 92 100 99 99 89 84 84 92 93 87 71 40 42 39 51 57 60 70 74 70 77 80 74 68 67 90 99 100 99
17 18 12 12 14 10 8 15 84 95 97 97 98 98 98 94 94 89 96 99 81 90 82 66 70 97 100 98 97 94 92 93 86 78 67 52 43 40 29 20 36 52 63 90 87 88 87 75 76 87 98 100 86 54
18 20 17 10 10 9 10 43 88 96 96 97 98 97 98 84 77 73 68 69 63 59 59 64 75 100 100 100 95 91 84 84 76 71 51 37 29 30 25 22 19 42 76 97 94 96 94 85 87 96 98 69 47 36
17 20 21 13 10 14 37 72 87 93 96 97 97 97 88 94 83 73 59 64 59 56 53 61 93 95 100 91 89 80 72 71 53 36 29 25 23 23 23 22 25 52 98 96 99 98 94 93 92 87 62 41 39 35
17 20 19 16 10 43 78 88 83 93 96 96 97 98 90 92 83 73 59 55 61 53 56 84 100 95 93 82 77 68 49 33 28 26 26 25 25 23 21 22 36 80 99 97 98 96 96 91 73 53 40 39 31 30
15 15 14 14 10 54 78 95 94 96 96 96 97 94 89 89 72 62 57 48 55 64 61 84 81 62 66 73 62 52 42 34 33 31 29 26 20 19 20 29 57 96 100 98 96 96 87 68 49 42 36 31 32 34
11 11 11 12 10 38 78 92 100 96 96 94 97 98 86 83 70 58 53 50 54 54 64 72 62 55 49 52 50 38 37 39 40 34 28 22 31 32 28 39 70 99 99 99 98 85 64 47 42 34 33 35 35 36
12 11 10 7 8 21 77 92 97 96 96 92 92 97 94 80 70 60 57 55 52 52 55 59 61 56 53 45 43 44 42 40 41 37 25 32 33 33 36 65 92 100 99 97 85 64 47 38 34 36 36 37 38 37
13 13 9 8 7 11 72 95 96 95 96 98 94 96 97 89 86 81 77 70 60 64 71 74 60 56 52 55 58 51 46 43 41 36 36 35 34 36 58 91 100 100 99 96 66 44 37 37 36 36 39 41 41 36
14 11 10 8 8 15 80 92 94 96 95 96 96 95 96 97 99 96 94 96 96 92 77 66 61 63 61 70 69 62 54 45 44 44 36 35 36 44 81 100 100 100 100 86 42 37 39 36 38 43 45 44 38 29
14 14 10 9 11 50 92 96 92 95 95 95 96 96 97 97 98 98 98 99 97 95 90 88 84 77 78 84 90 86 68 63 60 51 45 45 40 48 91 100 100 98 62 39 41 40 38 43 48 49 48 40 30 23
18 16 13 12 27 65 84 76 86 94 95 96 96 96 96 97 99 97 96 96 96 97 99 97 96 94 95 96 96 90 83 89 76 60 73 69 68 85 100 100 86 44 40 42 42 47 52 55 54 52 41 30 21 10
21 19 15 15 20 40 53 78 85 88 94 95 95 96 96 96 96 97 96 88 83 92 96 96 96 95 96 95 97 89 73 66 79 95 96 94 95 99 93 52 42 46 48 52 55 60 68 59 55 42 30 20 8 6
24 25 18 21 24 32 50 75 89 87 93 94 95 96 96 96 96 96 98 89 87 90 99 100 98 96 98 97 97 96 95 97 96 97 99 98 88 55 47 50 57 59 61 68 83 74 66 61 41 28 17 8 6 8
30 29 24 28 27 28 38 58 74 91 91 94 96 96 96 95 95 95 95 97 100 96 97 97 96 96 96 96 97 97 96 96 95 96 90 88 81 74 76 76 82 89 93 93 78 68 58 35 24 15 9 8 10 17
38 33 31 34 31 31 32 34 44 82 96 96 95 95 96 95 95 95 95 98 98 96 96 96 96 96 96 96 98 97 97 96 96 96 96 95 96 95 95 96 95 92 77 70 65 43 29 20 13 9 9 13 22 36
43 41 42 40 40 37 35 33 36 62 91 96 96 94 95 96 95 95 95 96 96 96 96 96 96 96 96 96 96 96 96 96 96 96 96 95 95 95 95 95 87 76 76 60 35 23 15 10 9 12 17 28 48 62
42 41 43 42 41 39 35 37 42 54 62 74 93 94 95 94 94 94 95 96 95 96 96 96 96 96 96 96 96 97 96 96 96 96 96 96 96 95 95 88 82 76 48 27 18 14 13 14 19 28 39 52 62 67
46 46 44 44 43 43 43 41 38 39 41 58 87 95 94 92 93 93 95 95 96 96 96 96 96 96 96 96 96 96 96 96 96 96 96 96 96 94 85 81 63 37 25 20 17 16 19 25 34 46 60 68 69 70
45 47 50 51 48 49 54 50 50 48 46 44 56 93 99 96 94 95 94 95 96 96 97 97 96 96 96 97 97 96 96 96 96 96 96 96 94 91 76 49 33 26 21 19 20 26 34 44 56 64 68 70 70 69
58 52 49 51 50 53 59 60 64 62 58 56 50 58 98 99 98 98 98 97 97 97 96 97 97 97 96 97 97 96 96 96 96 95 95 94 89 70 49 31 24 23 26 29 35 43 52 63 70 71 70 69 68 65
64 59 57 56 58 61 65 70 69 71 72 70 66 55 70 93 97 98 98 98 98 98 98 97 98 98 98 98 97 96 96 95 96 94 85 68 48 37 32 30 31 33 39 46 55 65 73 76 76 72 68 67 47 32

GFSWCAN_700_rhum_024.txt.gz
RH
9 13 35 80 87 83 74 80 72 16 15 21 29 39 96 98 95 97 98 92 90 98 97 99 97 97 93 93 98 98 99 100 100 99 99 96 99 91 95 99 95 92 94 96 95 90 77 60 54 55 47 42 45 41
9 30 97 80 86 87 70 80 69 18 14 20 21 48 96 99 97 98 97 80 93 97 98 100 98 97 100 94 98 98 99 99 98 99 99 99 100 97 91 88 88 91 93 75 69 63 60 65 55 53 49 48 44 35
9 69 94 89 74 82 72 56 72 19 14 24 21 46 92 100 99 96 98 85 92 99 98 92 97 100 92 97 99 98 99 99 99 99 97 92 86 81 88 83 78 78 86 81 77 63 65 67 62 60 56 47 53 44
14 80 88 86 81 83 73 52 74 25 11 34 23 44 92 100 98 95 99 98 100 100 99 96 92 87 81 97 98 98 99 99 99 99 99 97 89 97 93 82 78 78 81 77 77 70 63 62 62 64 61 57 53 46
20 68 70 79 75 75 76 75 73 24 15 39 41 45 69 86 87 95 99 100 100 99 100 99 96 82 86 93 96 99 99 99 99 99 100 98 99 99 96 89 79 72 69 70 64 70 71 66 66 68 67 58 50 56
16 63 68 78 81 67 68 66 60 16 21 42 44 51 85 90 97 98 100 96 100 98 99 99 94 82 78 86 96 100 99 99 99 98 100 99 91 94 92 95 79 80 78 76 75 74 72 71 70 67 68 57 57 63
8 23 54 71 77 70 49 49 30 13 26 47 39 68 100 94 88 97 98 81 100 99 99 95 88 81 82 85 94 99 99 99 99 99 100 100 99 100 98 78 67 60 66 71 78 80 76 73 62 54 57 58 66 70
8 13 22 34 46 40 44 39 18 12 32 48 39 62 100 100 93 98 94 80 99 100 100 98 93 85 81 88 96 98 99 99 99 99 98 98 94 90 75 62 60 62 57 70 83 79 67 66 67 68 67 68 71 75
10 12 13 18 23 25 22 16 11 20 47 53 35 53 100 100 97 94 99 95 99 97 98 96 82 74 76 98 96 90 90 96 92 87 83 83 84 73 54 53 44 45 56 60 59 57 63 71 74 73 72 70 77 81
10 13 15 11 12 14 13 12 12 54 68 52 28 87 100 91 90 92 99 99 99 98 100 99 86 80 73 88 100 99 93 87 89 72 74 74 56 46 46 44 43 40 40 45 46 52 56 58 64 67 71 80 88 94
10 13 16 15 10 12 12 10 26 87 89 73 93 98 98 99 99 98 98 99 98 99 96 80 87 94 89 94 99 100 98 90 76 71 72 65 44 37 37 38 41 48 55 53 48 45 55 76 78 76 80 88 93 98
10 13 16 18 12 9 9 8 30 87 99 99 96 98 98 98 97 97 98 98 91 90 82 68 62 83 96 97 99 98 81 73 75 83 76 57 36 41 37 39 44 41 48 59 60 58 60 72 82 80 88 91 98 99
10 12 16 18 15 8 8 10 43 86 87 94 97 97 98 95 97 86 100 99 86 88 71 51 69 92 98 98 98 94 75 90 84 79 68 44 43 45 43 39 26 54 64 73 76 72 84 85 75 78 92 100 100 98
10 10 13 13 15 8 9 12 57 90 91 97 96 96 96 93 88 86 76 68 50 53 45 59 67 98 96 96 98 96 90 84 77 73 47 33 32 34 35 32 24 32 60 80 88 86 91 86 82 85 99 99 98 66
9 9 9 8 11 9 14 29 62 90 96 96 96 96 95 98 93 89 71 69 66 61 48 70 83 94 100 97 91 80 77 74 63 43 29 26 24 23 24 24 23 31 60 87 91 98 98 88 94 95 100 92 56 38
9 9 8 6 6 7 14 60 69 86 92 96 94 95 99 93 92 79 66 55 68 62 60 85 100 99 96 88 79 75 71 46 31 27 26 26 25 25 24 23 25 44 86 92 96 96 94 94 95 99 82 49 39 35
10 10 9 8 5 5 11 66 80 93 100 97 92 93 97 94 85 73 65 64 69 68 65 87 96 89 84 80 74 63 46 35 34 33 30 30 29 24 21 22 38 64 100 97 98 94 94 98 92 64 42 40 32 31
11 11 10 9 8 4 10 63 85 94 94 95 88 89 96 94 86 72 66 72 72 68 66 87 79 73 63 56 49 39 34 34 38 40 38 33 23 21 24 31 45 85 98 97 98 97 98 86 60 43 40 33 33 34
12 12 11 10 9 5 6 57 87 93 91 92 95 88 90 97 86 72 67 71 71 74 87 81 82 67 62 56 50 45 40 41 41 41 40 36 23 30 35 52 77 100 100 99 98 98 77 56 43 38 34 35 35 37
12 13 13 11 10 6 11 72 88 90 93 94 95 98 86 95 96 94 80 76 82 93 100 87 76 66 59 56 52 47 50 51 47 44 43 32 30 36 46 66 92 100 99 98 97 81 61 46 37 36 36 37 41 42
14 14 13 12 11 6 13 68 86 90 90 93 94 96 97 96 97 98 97 81 93 93 93 82 73 69 65 58 61 66 62 55 57 52 38 30 33 39 53 85 100 100 99 99 84 63 43 37 38 37 41 45 46 42
17 16 14 13 12 13 44 82 76 82 78 84 87 95 96 96 96 97 98 96 96 93 75 71 69 65 66 66 65 63 69 69 60 49 43 43 42 41 66 97 100 99 96 98 62 40 39 40 39 45 49 50 46 38
21 19 16 15 11 16 46 46 60 78 84 89 89 95 95 95 96 96 96 97 97 94 88 86 85 85 86 84 78 80 83 94 91 83 65 48 64 73 100 100 99 97 97 86 48 42 42 43 51 55 54 52 42 34
27 23 21 15 12 14 18 30 62 82 83 90 92 95 96 96 95 96 96 95 96 100 100 100 100 100 99 92 93 93 89 94 96 88 92 93 90 96 99 97 98 98 82 51 45 46 51 58 65 67 64 48 35 23
35 26 22 17 17 16 19 34 49 80 91 93 91 94 96 96 95 95 94 95 97 96 96 96 96 96 95 95 94 86 84 88 97 98 97 95 96 96 95 96 97 78 54 50 56 65 78 74 79 67 48 32 19 11
40 31 24 21 23 22 23 28 40 48 77 92 100 96 94 95 95 95 94 94 96 96 97 99 99 97 94 92 92 98 93 86 80 91 96 96 97 97 97 96 84 63 62 77 88 86 89 82 65 42 27 18 11 9
58 34 28 28 30 29 27 25 26 31 81 95 98 94 96 96 95 95 94 94 95 95 96 96 99 100 100 98 96 96 97 97 97 97 97 97 96 93 88 92 92 94 90 90 92 76 66 52 34 24 16 10 10 11
66 55 40 36 36 36 33 27 27 40 66 82 89 96 97 96 96 95 94 94 92 95 97 96 96 97 100 98 96 96 96 96 97 97 96 96 95 93 93 94 94 94 94 88 74 69 51 33 22 14 11 11 14 18
42 44 43 41 42 42 35 30 30 35 44 51 70 95 100 97 95 95 95 97 97 96 95 95 95 96 97 96 96 96 97 96 96 96 96 95 95 95 95 95 95 94 86 72 62 47 29 18 15 14 15 18 20 25
47 47 46 42 42 42 38 39 36 34 35 36 44 79 92 94 95 98 96 95 95 95 96 96 95 96 96 96 96 96 97 97 96 96 96 96 96 96 96 95 93 88 69 57 41 26 20 18 16 17 20 26 32 40
54 50 48 53 48 46 46 46 45 45 44 42 37 40 72 91 94 97 100 99 96 96 96 96 96 96 96 96 96 96 96 96 96 95 96 96 95 95 95 95 81 63 56 54 37 23 19 19 21 25 28 35 45 52
67 60 60 56 55 53 52 53 54 56 56 56 49 39 71 93 95 96 97 98 98 97 96 97 97 97 96 96 96 96 96 96 96 96 96 95 95 95 94 88 77 64 49 34 23 24 26 28 31 35 43 53 60 59
89 86 76 68 62 58 58 58 60 62 62 62 62 55 60 91 92 96 97 97 98 98 97 97 97 97 97 97 97 96 96 96 96 96 95 95 95 90 80 72 60 45 31 25 26 26 32 40 48 56 62 66 65 62

GFSWCAN_700_rhum_027.txt.gz
RH
6 7 38 100 92 74 78 87 67 62 62 11 15 42 86 95 97 82 84 97 98 95 94 97 96 95 98 96 97 95 98 100 99 100 99 99 99 96 94 97 97 84 85 95 98 93 72 64 59 52 47 47 44 46
6 6 41 92 92 80 75 85 56 55 72 11 14 31 85 98 100 95 96 98 95 99 99 93 100 96 97 98 99 96 98 100 99 90 96 97 100 87 85 90 88 90 88 82 77 68 61 69 59 54 50 48 36 42
6 6 30 68 70 72 61 76 70 67 66 12 13 24 82 100 100 95 96 97 98 99 89 100 98 96 88 90 98 99 98 99 97 100 99 99 96 87 91 84 81 84 88 90 79 68 67 66 66 59 52 50 51 39
6 6 15 60 66 67 74 70 68 60 59 11 13 22 73 100 100 89 95 96 98 99 98 99 99 93 100 95 98 99 98 99 99 99 99 100 100 87 88 82 81 84 80 76 72 65 64 67 66 64 61 57 55 43
6 7 9 21 52 65 74 66 52 56 45 10 16 22 72 100 91 81 88 98 93 99 100 99 97 97 86 86 98 99 98 98 99 99 99 100 100 95 88 86 76 75 70 70 73 72 68 67 66 67 66 63 50 49
7 8 10 11 16 33 46 39 37 40 19 11 20 29 64 100 96 89 98 100 95 98 99 99 97 97 87 85 94 98 99 99 99 99 99 99 98 97 93 88 69 70 70 76 75 79 76 73 72 73 70 67 56 55
8 9 11 13 10 14 21 29 26 19 12 14 19 38 62 96 99 92 98 82 87 100 100 99 90 94 79 85 94 100 100 99 99 99 99 99 99 99 96 89 77 73 77 82 79 77 76 74 74 68 60 63 61 63
8 9 11 15 13 9 11 13 14 12 12 20 19 40 70 84 98 94 90 77 81 100 99 99 99 90 82 85 96 100 100 99 99 99 99 100 100 99 95 77 80 66 62 66 74 85 87 87 79 64 59 63 68 71
8 9 11 15 17 10 10 10 10 16 44 28 24 39 99 97 84 71 79 91 86 97 96 98 89 83 82 89 97 98 99 99 98 98 97 96 97 84 66 70 71 61 62 62 84 84 78 67 72 73 72 71 76 77
8 9 9 12 16 12 10 9 12 50 70 45 32 48 99 98 96 100 98 99 100 100 100 89 85 87 84 98 100 99 95 94 88 84 79 72 61 55 57 55 46 47 51 58 60 58 54 60 63 67 68 73 82 88
8 9 9 10 10 11 7 8 19 75 84 73 40 69 99 100 98 98 97 98 99 99 85 89 85 96 95 100 100 99 97 94 83 76 76 65 47 39 38 42 44 44 45 44 45 42 44 60 66 68 70 78 87 96
8 9 8 8 7 8 7 7 18 68 84 98 95 89 98 98 98 96 99 99 93 86 76 57 64 91 98 98 99 96 86 82 67 71 68 48 31 32 29 33 35 39 48 56 55 52 46 52 69 85 87 89 94 98
9 9 9 8 6 5 6 6 17 68 79 85 100 97 98 97 98 90 99 100 80 75 64 55 58 78 90 95 96 93 89 76 76 79 67 44 40 44 44 40 31 35 42 48 62 65 60 68 77 88 92 97 100 98
10 9 9 9 8 5 4 5 17 67 77 88 96 96 96 96 100 100 100 93 61 54 52 61 64 82 99 96 96 92 90 88 79 72 44 40 42 38 38 41 41 26 36 60 68 74 72 79 84 76 98 100 99 96
12 10 10 9 9 8 4 4 17 51 86 97 96 96 96 97 100 99 96 72 67 63 58 58 85 96 100 99 96 91 78 75 67 41 30 27 28 26 29 28 27 23 34 64 80 82 86 90 80 84 95 99 99 90
15 13 10 9 9 9 6 4 16 44 72 93 93 95 97 95 94 92 87 64 73 72 79 89 100 99 96 89 88 78 73 51 36 29 27 26 26 26 25 25 24 27 47 78 91 96 96 95 92 96 99 99 88 41
16 15 12 10 9 8 8 4 16 56 87 97 87 88 93 89 94 95 78 71 76 85 93 100 99 94 89 86 80 71 57 37 39 36 34 31 30 30 28 24 26 38 69 92 93 98 99 90 92 99 100 81 43 38
16 16 15 12 10 8 8 5 26 72 88 90 93 94 89 80 93 97 91 84 93 96 100 100 92 80 74 72 64 48 46 41 40 38 38 40 37 32 23 23 36 70 88 97 100 95 99 96 99 90 59 40 37 32
18 17 17 15 12 10 9 8 22 79 78 85 88 96 98 85 85 97 95 90 92 100 100 100 97 86 76 65 56 52 50 46 42 42 42 38 38 33 23 33 54 74 91 95 96 96 94 98 80 52 41 36 34 36
20 18 18 16 14 12 11 10 17 46 78 82 80 83 86 92 77 92 98 97 100 100 99 100 98 87 81 74 64 55 56 51 46 45 42 42 42 33 31 52 62 78 99 98 98 98 99 76 49 41 36 37 37 40
28 20 20 19 16 13 11 14 21 44 63 74 79 78 77 84 90 95 96 97 98 97 97 100 100 99 89 84 68 55 56 56 57 52 51 49 45 36 41 65 85 95 99 99 97 95 77 54 44 37 38 38 43 46
35 26 26 23 19 16 12 21 29 32 37 56 65 79 78 78 92 96 98 97 96 95 93 100 100 100 99 95 92 75 66 64 64 60 60 58 45 38 49 81 84 100 100 94 98 85 58 42 39 39 40 46 49 51
39 32 30 27 22 14 17 16 12 16 39 65 76 88 85 87 94 95 96 95 96 97 98 94 99 100 100 97 93 80 73 70 73 70 69 49 45 62 69 90 98 100 97 98 90 61 42 40 40 41 49 53 57 60
41 37 36 26 15 13 13 12 13 29 42 79 92 90 97 97 94 96 95 94 96 96 98 100 95 93 96 96 98 95 89 86 86 86 87 94 63 61 77 100 99 97 97 98 86 47 42 43 45 54 63 63 64 55
51 41 28 21 19 16 17 14 13 22 44 52 72 83 99 98 98 96 95 95 96 96 96 96 97 96 96 96 96 97 98 98 96 89 96 98 97 92 96 96 96 96 96 96 77 64 54 50 66 74 64 71 64 40
61 47 30 22 19 20 22 18 17 20 24 38 86 96 96 95 97 96 98 96 96 96 96 96 96 96 96 97 96 96 97 97 95 91 96 97 97 97 97 96 96 96 96 88 70 62 73 92 84 88 83 71 37 22
74 57 41 34 30 28 29 26 20 20 24 44 86 87 93 97 98 100 99 97 96 96 96 95 95 96 96 96 96 96 96 96 94 92 96 97 97 97 98 97 97 96 95 91 88 96 93 92 91 78 67 34 19 13
57 45 38 40 38 35 35 30 24 22 29 44 48 70 92 96 95 93 88 88 94 95 95 96 96 96 96 96 96 96 96 96 96 97 97 97 97 97 97 97 96 96 95 97 94 93 94 77 62 50 28 16 13 12
36 35 40 47 48 44 42 34 27 26 28 32 38 45 72 87 90 85 84 91 92 96 96 96 95 95 96 95 96 96 96 96 96 96 96 97 96 96 95 94 95 96 94 92 96 92 79 66 60 35 17 16 15 14
39 43 42 40 42 43 39 37 34 32 32 33 34 32 33 44 74 84 82 91 97 95 96 97 96 96 95 95 96 96 96 96 96 97 97 98 96 96 96 95 96 96 96 96 93 68 51 65 46 22 18 16 16 17
51 54 54 49 46 44 44 42 40 41 41 43 44 44 34 44 72 80 84 87 94 97 96 97 96 97 98 97 96 96 96 96 97 97 96 96 96 96 96 96 96 96 96 95 83 67 57 32 23 21 20 19 18 19
67 67 63 54 51 53 53 46 46 46 48 51 53 50 46 50 86 84 88 90 94 95 97 97 96 97 97 97 96 96 96 96 96 96 96 97 97 97 96 96 96 95 95 94 90 75 37 28 27 26 24 22 24 26
81 82 79 77 71 63 56 52 52 54 52 54 56 56 54 47 85 92 92 93 95 96 97 97 96 97 97 97 97 97 97 97 96 96 96 96 97 97 96 95 95 93 87 66 44 32 29 29 29 30 33 36 38 43

GFSWCAN_700_rhum_030.txt.gz
RH
8 5 4 4 14 53 78 55 74 71 53 53 10 27 79 96 99 100 99 100 100 95 93 85 96 98 98 98 98 97 98 98 99 97 97 90 84 88 96 90 90 92 92 84 92 97 76 72 64 54 54 52 48 50
8 5 5 5 8 43 75 61 78 63 68 42 10 22 71 100 100 82 92 87 82 97 95 99 96 82 100 98 98 98 98 98 99 100 92 99 93 98 90 84 79 86 83 87 85 74 68 69 60 55 51 40 45 51
7 6 6 6 6 21 64 69 76 60 52 41 10 17 61 100 96 88 99 85 96 97 88 81 76 94 98 86 98 98 98 98 99 87 98 100 98 92 93 80 80 74 82 87 85 74 68 68 67 57 51 54 44 52
8 6 6 7 7 8 36 71 70 48 38 42 10 14 49 100 100 100 92 82 96 91 82 85 96 100 98 97 97 99 98 98 97 99 95 90 96 99 95 87 80 77 80 75 74 78 71 70 69 66 60 54 48 43
8 7 7 8 8 8 8 15 24 32 32 36 11 11 33 99 100 92 100 100 97 99 97 94 97 100 97 93 96 98 98 98 99 99 93 98 98 99 99 92 77 76 74 75 77 77 70 67 66 67 65 60 51 50
9 7 8 8 8 10 7 8 12 15 16 14 9 12 32 98 92 93 100 96 94 89 98 97 100 99 96 89 90 98 98 98 99 99 100 99 100 99 100 98 74 75 72 73 74 79 80 74 74 72 70 67 58 52
10 7 8 8 9 9 8 8 10 10 9 8 8 13 34 97 99 100 100 95 87 97 99 90 100 96 88 85 88 98 98 98 98 98 98 99 99 100 96 86 74 69 70 73 75 79 76 74 71 73 67 64 60 56
11 8 8 8 8 8 8 8 10 12 12 11 9 14 35 100 100 100 97 90 87 94 93 98 99 96 87 87 93 97 99 98 98 99 99 99 99 99 98 65 66 69 71 73 83 90 78 78 78 81 71 68 64 65
13 9 8 7 8 7 7 7 15 44 56 31 17 18 40 99 96 97 100 96 94 93 92 88 84 89 81 96 92 97 98 99 98 99 100 100 99 97 73 67 69 72 68 64 71 94 91 85 74 74 70 63 71 73
14 10 8 7 8 6 5 6 18 56 70 41 36 32 59 94 100 99 99 100 100 100 100 99 76 79 82 83 98 95 96 99 96 97 95 96 77 67 69 70 71 64 61 62 84 86 84 70 70 73 73 74 80 82
15 12 9 8 7 8 4 5 16 51 72 97 81 67 90 100 99 99 98 99 98 96 96 87 74 80 85 88 98 93 95 93 92 87 87 73 54 49 54 55 54 45 52 56 56 50 52 62 58 63 68 74 79 89
16 15 11 8 7 8 6 4 13 48 73 60 82 96 98 99 97 97 97 97 98 98 91 62 68 82 100 93 88 92 90 84 74 73 68 50 37 35 40 37 47 46 44 46 45 45 42 45 58 75 76 75 85 96
17 16 13 10 8 7 8 4 8 39 69 63 90 97 94 98 99 92 100 99 95 66 67 55 61 88 100 98 98 90 90 79 75 76 62 48 47 43 37 37 39 44 50 56 60 57 54 53 65 82 87 92 96 98
18 18 16 14 10 7 7 6 4 26 58 66 88 96 98 91 99 100 100 100 81 60 52 73 72 71 88 98 88 84 90 80 79 73 50 42 37 39 38 44 44 38 35 49 64 74 73 67 72 85 98 100 100 99
23 20 19 17 14 9 6 6 4 15 47 69 86 90 96 97 98 98 96 96 81 72 63 75 86 86 100 98 90 88 85 77 65 45 37 29 26 25 28 33 38 44 37 43 71 82 80 79 87 92 98 98 97 97
30 24 21 19 19 14 8 5 4 6 27 63 76 91 95 91 94 96 94 80 84 91 96 100 100 99 97 91 95 85 82 58 42 34 28 31 29 26 26 24 25 26 27 42 79 90 91 94 97 95 86 94 96 95
40 31 25 22 22 22 14 6 4 6 32 62 64 74 84 93 93 96 95 100 99 100 100 100 98 92 91 95 84 74 59 44 47 41 36 34 34 33 30 29 25 25 30 54 88 94 98 99 98 99 98 96 93 70
47 34 29 26 23 25 23 12 7 8 28 45 66 80 92 83 87 87 95 97 100 100 100 100 99 96 85 82 69 49 48 48 49 48 40 37 39 39 36 28 24 28 47 80 99 99 98 96 87 98 99 99 66 38
56 45 37 33 28 27 22 16 9 9 11 28 57 72 77 82 84 81 74 96 98 99 99 99 99 96 93 86 71 61 54 50 54 47 44 42 41 40 37 26 27 46 72 89 91 92 96 96 98 99 84 44 38 34
62 52 45 39 31 26 22 17 14 9 9 17 19 47 66 69 74 80 76 81 97 97 98 98 98 98 94 86 80 70 59 58 61 58 50 45 41 40 42 30 45 66 79 86 96 94 97 99 98 78 40 39 35 36
67 56 47 45 34 30 28 20 16 11 12 9 10 14 28 52 66 71 82 86 97 96 96 98 100 99 99 89 81 76 72 65 56 55 52 50 48 45 45 40 56 79 83 90 95 99 96 100 86 51 41 36 36 39
72 63 53 46 39 38 36 24 14 14 13 9 8 19 41 53 62 67 76 88 95 94 94 97 98 98 99 99 98 97 90 87 67 66 62 55 52 54 49 45 65 85 91 97 97 97 92 87 50 42 38 38 40 47
69 61 56 54 45 38 28 20 15 12 12 12 10 16 44 73 86 94 99 92 94 95 96 97 97 97 97 97 98 97 93 95 84 77 69 66 61 60 52 58 88 97 97 98 98 100 96 63 44 39 39 42 49 55
70 64 62 48 37 18 17 15 14 15 13 12 15 29 51 62 80 93 96 88 85 95 95 96 96 96 97 97 97 97 97 96 95 83 77 74 76 74 53 89 100 100 99 99 97 96 82 56 40 40 43 51 58 58
70 60 52 37 26 22 17 16 16 18 13 13 15 27 73 94 96 91 87 91 100 99 96 95 96 96 96 96 97 96 96 96 96 90 84 84 86 89 81 79 100 98 97 96 97 95 84 62 50 51 60 73 82 78
71 60 51 36 27 25 20 20 23 21 16 15 18 45 77 77 78 83 95 99 97 97 96 95 95 94 95 97 96 96 96 97 97 95 96 97 92 98 99 90 96 94 95 96 96 95 88 75 74 85 94 90 93 74
79 69 61 57 51 37 28 29 29 25 18 18 32 52 63 86 95 98 95 87 88 88 92 94 96 97 98 96 96 97 96 97 97 97 98 98 97 96 97 98 98 97 96 96 95 96 94 94 95 93 93 94 79 70
81 72 57 46 38 36 37 36 35 27 20 23 28 32 42 56 59 56 64 68 66 73 83 93 94 94 96 97 96 96 96 96 96 97 99 97 96 96 96 97 96 96 97 96 96 94 94 96 94 95 89 77 70 30
53 45 40 37 39 45 48 44 40 30 23 26 28 30 30 30 30 32 45 64 63 66 80 90 94 95 95 95 95 96 96 96 96 96 96 96 95 95 96 96 97 96 96 95 94 96 96 95 95 80 59 55 38 19
58 52 44 38 37 39 40 39 35 34 31 32 34 36 39 40 36 33 55 68 66 72 81 89 93 96 96 96 96 96 96 96 96 96 96 96 96 96 96 96 96 96 95 94 96 95 95 96 79 66 73 58 30 18
60 52 47 49 50 47 44 45 42 38 35 37 39 42 46 46 41 43 71 72 75 82 89 92 95 96 95 96 96 95 95 96 96 96 96 95 96 97 97 96 96 96 96 97 96 95 93 60 54 75 77 41 19 15
51 52 55 59 56 51 49 48 46 41 37 39 42 45 51 53 49 54 80 77 84 91 93 94 96 98 98 96 96 96 96 96 96 96 96 96 97 96 96 96 97 97 96 95 96 95 90 87 89 59 27 19 18 17
60 63 66 71 72 67 60 57 52 46 39 40 42 47 53 58 52 53 86 88 92 96 96 96 96 96 96 96 96 96 96 97 97 97 98 98 97 97 96 96 96 96 96 95 95 95 96 94 68 32 25 22 21 22

GFSWCAN_700_rhum_033.txt.gz
RH
18 16 8 6 6 5 4 19 48 85 76 56 24 14 59 90 79 98 99 99 98 90 96 91 89 98 98 97 96 98 98 98 99 99 98 94 88 82 86 87 89 94 98 92 91 92 84 72 61 61 60 53 56 60
17 16 8 6 6 6 5 6 41 64 70 40 22 9 39 100 96 89 94 99 98 93 88 87 78 76 88 88 99 98 97 98 98 98 86 87 92 84 86 87 87 87 85 90 89 71 69 70 64 58 52 49 56 50
17 17 9 7 7 7 5 5 6 9 31 35 22 9 31 100 95 98 99 99 96 97 94 97 95 84 85 97 97 98 97 98 98 93 92 88 99 93 92 86 87 79 85 88 86 79 72 67 69 58 58 49 52 58
17 17 10 7 8 8 6 4 6 7 13 20 19 11 24 95 97 87 96 98 89 99 98 87 91 96 98 99 98 97 97 99 98 99 89 100 100 96 93 94 90 84 78 78 76 77 70 68 68 64 58 49 46 56
18 16 11 8 8 8 6 5 6 7 8 11 17 9 22 87 100 99 94 96 100 100 99 97 93 88 97 96 96 98 98 99 96 99 99 95 88 83 84 88 76 74 75 76 79 78 76 68 68 67 66 62 62 52
18 16 11 8 8 8 6 5 8 9 8 7 7 8 18 80 100 100 100 99 99 98 100 100 97 94 95 98 94 98 98 98 98 97 94 95 93 94 92 92 65 69 68 78 75 78 80 75 73 75 73 75 66 67
19 16 12 9 8 8 6 5 11 25 36 13 6 6 18 62 100 100 98 94 87 95 100 97 100 97 95 98 88 97 98 98 99 99 99 99 98 100 98 88 65 79 76 74 74 78 80 79 76 77 80 72 91 65
22 17 14 10 8 7 6 4 15 41 65 31 7 6 17 68 95 99 95 97 89 100 99 87 90 94 93 92 97 100 98 99 99 98 98 96 98 100 97 66 73 66 70 77 83 85 82 85 79 81 84 84 66 65
21 18 16 12 8 7 7 4 16 50 61 20 11 14 25 89 97 98 97 98 97 100 89 85 86 87 90 100 100 100 100 99 99 99 99 99 100 92 76 81 76 74 74 74 77 89 93 97 97 98 98 97 93 81
20 18 17 13 10 7 7 4 17 50 46 25 22 24 60 97 98 99 100 96 94 95 99 100 78 83 82 93 99 99 99 97 99 97 98 96 72 61 71 74 72 76 76 67 68 89 95 82 78 73 73 76 79 78
20 18 18 15 14 8 6 5 11 45 43 26 33 69 69 97 97 98 98 86 96 98 88 77 71 85 83 93 100 99 94 90 95 93 86 78 53 51 60 68 68 64 57 66 80 80 83 72 67 72 71 76 82 86
23 21 19 16 17 12 6 6 6 37 53 32 82 60 77 96 88 84 95 98 93 95 77 60 61 72 84 100 99 100 95 85 78 71 69 52 41 43 49 57 58 52 53 63 68 66 59 61 68 77 76 78 84 92
26 27 19 18 19 19 11 6 5 21 45 39 92 98 94 96 97 99 98 99 85 66 71 72 68 91 88 100 100 95 96 85 76 73 54 45 48 44 39 39 44 52 51 50 54 58 52 53 57 75 81 84 89 95
29 30 22 20 21 23 20 10 5 7 39 50 89 91 81 93 95 98 96 88 81 68 69 78 90 99 99 100 92 86 94 82 75 72 51 45 28 29 37 42 40 39 43 51 56 61 59 55 60 73 90 92 96 98
35 34 29 24 22 25 28 20 8 4 26 51 71 80 89 94 94 93 96 87 85 85 81 96 100 100 99 97 87 78 91 85 70 50 42 30 27 26 25 28 35 42 44 44 55 72 73 70 74 82 93 97 97 96
41 45 36 28 27 30 31 28 18 5 7 36 64 82 87 87 92 95 96 86 91 89 96 100 100 100 99 91 79 75 91 65 49 41 30 35 35 31 28 26 25 26 31 40 46 70 87 88 86 93 96 97 94 98
49 54 48 38 35 37 36 33 23 7 4 20 30 44 74 88 94 94 96 100 100 100 100 100 99 92 95 92 84 74 58 42 49 51 44 39 36 36 36 30 29 26 27 31 50 79 93 95 98 100 96 83 94 99
57 58 57 47 42 44 41 36 25 15 6 6 14 30 44 66 70 76 82 91 96 98 99 99 98 94 90 81 69 52 50 53 55 55 56 53 40 38 39 38 33 28 29 44 75 97 98 99 98 98 98 100 97 94
64 67 63 56 50 46 44 35 28 26 13 6 8 9 14 33 61 72 74 78 79 92 97 98 98 97 92 94 80 76 67 57 56 54 55 48 47 45 42 38 34 26 34 62 94 99 98 99 99 98 98 98 97 47
73 72 68 62 55 49 44 36 35 28 16 10 8 8 7 8 21 45 61 74 84 96 94 95 95 98 96 97 92 85 80 70 62 56 55 58 55 48 44 40 37 33 51 78 99 100 99 97 100 100 99 90 42 36
78 74 72 67 59 52 49 42 35 29 18 11 10 9 8 7 8 13 46 61 73 88 97 87 83 92 97 97 96 88 93 89 74 66 66 64 58 50 46 43 41 40 70 92 96 94 100 99 99 98 87 45 37 36
85 80 75 66 60 56 51 45 37 22 17 12 10 11 10 7 7 15 28 43 65 69 79 92 95 92 95 96 96 97 86 82 80 71 64 62 59 56 54 52 48 51 79 90 94 98 92 99 98 97 62 40 36 38
87 82 73 68 63 55 44 42 32 23 15 13 14 14 10 9 10 14 36 46 61 82 94 98 100 98 95 96 96 95 97 98 96 94 93 72 66 60 56 58 53 68 89 92 97 97 99 97 96 88 50 38 38 42
85 78 73 65 55 42 37 23 20 19 16 16 17 13 11 11 20 40 36 42 67 82 88 89 90 95 96 95 95 96 97 97 97 96 96 92 83 73 66 62 57 79 100 99 97 99 98 98 93 65 45 40 42 47
80 70 63 56 49 44 34 29 24 19 17 20 20 14 15 30 35 35 29 45 89 93 94 91 89 90 91 96 96 94 96 97 97 97 97 96 95 93 76 78 64 92 100 98 97 99 96 96 92 83 67 50 53 58
81 71 62 54 45 41 32 31 26 23 24 26 18 15 17 24 36 41 54 85 95 88 85 84 86 90 94 92 95 96 96 95 96 96 97 97 96 96 92 93 86 80 94 98 98 97 97 96 95 87 72 72 78 89
84 73 65 63 57 49 44 42 35 30 30 29 22 19 21 29 50 71 77 64 50 38 49 57 64 75 86 96 95 96 96 95 96 97 96 97 97 98 95 96 97 99 99 98 97 96 96 95 95 87 84 88 92 94
85 76 74 67 63 59 52 43 38 36 36 29 22 21 20 22 22 22 22 20 20 25 48 56 52 61 76 92 96 95 96 96 96 96 96 96 96 97 96 97 97 96 97 97 97 96 96 95 95 91 92 95 96 95
69 61 58 54 45 43 38 37 39 40 37 36 26 24 26 26 28 32 33 27 22 33 52 61 66 64 71 86 95 96 95 96 96 96 96 96 96 97 98 97 96 96 98 98 96 96 96 96 95 94 96 96 95 92
62 62 63 58 50 44 41 41 38 35 34 32 31 30 31 33 35 38 37 27 32 58 64 68 78 80 83 86 94 96 96 96 96 96 96 96 96 97 97 97 96 96 96 96 96 95 91 93 94 95 95 95 76 59
67 67 68 66 61 48 45 46 43 42 41 39 39 35 34 36 40 43 39 28 54 65 71 83 89 89 89 89 94 96 96 96 96 96 96 97 96 96 96 96 96 96 96 96 95 96 96 96 96 96 88 64 72 60
68 65 63 57 49 50 53 53 51 47 43 43 40 36 36 40 43 45 35 34 69 76 85 93 95 93 90 92 94 96 96 96 96 96 96 96 96 96 96 97 96 96 96 96 96 96 97 97 96 92 81 79 75 58
55 48 49 51 54 59 64 64 60 56 53 49 43 38 36 38 42 39 29 62 80 87 92 95 97 96 94 95 96 97 97 97 96 96 96 96 96 96 97 97 97 97 97 96 96 96 96 96 92 90 93 92 53 24

GFSWCAN_700_rhum_036.txt.gz
RH
14 22 23 18 12 8 5 4 3 3 3 6 19 10 43 76 84 91 98 100 99 96 91 98 100 98 87 86 96 98 100 98 100 98 98 85 81 90 84 86 90 90 92 99 99 98 87 69 66 68 64 68 72 95
15 22 22 18 12 8 5 4 3 3 4 4 11 10 28 70 82 94 100 97 92 88 96 91 86 79 96 98 88 98 100 96 95 99 97 94 88 86 81 88 87 95 88 97 90 77 76 71 72 61 56 64 61 77
16 21 21 20 13 9 5 5 3 5 5 4 8 12 17 62 80 99 100 99 96 89 88 90 86 86 90 85 95 100 97 99 99 98 98 90 98 84 91 82 83 83 88 86 86 78 80 72 70 62 51 60 62 60
17 22 23 22 15 9 6 5 4 8 11 5 7 11 12 52 87 88 97 92 96 100 100 95 88 93 94 100 97 98 97 98 98 99 96 98 83 88 91 90 87 85 84 81 78 77 76 69 70 66 57 54 60 69
18 23 24 22 17 10 6 6 4 11 30 23 6 9 10 41 89 95 100 100 100 100 98 95 89 95 100 99 98 96 98 98 98 99 97 93 94 93 97 85 62 59 70 81 88 81 79 70 69 70 66 67 64 65
19 25 24 21 17 10 6 6 4 16 42 53 14 6 8 38 89 100 100 100 100 89 99 99 100 98 93 92 98 97 98 98 99 98 99 96 97 94 97 98 58 74 76 74 78 81 82 79 74 75 81 75 69 76
20 25 23 22 20 12 6 6 5 23 55 57 16 5 9 48 98 99 99 93 100 100 99 98 99 100 97 97 100 97 98 98 100 100 99 93 95 96 96 79 59 70 83 81 77 77 82 82 80 80 80 70 77 73
22 28 25 23 22 16 7 6 6 38 51 18 7 5 17 64 96 98 99 92 99 98 99 86 98 92 89 96 99 99 98 98 98 99 100 100 98 99 90 65 66 73 71 73 75 75 81 84 81 88 92 82 84 79
22 30 28 26 24 21 9 6 7 44 28 14 9 13 27 67 94 99 98 99 94 99 93 86 81 86 88 96 100 100 100 98 98 99 98 100 99 86 72 72 75 78 72 71 74 83 87 84 95 94 87 90 81 92
23 31 31 26 27 26 13 5 7 44 20 20 25 35 77 83 96 99 96 100 98 99 96 84 74 79 78 89 99 99 100 100 99 98 99 98 76 64 70 74 75 72 76 73 71 80 87 93 84 89 91 92 90 85
24 32 33 28 26 28 20 6 5 35 20 23 33 67 94 97 98 98 99 98 99 96 78 72 73 78 88 89 100 98 95 98 100 99 97 85 55 52 54 69 71 76 80 71 73 89 98 99 95 83 82 80 78 82
24 34 37 34 28 29 27 12 5 21 22 34 53 89 97 96 96 94 98 92 91 84 79 78 86 84 87 89 99 95 100 95 93 80 76 55 40 54 49 62 67 63 57 61 74 71 84 79 77 80 78 77 81 86
25 35 40 38 32 31 31 22 8 11 25 46 87 96 96 93 100 100 99 95 90 82 86 86 98 98 90 98 98 97 95 95 80 76 57 46 51 43 44 48 57 57 49 60 71 71 66 64 67 75 79 82 86 90
27 37 43 44 38 34 33 30 22 5 30 70 94 82 78 89 90 93 94 82 89 86 85 93 100 96 98 100 100 89 94 82 79 70 54 51 31 28 38 42 41 48 53 52 55 59 61 57 60 63 81 87 88 91
28 37 46 48 43 38 37 34 27 12 13 50 77 79 83 91 92 91 87 80 81 84 87 99 100 100 100 99 95 79 81 79 70 55 51 36 30 28 27 28 39 44 46 54 61 64 64 62 60 67 80 91 95 97
32 40 48 51 49 43 40 37 31 21 4 30 50 61 76 84 92 90 85 76 79 85 96 100 99 97 94 90 84 69 70 44 49 44 32 38 37 35 34 30 28 29 39 47 55 70 80 77 71 76 86 93 98 99
34 44 51 56 54 50 44 40 35 25 4 6 15 24 58 82 92 95 93 87 82 86 99 99 97 94 96 95 87 69 53 48 53 55 53 49 48 45 39 38 34 30 28 29 43 64 87 88 84 92 96 96 100 98
37 46 55 61 60 55 50 43 36 26 14 13 5 8 17 42 61 79 88 91 96 96 96 99 92 98 92 92 84 72 61 58 58 57 58 58 53 50 43 38 38 36 30 30 37 66 97 99 97 97 100 99 97 94
44 50 61 66 65 59 52 45 37 33 30 15 7 6 6 6 10 22 45 63 65 74 83 97 99 94 92 97 93 84 81 77 68 67 64 56 53 48 47 44 39 36 31 31 47 76 98 100 100 99 98 98 99 99
65 60 69 72 69 62 55 47 44 40 33 22 14 10 7 7 6 6 8 20 47 72 86 100 86 85 97 100 94 90 86 81 79 75 72 60 54 53 52 49 45 41 36 34 58 99 99 98 99 99 98 97 98 98
91 78 75 75 72 67 61 53 46 40 35 31 18 13 10 9 8 7 7 7 13 34 52 66 81 85 90 88 83 85 95 96 87 83 77 83 65 61 58 57 53 46 42 46 86 100 99 93 98 99 96 97 97 52
96 89 81 79 75 70 63 58 52 46 40 29 21 16 15 14 10 9 11 11 10 10 20 32 54 72 88 97 98 97 85 94 99 96 96 90 79 71 67 59 52 49 49 58 94 100 98 99 99 98 98 97 76 43
96 92 86 85 78 69 55 52 48 42 34 22 21 18 17 15 12 10 9 8 8 17 35 59 70 75 76 82 84 89 92 79 89 96 97 84 70 65 62 59 56 52 54 76 100 100 99 98 98 97 98 90 64 52
95 95 92 83 71 58 54 44 37 30 27 23 19 19 20 16 14 13 11 9 13 17 25 40 53 61 75 79 79 84 84 87 79 90 95 97 95 86 73 65 62 59 57 95 100 98 99 100 100 99 96 87 74 51
95 88 89 76 67 57 53 47 38 34 30 25 21 23 20 18 18 13 10 10 17 32 52 72 83 81 75 75 78 80 82 83 90 85 93 96 97 97 96 93 76 67 63 86 100 98 98 99 100 97 96 90 65 52
92 92 80 64 56 53 46 43 38 36 32 27 26 26 24 21 17 13 13 21 44 39 38 36 42 52 57 63 68 73 86 91 89 93 97 96 96 97 98 98 94 89 79 71 99 98 98 98 97 96 93 76 65 54
92 86 75 68 57 55 51 46 45 41 36 33 32 31 29 18 14 17 24 21 17 17 16 14 13 15 26 41 51 61 73 86 93 94 96 96 96 96 97 97 96 94 96 96 95 98 97 98 97 96 95 92 90 70
87 82 81 80 73 70 66 61 57 52 46 37 34 30 24 17 17 20 21 20 20 19 18 18 20 31 43 53 48 55 68 80 89 94 96 96 96 96 97 97 97 97 95 97 98 97 96 96 96 96 96 96 91 92
81 92 94 82 71 65 60 60 56 44 40 37 37 36 34 25 25 26 26 29 28 28 20 20 42 54 57 55 64 66 70 79 88 94 95 96 96 96 96 97 97 96 97 97 96 98 97 96 96 96 96 96 94 95
93 89 74 61 58 58 60 53 48 45 39 35 32 30 28 28 30 30 34 38 40 32 22 40 52 57 70 77 84 82 78 82 86 92 95 96 96 96 96 95 96 96 96 96 96 96 96 96 95 93 95 95 96 97
64 63 64 66 67 68 67 57 48 45 43 42 38 36 36 34 30 32 37 41 42 25 39 65 72 76 85 87 85 84 86 85 88 91 95 95 95 95 95 96 96 96 96 96 96 97 97 96 95 94 95 96 97 97
68 69 70 73 70 68 62 52 48 47 45 42 41 42 42 38 32 31 34 34 25 42 65 75 83 89 89 89 89 88 89 89 90 93 96 96 96 97 96 96 95 95 96 97 97 96 95 95 96 96 96 96 96 94
73 71 70 64 56 48 47 51 53 51 39 40 42 45 46 42 34 34 31 19 33 65 72 79 86 90 93 95 95 95 93 94 95 96 96 96 95 96 96 96 96 96 96 97 96 96 97 96 96 96 96 96 95 94

GFSWCAN_700_rhum_039.txt.gz
RH
49 14 17 22 25 23 15 8 5 3 3 2 2 4 33 58 70 88 100 99 100 98 100 96 98 97 90 97 91 93 89 90 100 99 99 87 83 82 82 86 94 88 95 98 99 98 92 74 72 79 75 66 74 96
52 17 17 22 23 24 14 8 5 3 5 5 2 2 13 40 65 79 100 97 100 96 100 99 100 95 100 100 98 100 91 98 96 100 99 98 99 98 84 76 84 94 87 98 98 94 87 82 73 71 55 67 58 85
55 20 18 22 22 22 14 8 5 4 9 17 4 2 4 21 61 80 100 99 99 95 100 99 93 84 80 88 96 99 94 100 99 95 99 97 94 95 89 83 89 85 82 86 95 91 85 76 70 68 55 60 59 78
56 22 18 22 24 23 14 8 5 4 16 33 19 4 5 10 60 78 95 98 100 99 99 96 92 90 92 86 94 98 98 98 100 98 100 98 98 85 96 90 83 91 88 85 74 76 82 77 72 68 62 68 63 70
60 24 19 23 24 26 15 8 6 5 26 45 42 10 6 9 55 74 98 96 95 99 97 96 93 95 90 96 99 98 98 99 99 99 98 98 93 98 84 76 69 69 57 84 81 88 83 82 78 73 72 76 73 68
63 24 20 25 26 25 16 8 6 7 39 64 47 12 6 12 62 81 98 100 93 100 98 95 98 93 98 93 100 98 98 98 99 99 98 96 93 95 95 100 68 64 70 75 82 70 80 80 83 78 79 81 71 76
64 25 21 26 27 25 17 8 6 17 56 25 15 5 5 23 74 89 94 93 91 97 100 96 95 100 100 100 100 99 97 98 97 99 98 99 98 96 94 75 65 66 75 84 79 82 81 78 79 82 80 77 71 71
67 26 22 28 28 25 20 8 6 37 29 10 5 5 12 58 84 92 83 84 97 99 98 92 85 89 96 98 100 99 98 98 98 98 99 99 100 98 96 60 72 70 70 70 78 78 75 74 82 84 85 90 86 87
71 28 24 28 29 26 24 9 6 37 16 7 6 17 66 87 100 94 99 93 93 99 98 84 91 96 94 92 99 98 98 98 98 98 100 100 98 96 64 78 77 79 78 73 70 69 70 77 86 85 94 96 97 86
74 28 24 29 30 29 27 14 6 28 11 12 23 38 78 91 97 97 99 98 99 100 99 85 81 83 81 95 98 98 100 99 98 98 99 99 77 62 66 72 74 79 77 78 77 77 79 86 91 91 95 95 96 95
80 37 24 31 30 30 29 22 6 23 10 20 40 62 73 89 100 99 99 97 98 96 97 90 80 85 86 94 99 95 97 95 100 100 98 94 65 58 54 54 61 72 78 81 76 75 86 100 94 94 94 86 90 84
88 57 25 33 34 34 31 29 12 15 15 26 63 86 99 100 94 93 96 95 100 100 100 99 94 92 86 92 93 99 100 97 98 86 78 59 46 59 54 53 60 72 88 80 73 85 87 82 95 97 95 97 80 80
91 62 25 33 39 37 32 31 23 9 22 37 93 99 89 87 98 99 98 100 99 99 100 98 100 100 94 96 98 99 97 99 84 80 65 52 55 34 40 49 64 66 59 55 65 72 77 72 75 75 78 82 82 83
93 53 26 34 43 41 35 33 28 8 32 40 80 84 75 81 82 89 82 82 92 91 93 100 99 97 99 99 99 99 95 79 82 73 62 57 40 29 32 45 46 61 60 52 59 70 75 69 66 69 68 81 83 85
96 47 27 36 47 46 39 35 33 27 8 50 54 61 64 72 83 81 75 71 76 89 93 99 98 98 97 97 98 93 83 67 63 64 60 36 37 35 32 29 35 45 50 59 57 57 62 67 65 69 71 76 86 90
97 64 30 37 48 50 45 39 34 30 10 23 48 60 65 69 74 84 81 76 75 82 85 95 95 92 88 90 94 79 72 58 63 54 39 41 44 43 40 36 33 30 32 45 52 60 67 70 70 69 77 81 88 93
96 79 32 37 50 55 51 44 37 33 10 4 6 16 41 58 80 85 86 80 80 87 96 100 98 88 95 94 85 73 65 57 58 64 59 55 59 58 52 48 38 36 34 30 32 44 58 72 80 79 84 89 91 95
98 89 36 39 54 59 56 50 42 32 22 15 16 6 5 10 58 88 93 92 92 90 95 100 94 97 98 96 85 71 65 68 65 62 66 66 60 55 52 48 45 38 36 36 31 33 50 75 88 87 88 96 98 98
99 91 45 43 59 63 61 53 44 35 32 30 21 7 7 5 7 16 35 57 75 85 92 96 97 98 93 96 98 96 86 73 72 74 74 73 68 65 62 50 46 42 38 35 32 34 46 72 97 94 94 98 97 98
95 94 66 54 68 69 63 54 45 41 38 29 24 14 14 12 7 6 6 6 8 16 41 62 69 76 87 95 98 98 94 94 92 84 78 77 74 72 62 56 52 47 44 41 38 39 63 92 99 99 100 100 100 98
95 94 80 79 88 78 67 60 52 44 40 36 33 31 18 16 14 13 11 8 8 7 6 5 7 18 41 56 68 73 80 86 85 84 85 82 86 87 82 68 65 60 55 51 46 49 77 99 99 99 100 97 98 97
96 96 96 96 95 91 80 67 56 51 48 44 41 26 22 21 21 18 13 10 8 7 8 8 9 11 12 15 24 41 54 66 71 64 66 69 76 89 84 79 76 70 67 60 51 58 92 98 99 100 99 99 98 97
96 96 96 96 96 93 77 72 57 52 49 41 34 27 24 25 25 21 11 8 7 8 8 8 9 11 12 16 24 33 40 46 51 57 61 63 68 82 93 90 87 79 71 65 55 67 95 100 99 98 99 98 98 97
96 96 96 95 94 88 80 65 56 49 43 39 33 30 28 28 28 20 14 9 9 10 10 10 12 15 22 32 37 40 43 45 44 50 65 65 67 72 83 94 79 71 65 58 57 92 100 100 97 98 98 98 97 97
97 96 95 96 95 90 88 65 52 46 39 32 30 29 27 31 26 21 15 10 10 11 12 14 12 12 10 8 11 23 47 60 64 59 59 66 72 75 81 91 96 80 68 63 62 87 100 99 98 99 100 98 97 95
95 95 94 88 79 84 65 52 48 46 43 36 30 33 34 30 29 22 14 13 15 17 15 14 14 12 10 9 7 6 10 30 51 62 65 72 76 79 88 94 93 96 94 74 68 78 95 99 98 97 98 96 95 95
96 94 87 84 81 74 56 51 49 42 39 39 41 40 37 31 22 14 14 16 18 19 19 18 16 14 13 10 12 16 17 25 29 50 60 67 77 82 92 94 93 95 96 97 94 95 94 98 98 97 97 96 96 95
94 84 82 83 85 74 68 66 61 55 52 52 51 43 33 21 15 16 20 22 22 23 24 21 19 18 13 12 20 36 44 43 42 44 51 64 76 81 90 94 96 96 96 96 98 97 97 98 98 97 96 97 96 95
78 79 84 88 94 96 95 89 75 64 56 56 50 45 39 28 25 27 26 25 25 27 28 26 27 20 18 29 38 44 51 56 55 53 58 66 78 87 96 95 96 96 96 96 97 97 97 97 96 97 96 96 96 96
79 80 88 95 95 83 78 70 57 56 54 49 48 42 30 25 27 29 30 29 28 30 30 29 23 23 38 55 61 74 85 72 69 73 70 79 84 92 96 95 96 96 96 96 96 96 96 95 96 96 96 95 94 95
75 85 94 94 79 69 68 65 65 65 62 55 47 36 32 30 26 29 32 30 29 29 27 19 31 53 57 68 72 73 81 89 78 80 80 86 90 95 96 96 96 96 96 96 96 96 96 95 98 97 96 96 95 95
93 93 86 68 65 70 72 72 69 65 55 43 36 33 30 30 27 24 27 29 28 23 16 37 55 65 71 76 78 80 81 85 88 87 91 94 96 97 96 96 96 96 96 96 96 97 97 96 96 96 96 95 96 96
82 74 72 75 75 71 58 47 45 40 31 30 29 30 30 28 26 26 27 28 25 17 31 50 61 69 75 80 85 88 89 90 91 95 98 98 99 99 97 96 96 96 96 97 96 96 96 96 96 96 96 96 96 96

GFSWCAN_700_rhum_042.txt.gz
RH
55 52 52 16 18 23 26 23 18 8 5 3 7 2 3 30 63 74 95 100 93 93 90 96 89 91 99 96 96 90 94 92 99 92 98 94 85 86 80 93 86 95 95 99 97 99 91 90 85 85 76 75 75 91
57 55 55 18 19 23 27 24 18 9 5 4 12 10 2 7 56 75 99 100 99 96 99 99 99 100 100 98 96 96 96 99 94 99 94 96 87 86 78 88 91 91 79 90 79 70 78 94 87 73 70 68 63 84
69 59 57 20 20 22 26 23 18 9 5 7 19 28 8 3 25 72 98 100 100 98 99 99 100 91 85 89 92 100 92 85 90 100 96 98 92 94 84 77 84 88 89 87 90 88 93 89 81 72 62 66 63 81
90 62 60 21 20 22 26 22 17 8 6 12 32 46 31 4 9 65 100 100 100 95 96 96 97 89 85 82 82 81 95 99 97 99 99 97 97 95 88 90 89 88 92 85 78 69 88 82 81 73 69 74 71 70
86 64 62 21 21 22 25 22 16 7 8 40 61 62 44 6 8 63 100 100 98 90 92 96 94 91 89 90 93 97 98 98 98 100 100 100 94 98 84 82 76 73 75 81 77 87 87 79 82 76 77 81 76 70
83 67 63 21 22 24 26 24 14 7 32 42 14 22 24 6 13 67 98 100 98 97 97 95 97 92 94 98 89 91 97 98 98 99 100 99 86 98 95 92 68 64 67 72 74 72 70 72 78 81 79 81 77 75
73 69 64 21 23 26 26 24 12 10 45 12 7 8 6 9 35 80 97 89 93 86 96 93 98 96 99 100 98 92 98 98 99 100 100 98 92 93 91 87 68 74 71 75 87 84 76 80 79 79 82 79 78 72
72 74 66 21 26 28 26 23 11 25 17 7 6 6 11 54 98 99 90 86 90 91 87 94 89 83 97 97 96 98 98 97 98 98 97 94 96 98 97 64 74 76 71 69 71 80 79 79 77 77 84 79 87 91
93 80 67 22 28 29 25 24 11 27 9 9 15 38 90 100 100 97 90 86 88 98 100 90 93 100 98 96 96 96 98 98 98 98 98 99 99 85 75 84 77 79 84 87 84 77 70 71 75 77 86 86 95 98
95 84 66 23 29 32 26 26 14 22 11 22 60 87 100 100 99 100 100 95 91 100 99 97 97 94 86 93 97 94 99 98 98 99 98 99 89 84 82 77 77 84 83 84 84 82 80 80 89 92 98 100 96 98
94 91 77 24 30 32 27 28 18 18 15 26 52 85 98 100 100 100 97 94 94 97 99 98 96 98 98 92 96 91 96 94 97 98 98 97 91 71 74 67 64 61 71 78 88 86 83 91 97 98 96 96 99 97
95 95 83 28 30 33 28 30 24 16 15 30 56 83 96 100 96 89 100 94 99 99 100 99 100 93 94 96 92 94 100 99 97 94 94 70 79 75 45 55 63 68 81 79 94 94 97 100 100 99 99 99 95 86
95 96 89 34 31 35 30 31 29 14 23 40 80 96 98 90 99 98 100 99 100 100 100 100 100 99 97 96 96 98 98 100 99 94 78 79 65 39 34 57 64 84 98 98 96 94 96 98 92 86 90 90 98 88
95 95 94 39 31 38 35 32 33 19 34 91 100 96 85 89 81 86 81 91 99 88 99 100 100 98 99 97 96 100 100 94 85 80 76 59 37 38 34 42 52 68 68 73 68 84 83 81 72 70 73 80 85 86
95 95 95 35 30 41 41 36 37 34 16 56 74 68 80 76 78 77 80 75 73 82 85 87 93 91 88 89 96 90 89 80 75 81 75 44 44 45 43 39 33 41 55 66 63 61 68 76 78 72 72 76 77 82
95 95 94 42 30 41 46 43 41 39 33 17 48 58 58 65 65 68 69 69 72 82 91 91 90 89 88 81 86 76 77 62 78 72 55 46 57 60 58 53 45 38 33 36 54 66 69 72 75 75 72 76 81 84
96 95 95 65 31 41 50 50 46 42 38 8 6 18 38 52 66 72 76 79 82 88 99 100 92 92 98 95 85 73 62 58 68 70 66 63 62 62 61 56 51 48 40 38 34 33 46 67 81 82 78 80 84 88
96 95 95 89 40 40 52 57 53 46 33 23 12 15 13 10 25 44 68 83 86 89 98 100 95 95 96 100 89 72 68 70 66 71 71 67 65 66 64 63 59 52 46 41 38 36 33 38 64 89 91 90 95 94
96 95 95 95 71 39 54 62 58 48 38 32 29 27 8 5 7 10 32 60 80 90 96 98 97 96 86 86 85 88 90 85 78 85 87 83 82 77 67 65 66 60 52 47 43 39 36 38 58 90 99 99 99 98
96 95 95 95 80 65 83 78 64 48 40 36 35 34 22 11 12 8 6 6 6 10 26 47 53 68 80 84 84 84 85 85 86 85 86 96 93 88 84 78 65 68 58 55 49 46 44 45 66 100 100 100 100 99
95 96 95 95 93 89 91 90 69 52 45 43 37 30 27 26 19 16 15 14 14 11 8 7 6 6 6 7 8 9 17 28 49 60 68 75 76 77 85 81 76 69 71 65 61 57 53 53 78 97 96 97 96 98
95 96 96 96 95 92 91 89 90 87 68 48 44 43 40 36 23 20 22 23 21 13 8 7 6 6 5 6 6 6 6 7 7 7 8 10 20 40 58 62 65 77 80 83 77 69 65 61 65 87 93 96 99 98
96 96 96 96 96 95 90 82 91 94 95 82 59 47 43 41 32 27 28 26 19 11 9 8 7 7 7 7 7 7 7 7 8 8 9 9 8 10 12 22 40 52 62 79 82 78 79 73 66 81 94 98 98 98
96 96 96 96 95 94 87 84 80 91 95 91 55 45 30 28 31 30 30 28 21 12 9 9 9 8 9 9 9 9 9 8 7 6 6 8 13 16 16 16 30 46 60 66 77 86 84 76 67 88 99 98 99 98
98 95 95 96 93 94 90 81 81 94 94 80 44 41 31 32 34 34 33 27 13 8 8 9 11 11 11 11 11 11 10 10 9 7 6 5 8 15 29 36 35 53 63 71 82 93 86 73 74 93 100 100 94 98
94 95 93 98 94 88 88 85 89 95 95 70 40 34 33 34 36 35 31 22 12 10 11 13 14 15 16 14 13 12 12 11 8 6 6 5 5 9 23 44 57 57 70 78 93 98 96 88 94 100 100 98 98 97
95 92 89 87 85 84 85 92 95 94 48 41 39 36 36 41 39 27 12 11 12 15 18 19 19 20 20 16 16 15 12 9 7 7 8 14 17 12 22 41 57 65 74 77 98 98 96 96 100 100 99 99 97 96
91 87 79 91 94 93 94 95 93 75 65 57 50 48 49 39 22 26 34 28 23 21 21 22 23 23 21 17 16 12 12 21 33 35 35 36 40 31 32 47 58 66 75 80 94 96 94 96 96 98 98 97 96 96
83 77 80 91 96 96 94 94 90 85 85 82 65 56 54 52 49 42 31 25 23 23 24 25 24 22 19 16 14 23 38 48 53 51 54 59 61 64 48 50 62 73 75 87 98 96 96 96 97 96 96 96 97 96
76 78 89 95 94 93 93 93 91 89 78 74 64 57 55 52 46 34 24 23 24 26 26 25 23 20 15 14 24 40 60 67 68 62 56 62 68 74 70 70 75 84 93 99 99 96 96 95 95 95 95 95 96 96
78 91 95 95 91 91 96 96 92 75 68 65 64 63 60 46 27 22 22 26 27 26 25 25 23 15 15 27 41 47 54 68 73 74 70 67 70 76 76 81 87 96 99 98 97 96 95 95 96 96 96 97 99 98
93 94 92 90 89 95 95 88 77 70 70 70 66 55 36 24 18 13 15 22 25 25 25 22 16 18 27 44 56 60 60 64 70 75 79 79 79 78 82 88 96 98 98 98 95 96 96 96 96 96 96 96 97 96
93 87 92 96 96 93 75 72 72 67 46 34 24 22 19 17 16 15 17 20 22 24 20 17 19 27 45 56 61 67 72 73 77 83 88 89 90 89 90 96 96 98 97 96 96 96 96 96 96 96 96 96 96 96

GFSWCAN_700_rhum_045.txt.gz
RH
91 98 94 58 56 24 19 22 25 22 18 12 5 5 6 2 30 74 97 100 99 95 97 100 99 98 98 99 100 88 92 94 99 100 98 95 92 84 84 86 96 86 88 98 99 98 88 89 85 93 78 69 75 77
97 96 95 86 72 29 19 21 22 22 18 9 5 6 18 8 6 70 100 100 93 99 97 90 94 100 99 100 100 93 96 98 100 98 92 85 86 88 84 82 97 94 78 87 83 73 83 85 87 80 73 74 67 80
98 95 94 92 62 29 19 22 21 20 17 8 7 16 31 24 5 52 100 99 96 98 99 96 97 100 100 100 98 95 98 99 93 95 97 95 87 94 94 81 93 98 90 96 86 83 86 82 85 79 74 80 79 71
98 96 95 92 61 26 19 21 21 20 14 8 30 50 55 43 9 37 100 98 97 94 98 97 98 98 95 91 88 90 94 91 100 100 99 99 100 96 95 91 95 97 96 96 87 79 78 84 87 81 74 77 81 73
97 95 95 93 59 22 20 21 20 20 10 25 44 19 16 40 10 35 100 97 98 92 92 100 96 93 94 95 94 93 94 99 100 98 99 99 100 99 89 95 83 77 87 92 90 82 74 79 81 82 80 78 81 83
94 96 95 92 56 21 22 21 21 18 14 28 10 8 12 23 8 55 100 98 94 96 100 93 98 96 99 100 100 99 97 96 100 100 100 99 100 96 97 100 70 79 79 79 82 80 73 73 72 73 78 78 78 78
96 96 95 89 50 21 22 20 23 14 19 7 6 6 7 8 21 80 99 86 92 97 97 92 96 97 100 100 100 97 97 98 98 97 100 100 98 98 93 86 68 86 99 95 87 81 80 82 83 82 78 80 79 77
96 96 93 90 42 22 21 22 25 13 10 9 7 8 11 33 79 74 74 81 94 96 88 96 95 95 99 98 97 96 98 97 96 99 100 98 99 91 97 93 99 98 76 75 76 76 77 85 86 84 78 82 81 85
96 95 93 91 34 22 21 23 26 13 12 24 45 80 98 100 100 85 78 86 94 98 97 99 97 100 100 91 95 96 95 99 100 98 99 99 99 98 96 90 95 81 86 95 96 90 86 81 74 76 79 84 88 89
96 95 94 86 34 24 22 24 28 13 19 62 95 100 100 100 86 93 99 91 97 100 100 96 98 99 92 94 97 100 100 100 99 98 98 98 96 99 98 94 85 85 93 100 97 92 92 92 85 86 92 91 91 98
96 95 95 92 52 24 24 26 29 13 20 62 93 98 98 100 99 97 99 100 100 100 98 93 88 93 98 94 97 96 97 91 96 98 98 98 98 97 68 54 56 63 64 70 84 93 95 92 94 98 98 100 98 99
96 95 95 93 64 25 25 27 30 14 16 37 78 94 96 97 95 100 100 98 100 94 98 100 98 100 98 94 96 95 100 99 97 97 97 94 97 68 43 46 82 75 80 79 74 93 100 99 98 98 97 96 98 98
96 96 96 95 74 26 28 29 31 17 20 37 74 97 96 96 100 100 100 99 91 95 100 100 99 100 100 100 94 93 99 100 100 100 97 97 58 48 45 62 66 93 98 99 98 97 99 99 99 99 98 97 99 98
96 96 96 96 88 28 29 31 33 27 30 82 97 97 91 93 81 84 82 83 86 83 98 100 99 99 99 98 95 96 99 98 95 96 94 82 49 48 44 41 57 85 87 88 94 97 91 97 98 95 95 87 86 90
95 95 96 96 93 31 30 34 34 35 21 86 90 86 91 79 77 67 73 79 95 95 100 100 97 91 94 92 90 93 93 90 84 97 91 58 61 69 67 60 49 42 58 81 76 75 86 92 92 92 84 78 87 90
95 96 96 96 94 34 32 38 38 39 35 32 48 61 65 70 73 69 64 71 78 84 100 100 100 96 91 84 88 80 86 60 76 82 68 54 62 64 62 61 57 52 48 41 45 65 76 76 77 85 85 82 84 89
96 96 96 95 95 71 35 44 48 46 44 34 21 17 32 48 57 65 70 75 87 90 100 100 96 100 100 99 86 73 61 58 76 77 76 74 69 66 62 58 55 51 48 46 44 41 38 46 65 76 82 84 85 90
96 96 96 95 96 87 60 56 54 52 46 41 31 12 10 15 14 33 60 76 94 100 100 100 94 99 100 98 94 65 69 75 85 94 89 85 83 78 76 74 69 65 63 57 48 44 41 38 38 52 74 88 89 95
95 94 95 96 96 95 93 82 77 61 56 50 42 31 22 20 9 7 17 49 80 95 100 99 96 91 78 71 73 77 75 76 84 95 98 96 91 85 84 87 80 70 67 68 59 52 47 43 42 46 66 89 97 97
94 94 95 96 95 96 95 86 88 78 59 45 42 37 35 32 15 11 10 9 20 48 75 75 54 71 79 79 76 76 73 71 72 73 73 76 82 89 92 93 91 83 75 72 67 68 60 50 50 49 57 97 100 93
88 95 95 94 96 96 93 94 94 93 87 73 51 42 38 30 26 16 16 15 14 14 15 15 12 8 7 6 6 6 6 6 6 5 4 4 7 14 35 55 67 74 77 83 81 71 69 71 60 58 62 84 100 95
93 95 94 96 96 96 94 90 93 92 90 82 72 62 44 42 40 38 32 27 23 22 24 23 14 8 6 6 6 6 6 6 6 6 5 5 5 4 4 4 4 10 40 56 68 70 70 72 77 69 64 84 97 91
90 91 95 96 97 95 92 86 89 92 97 92 88 94 87 77 56 46 40 34 26 26 26 24 18 10 8 7 6 6 6 7 7 7 7 7 7 7 6 6 5 5 5 9 22 43 56 69 86 84 74 73 94 93
96 96 95 96 93 93 88 89 85 85 88 87 91 94 94 87 54 34 30 29 30 31 29 24 17 11 8 7 7 7 8 8 9 9 9 9 8 9 8 7 6 6 7 7 11 26 39 55 69 86 89 83 84 100
97 93 91 94 91 88 86 82 80 84 85 93 96 95 81 55 36 35 35 34 34 31 23 13 8 8 8 8 10 10 12 12 12 11 11 10 9 8 7 7 6 5 8 12 18 25 46 62 74 80 89 86 86 100
94 92 90 92 92 87 90 86 83 82 83 93 96 92 78 57 43 40 40 38 37 25 9 8 9 10 12 13 13 16 15 14 13 12 10 7 6 5 4 4 4 6 10 14 23 34 44 60 90 100 98 92 92 100
93 80 80 81 81 81 84 83 81 81 88 95 91 82 53 39 42 42 40 22 18 23 19 15 14 13 13 15 17 18 17 15 12 10 9 11 18 22 18 11 7 10 7 16 34 50 55 68 83 98 99 99 96 98
82 76 78 77 78 86 92 89 88 93 98 88 61 60 86 54 46 39 32 39 46 40 22 16 15 14 17 20 19 17 16 14 12 13 20 30 42 47 48 41 36 30 22 19 44 59 67 75 85 97 97 98 97 96
83 78 78 73 75 82 91 94 95 94 89 91 92 94 90 78 57 56 56 54 48 35 23 18 16 17 22 21 19 17 15 15 17 24 31 36 42 55 65 60 60 57 44 36 47 62 74 81 93 100 97 97 97 96
79 78 77 74 75 82 91 95 92 96 96 96 94 87 82 82 71 59 57 54 45 30 22 19 18 21 21 19 18 16 18 26 37 45 46 47 49 58 65 67 64 62 56 52 60 74 83 93 99 98 95 95 96 95
84 79 75 78 85 80 88 95 95 96 96 93 90 74 64 60 60 60 53 39 26 21 20 18 19 21 20 18 16 14 22 41 51 58 60 59 60 65 72 72 70 68 66 66 74 89 99 98 96 98 97 96 96 96
75 72 77 87 89 94 96 96 98 95 88 86 74 67 62 58 37 20 13 14 15 14 16 18 21 21 18 17 17 28 42 49 51 57 64 70 74 77 81 83 80 76 76 82 90 98 97 97 98 96 96 96 96 97
81 82 87 95 95 96 95 98 94 88 72 65 62 48 25 19 14 10 10 9 11 14 20 22 20 19 18 19 33 47 54 59 62 64 67 72 78 83 86 90 89 88 91 96 98 97 96 96 96 96 96 96 96 96

GFSWCAN_700_rhum_048.txt.gz
RH
97 97 92 95 99 95 94 54 18 19 23 25 24 16 6 5 4 34 92 96 100 90 100 99 94 89 94 95 96 99 96 98 100 100 98 95 96 96 95 97 95 95 98 99 100 94 84 88 84 94 85 73 80 76
97 97 91 96 99 95 95 51 19 18 20 22 22 11 7 11 14 6 84 97 100 93 98 100 96 94 94 98 94 98 100 100 96 99 97 95 88 90 90 90 98 96 82 80 74 71 80 80 90 91 85 73 81 78
96 94 94 92 94 96 95 44 19 18 19 21 17 10 28 38 33 10 67 96 98 91 100 95 95 100 93 94 98 97 98 100 99 94 96 95 89 92 93 85 96 97 100 96 95 98 91 81 82 92 88 73 81 80
96 93 94 89 96 96 94 33 19 18 20 21 13 36 40 36 46 16 76 100 99 97 98 99 93 97 90 93 98 100 100 100 98 99 94 94 95 98 93 95 95 98 100 90 87 84 86 76 87 91 88 82 79 84
92 88 90 91 97 96 88 26 18 19 22 15 24 12 11 15 40 18 92 98 98 98 100 92 92 96 98 98 97 94 96 99 99 95 99 95 96 98 95 97 83 76 84 94 87 99 96 84 74 78 77 80 82 81
86 80 94 98 96 96 68 21 18 21 19 19 9 6 10 11 28 22 93 97 98 95 98 98 98 96 96 98 100 99 100 100 100 99 99 98 98 99 99 96 69 76 82 78 75 74 72 68 70 76 75 75 79 79
83 87 97 96 96 95 44 20 19 23 16 12 8 4 12 12 12 72 97 91 98 94 100 97 98 94 100 99 99 100 100 99 99 99 100 100 99 99 96 97 84 98 95 98 94 81 78 79 82 84 85 79 79 80
88 94 96 96 96 93 26 19 22 20 17 16 8 5 6 9 65 97 92 87 96 100 96 99 100 100 100 100 99 97 98 98 98 98 98 98 99 100 99 98 99 100 98 91 77 94 89 79 74 86 86 83 80 84
97 98 93 94 96 79 22 20 24 18 24 40 22 24 46 77 92 97 96 100 100 100 98 97 100 100 96 97 95 98 97 98 98 98 98 99 98 98 98 89 98 98 98 95 99 97 94 90 85 78 75 76 82 90
94 92 93 96 95 61 22 21 25 17 43 77 87 97 99 100 96 92 100 100 100 100 99 100 98 98 97 98 100 100 100 98 98 98 98 98 97 97 98 99 92 90 81 88 97 100 98 98 93 86 80 78 88 99
94 96 95 96 95 58 24 22 26 17 42 81 91 96 99 97 99 99 99 100 100 100 99 96 96 98 88 92 96 100 99 95 98 98 98 98 98 98 89 64 54 52 61 67 73 84 96 99 93 96 94 96 96 99
94 93 95 97 95 70 26 24 26 18 28 73 82 96 98 97 96 99 96 96 99 92 94 99 98 100 100 99 100 100 99 99 96 98 97 97 89 56 47 54 72 93 84 82 81 72 75 98 91 92 96 99 100 99
90 95 95 97 96 87 28 25 27 23 22 43 84 93 96 93 98 100 95 99 93 85 97 100 100 100 100 100 100 100 100 98 100 100 97 96 71 53 49 58 69 87 98 100 98 90 83 93 98 100 99 98 98 98
93 95 96 96 96 94 37 26 26 27 33 49 77 86 81 97 97 100 98 92 83 87 94 100 100 100 99 99 100 100 97 100 99 99 89 74 55 63 61 50 50 75 95 98 99 99 98 99 99 99 99 98 98 95
94 95 96 95 96 96 58 28 27 30 39 66 87 89 86 81 83 80 91 90 100 100 100 100 100 100 100 99 98 100 100 100 97 96 80 57 57 69 68 64 59 52 48 67 88 95 98 95 94 93 94 94 93 94
95 96 96 95 95 96 89 30 32 31 31 52 67 69 71 76 77 76 74 85 100 100 100 99 100 100 99 94 100 99 97 76 66 73 79 57 60 67 66 64 59 54 51 48 45 48 71 90 89 90 94 99 98 95
95 96 96 95 95 96 93 49 36 38 39 39 33 27 26 38 58 60 74 77 94 100 100 100 100 100 100 100 100 91 76 55 56 81 84 73 76 77 72 68 66 62 58 55 51 47 44 41 43 70 88 90 91 90
96 96 96 96 96 96 96 93 83 65 49 46 41 38 26 9 11 21 32 60 84 97 100 99 97 96 100 98 100 66 66 73 74 83 85 90 90 85 82 80 80 77 71 66 65 62 54 50 44 40 41 66 89 91
96 96 96 96 96 96 96 94 93 92 78 70 54 50 42 30 19 18 14 30 70 91 100 100 98 89 80 77 75 80 80 77 80 84 88 88 83 84 82 83 85 81 75 76 74 68 68 66 61 50 45 45 64 90
95 95 96 96 95 95 96 95 95 95 90 78 90 48 43 38 32 27 11 10 28 71 92 93 53 54 69 73 72 72 71 71 73 73 73 70 66 65 60 54 52 55 62 70 78 79 72 68 70 68 57 53 63 92
94 94 94 96 96 96 95 94 94 93 96 94 88 94 76 45 39 34 23 13 14 13 12 11 12 12 12 11 9 8 7 6 6 6 5 5 4 4 4 4 3 3 3 4 15 43 66 71 67 73 72 68 70 79
100 96 96 96 94 93 91 88 88 92 94 92 91 93 90 71 44 37 32 31 33 32 28 22 21 24 24 19 10 7 6 6 5 5 5 5 5 5 5 5 4 4 4 4 4 4 4 12 59 66 72 71 74 75
100 97 96 94 91 87 82 81 85 84 91 89 84 92 92 89 92 84 70 57 46 38 34 26 26 28 28 25 14 9 7 7 6 6 6 6 6 7 7 7 7 6 6 6 5 5 5 5 10 34 58 70 83 79
99 99 96 94 87 83 78 76 78 80 82 85 86 91 89 87 88 91 86 72 54 30 30 31 31 30 27 24 16 10 7 6 7 7 8 8 7 8 8 8 8 8 7 7 7 6 6 6 7 12 37 56 72 91
98 93 91 85 82 76 76 74 72 76 78 80 84 90 93 90 85 76 71 62 47 38 35 32 27 21 16 9 7 6 6 7 8 8 9 8 8 9 8 7 6 5 5 4 4 5 6 6 10 11 16 51 92 92
96 94 91 79 72 70 71 68 70 76 78 87 89 90 92 95 90 80 71 62 58 38 30 20 10 8 8 8 9 8 8 8 9 9 10 11 10 9 8 6 7 10 15 11 9 5 5 5 8 23 25 38 81 100
96 86 74 67 67 70 67 66 73 82 85 84 82 84 96 94 77 61 51 43 32 22 26 38 38 22 12 9 9 8 9 10 11 11 12 12 10 9 10 12 16 24 26 25 26 26 15 7 8 25 40 57 65 95
91 79 70 71 72 68 70 70 80 86 92 93 93 90 76 69 59 56 56 39 37 46 49 50 43 25 13 11 10 10 11 12 12 13 13 12 12 18 24 30 35 38 38 41 44 48 44 22 15 35 51 65 79 90
88 63 69 78 77 78 77 73 72 76 86 95 92 90 79 78 91 92 86 80 70 65 56 50 44 22 14 11 10 11 12 13 14 14 12 12 18 32 38 44 48 49 48 48 50 55 56 41 37 52 67 78 83 93
78 63 74 81 78 74 73 72 69 74 89 91 92 93 92 88 91 87 76 78 69 58 56 54 36 18 13 11 11 13 15 15 15 15 15 21 31 40 46 50 55 59 59 59 62 68 70 60 56 63 73 81 91 99
87 89 86 85 82 75 72 74 80 89 87 89 95 94 88 83 77 71 61 60 61 60 52 32 16 12 12 12 14 16 17 17 17 20 31 39 46 50 54 58 64 71 75 77 76 75 77 74 73 76 85 97 100 99
71 83 89 88 81 78 88 94 96 94 90 93 93 88 81 79 66 55 37 37 34 22 12 10 10 11 14 17 18 18 16 18 31 43 49 53 56 60 62 65 71 78 84 85 80 80 81 82 88 98 100 99 97 96
94 93 86 84 89 85 86 94 95 93 86 84 79 78 71 61 53 41 20 10 7 6 7 8 12 17 19 20 19 16 20 35 45 50 53 58 60 64 70 76 80 85 89 90 88 91 96 100 99 98 97 96 96 97

GFSWCAN_700_rhum_051.txt.gz
RH
92 93 95 95 93 90 91 96 97 91 31 18 20 27 27 25 15 7 6 73 98 88 88 85 97 85 85 95 90 87 94 94 99 98 99 96 98 98 99 95 86 94 90 89 88 96 83 69 87 93 91 86 90 82
97 98 96 96 92 91 90 95 98 94 46 19 19 24 25 22 12 10 13 32 100 100 87 92 95 88 84 93 95 96 92 98 95 95 92 100 96 98 96 98 96 93 83 88 84 74 78 96 96 98 96 84 86 90
95 96 92 92 95 90 86 96 98 95 33 18 18 22 21 16 24 30 26 16 98 99 98 100 94 97 91 93 98 94 95 90 98 99 100 98 91 92 91 95 93 91 98 93 95 97 90 93 88 87 97 96 85 88
89 85 90 91 94 90 93 97 98 84 31 19 19 20 17 14 23 45 45 24 100 97 97 98 93 96 97 90 92 91 88 95 99 98 99 94 94 91 90 90 97 95 97 90 92 82 88 91 86 98 98 91 87 88
74 86 86 88 85 89 96 97 98 77 32 19 20 16 10 12 42 30 43 38 96 97 99 96 92 90 97 92 90 98 98 100 100 99 100 97 95 94 86 88 91 89 95 98 95 97 85 84 82 77 73 70 72 83
81 85 83 84 89 95 96 98 96 56 19 21 16 10 6 17 92 38 27 75 96 98 98 99 95 98 95 97 100 98 99 99 99 100 99 98 88 97 98 95 99 98 81 83 81 79 74 71 72 73 73 76 77 81
85 83 86 90 92 93 96 97 89 20 22 18 13 5 7 11 24 36 67 96 97 98 97 97 100 99 100 100 100 99 99 99 100 100 100 97 97 99 98 92 94 98 100 98 96 93 77 75 75 79 78 87 85 81
81 84 91 97 94 93 96 95 39 20 20 28 7 4 6 9 26 78 95 97 98 98 100 97 100 100 96 100 100 98 100 98 98 98 99 95 98 97 98 89 96 85 81 98 98 81 84 82 82 78 74 73 88 84
82 86 94 96 92 95 97 92 21 23 22 29 8 6 13 57 98 93 96 97 97 100 96 100 98 98 94 100 98 98 98 98 98 97 97 98 99 96 81 82 90 97 91 92 93 99 89 76 84 86 82 74 81 81
84 90 90 89 92 96 96 64 20 23 44 50 51 72 100 98 97 99 100 98 99 100 100 100 100 98 94 100 100 99 99 98 99 98 98 98 98 95 98 99 97 96 90 93 92 92 99 100 92 91 89 85 82 83
88 90 91 94 94 96 95 41 21 23 66 88 100 94 95 96 98 97 94 96 95 100 96 87 96 99 90 95 99 96 98 94 97 98 98 98 99 98 97 91 72 60 58 70 72 77 88 90 91 96 96 96 95 97
86 90 93 99 95 96 95 31 22 23 58 94 95 98 94 98 98 94 98 89 98 93 97 100 100 98 100 100 98 99 99 96 98 100 97 98 93 71 54 57 76 78 97 93 88 80 69 70 83 94 95 94 98 99
89 90 92 97 95 97 95 30 23 26 36 90 98 99 96 95 99 87 100 92 100 95 100 100 100 100 100 100 99 100 100 96 100 99 97 94 78 63 62 62 69 89 98 99 100 96 84 81 78 94 94 97 96 100
89 90 96 96 96 96 95 31 24 27 30 63 94 99 86 93 84 83 83 81 90 91 100 98 99 99 99 99 97 100 98 98 100 100 88 93 82 82 92 89 88 69 74 98 99 100 99 100 100 99 100 100 99 98
92 91 95 96 95 96 96 46 25 28 42 70 93 96 93 80 84 93 100 99 93 100 100 99 99 97 98 97 100 100 100 99 100 92 84 81 61 76 77 75 75 66 67 70 82 82 91 98 97 98 98 99 98 97
95 94 95 96 95 96 96 75 27 27 41 72 81 85 84 88 85 86 90 97 98 100 100 98 95 98 97 99 99 98 98 88 69 58 89 82 62 76 76 72 70 66 63 60 55 50 53 60 70 95 96 98 99 99
95 95 96 96 96 95 96 94 44 29 28 37 31 32 48 59 67 77 80 88 96 100 100 96 93 99 99 100 100 100 85 62 60 54 79 85 73 77 82 79 78 76 73 71 68 66 59 52 48 47 50 58 70 87
95 96 96 95 95 96 96 96 93 56 36 39 40 33 25 24 13 17 40 63 91 100 100 97 93 94 100 99 94 62 63 69 70 67 84 89 85 85 89 89 84 79 75 73 71 70 69 67 63 57 51 46 50 73
95 96 96 95 95 95 96 96 96 95 91 71 50 47 46 42 34 19 16 20 35 93 100 100 97 88 77 73 74 74 74 70 66 66 70 74 78 79 76 72 68 65 62 61 63 66 66 68 69 67 66 62 51 49
96 96 96 95 95 96 96 96 95 95 95 94 94 92 74 49 44 34 26 21 15 37 92 92 60 59 65 62 64 73 78 76 60 47 40 33 30 26 21 15 11 9 8 6 6 6 10 25 51 67 70 65 68 64
97 97 96 97 95 95 95 95 95 95 95 96 94 94 95 92 58 46 40 31 16 9 9 9 14 27 35 43 30 17 13 12 10 8 7 6 6 5 4 4 3 3 2 2 2 2 2 2 3 4 28 62 71 68
100 98 99 97 95 94 92 91 93 94 95 95 95 94 95 95 94 62 40 32 30 26 21 24 22 17 17 20 23 24 22 13 7 7 6 6 5 4 4 4 3 3 3 3 2 2 2 3 3 3 3 4 18 57
97 93 96 94 95 86 81 75 79 83 89 88 90 96 94 91 92 92 94 81 59 45 58 49 39 35 25 24 26 27 27 20 11 8 6 5 5 5 5 4 4 4 4 5 5 4 4 4 4 4 4 4 5 29
95 91 92 90 80 76 70 69 69 73 74 78 82 88 90 90 87 88 82 68 65 84 86 63 32 30 29 31 32 30 28 21 10 6 6 6 6 5 6 6 6 7 6 6 5 5 4 4 5 5 6 5 6 6
97 84 80 80 75 64 64 60 60 63 68 75 84 86 85 87 91 87 73 58 65 67 57 44 33 33 33 27 20 17 9 7 7 7 7 6 6 7 7 8 9 8 7 6 6 6 6 5 5 4 4 5 6 7
92 87 82 75 63 52 62 65 64 64 69 77 86 84 83 89 90 79 64 66 69 62 59 51 36 28 15 9 9 10 11 9 8 7 8 8 8 9 9 9 9 9 7 7 8 9 12 14 12 10 7 5 5 8
87 77 70 69 52 53 66 67 64 66 74 81 80 84 88 87 78 68 65 57 42 29 21 25 38 46 45 37 23 12 10 9 8 8 7 8 9 10 10 10 9 9 9 10 13 15 18 27 34 32 27 17 8 10
71 46 42 54 64 63 70 73 71 67 68 70 79 90 94 84 67 61 58 52 44 39 46 51 55 57 51 44 28 16 12 11 10 9 10 11 12 12 11 10 9 10 13 18 23 28 32 37 43 44 44 40 20 19
26 31 46 57 58 72 75 76 74 72 69 70 70 70 82 88 91 87 86 83 84 86 86 84 78 63 55 48 28 15 12 10 9 9 11 13 14 14 12 13 14 20 28 33 37 40 45 50 53 53 54 52 31 28
45 60 64 49 66 66 70 71 62 69 76 75 72 72 77 81 90 91 87 88 88 84 71 66 60 57 58 42 20 13 12 11 12 13 15 14 12 12 18 26 32 38 43 44 46 51 59 63 64 65 64 59 41 46
60 61 66 70 70 77 89 80 70 74 82 81 76 75 77 78 72 79 80 81 82 74 65 60 61 58 44 23 14 12 13 14 16 16 14 13 17 27 38 44 47 49 52 55 59 62 70 74 75 72 70 58 60 76
70 68 54 52 51 54 61 72 83 86 86 84 82 85 84 80 69 63 61 66 62 49 33 24 18 13 10 10 11 14 17 18 16 13 15 24 36 46 51 53 56 58 61 67 71 76 79 77 76 72 72 78 93 100
61 84 80 86 81 92 88 90 92 92 84 81 81 82 77 72 64 57 58 58 52 33 12 7 7 7 9 14 18 19 17 14 17 25 34 42 46 50 53 57 63 71 77 81 84 88 85 79 81 84 91 99 98 98

GFSWCAN_700_rhum_054.txt.gz
RH
81 84 83 90 98 98 92 95 91 89 94 96 66 58 64 47 26 27 24 17 9 13 62 63 74 72 91 93 90 82 79 80 97 99 98 98 96 95 96 90 88 85 85 89 87 87 86 78 91 99 99 100 86 95
96 97 87 90 97 95 90 95 92 91 94 96 92 76 19 25 48 28 26 18 13 11 40 90 81 78 89 94 89 90 92 97 95 92 93 95 96 97 98 94 98 94 86 82 80 72 92 98 99 100 97 98 92 93
99 97 92 95 92 84 84 92 92 94 95 96 82 53 54 22 22 22 15 19 24 18 37 98 94 100 94 91 97 92 92 89 89 94 92 97 94 94 94 94 95 90 91 94 95 92 93 99 100 94 90 92 92 94
99 97 93 98 83 80 83 90 89 96 95 93 87 66 20 20 23 44 27 31 38 23 88 93 94 98 98 95 94 98 93 95 93 95 94 96 90 88 85 84 89 94 99 98 88 90 97 95 100 98 93 91 86 86
93 98 97 86 80 78 88 82 85 96 95 93 58 19 20 19 19 86 87 28 40 43 97 96 98 96 98 90 87 89 89 96 98 98 99 99 100 99 90 90 82 76 84 98 98 94 91 92 94 91 79 71 68 71
98 97 97 81 80 83 82 86 92 95 94 57 19 21 20 9 66 84 47 29 28 65 97 98 98 94 94 98 95 96 100 99 99 98 98 98 96 99 98 92 80 96 88 90 86 84 80 76 78 74 72 73 77 81
100 98 92 83 82 87 82 90 90 95 65 19 21 25 6 18 35 40 37 24 41 94 96 97 98 98 99 100 97 96 98 99 98 94 99 98 100 99 99 87 77 84 90 98 97 82 86 86 81 72 71 73 77 87
98 97 90 81 87 86 87 92 93 92 20 21 33 5 8 13 27 67 95 95 96 97 98 98 99 98 98 99 99 100 100 100 100 99 99 100 99 99 97 70 70 81 82 86 87 95 99 94 87 85 81 75 71 70
97 97 80 78 84 81 90 92 97 50 20 36 10 8 29 63 97 97 98 97 98 98 98 97 97 97 95 100 100 100 99 99 97 97 98 99 99 96 78 74 80 83 83 86 86 89 94 98 100 80 76 78 81 76
97 89 78 81 81 86 89 92 96 24 21 49 15 93 100 92 95 95 98 99 98 98 99 98 100 97 100 99 99 98 99 99 98 98 98 100 100 94 87 89 99 96 96 92 80 90 89 96 100 100 100 97 90 85
94 82 85 87 86 85 90 95 87 20 27 47 81 99 100 100 100 98 96 97 96 90 88 87 95 99 97 99 98 94 98 96 99 96 98 100 90 83 90 91 86 74 68 70 66 76 85 83 85 100 100 100 98 98
93 87 87 91 91 89 88 100 82 21 29 73 89 97 98 94 94 97 98 85 90 86 98 100 100 100 100 100 98 97 95 96 98 99 98 96 87 90 69 55 67 82 84 97 99 96 82 68 74 88 97 98 96 94
93 90 91 92 89 91 86 97 77 21 25 84 94 97 96 95 99 99 100 100 98 100 100 100 99 97 96 97 95 95 96 96 98 100 96 91 83 69 70 70 76 82 96 98 98 99 99 98 88 79 76 96 98 95
92 90 90 86 89 95 91 97 73 22 26 71 92 97 92 95 85 85 79 86 88 88 99 98 96 91 92 94 95 97 96 98 100 100 94 90 78 79 87 93 96 95 91 94 96 98 99 99 99 100 97 93 95 99
91 90 89 92 94 96 93 96 63 23 44 67 89 95 94 90 89 88 95 94 94 100 100 99 98 94 89 93 90 94 98 100 100 96 89 95 89 77 83 83 89 89 76 78 85 91 93 93 97 98 100 100 100 100
98 95 95 94 90 96 96 96 72 25 59 66 78 89 86 86 89 83 100 100 100 98 98 97 97 92 89 88 95 95 98 96 77 62 87 96 82 70 82 80 77 74 71 70 66 60 57 55 69 84 80 87 98 98
94 95 95 95 96 96 96 96 89 32 64 70 45 61 64 66 75 89 92 100 100 97 95 96 95 91 97 98 97 99 88 62 68 58 67 97 96 77 80 84 82 80 79 77 75 72 69 67 65 59 52 49 55 64
98 94 93 96 97 96 96 96 95 64 31 30 34 32 29 28 28 26 34 81 100 99 94 97 95 96 100 100 91 66 70 73 70 67 67 81 96 86 81 82 85 88 86 83 78 73 69 68 65 64 64 64 59 53
98 96 95 96 96 96 96 96 96 94 80 47 36 40 42 41 40 35 26 16 45 100 98 95 97 90 82 76 72 75 74 74 74 67 58 57 62 72 82 84 81 74 66 60 54 46 40 37 39 46 54 57 64 65
96 95 95 95 95 96 96 95 95 96 95 94 95 75 56 55 48 44 37 26 21 41 90 89 75 81 83 77 76 74 78 73 66 52 38 26 24 23 22 19 15 11 7 4 3 3 2 2 2 2 2 4 25 54
94 94 95 95 95 95 95 95 95 96 95 96 95 96 95 91 87 74 53 42 33 28 26 22 17 18 34 58 75 79 78 67 37 17 14 12 9 7 6 5 5 4 3 3 3 2 2 2 2 2 2 2 2 2
95 94 93 94 89 87 89 92 93 94 95 95 95 96 95 95 96 96 92 82 50 37 36 31 20 16 18 21 22 18 16 21 24 23 16 9 8 7 6 5 4 3 3 2 2 2 2 2 2 2 2 2 2 2
90 88 85 75 78 80 81 72 74 79 84 87 92 95 95 95 94 95 95 81 73 71 60 51 41 44 41 36 30 23 21 23 25 27 25 14 10 8 6 4 4 4 3 3 3 3 3 4 3 3 3 3 3 3
78 67 66 73 69 69 62 62 65 70 75 77 79 83 87 92 90 87 77 66 65 77 88 86 72 61 61 35 36 31 26 28 30 29 26 16 8 6 6 5 4 4 4 5 5 6 5 4 4 4 4 4 4 3
66 62 61 63 56 53 56 52 58 65 67 71 76 80 81 82 82 76 61 60 66 65 66 71 76 82 79 39 31 32 33 33 30 22 8 7 7 6 6 6 6 6 6 8 7 6 6 5 5 5 5 4 4 5
94 85 65 50 44 40 43 49 60 64 65 65 68 73 78 84 80 69 66 69 69 68 61 62 61 49 40 36 32 22 12 9 10 10 10 8 8 7 6 6 7 11 9 9 9 8 7 6 7 8 10 12 12 13
55 41 35 33 31 28 29 36 47 62 67 69 67 66 78 83 79 78 64 52 46 30 29 30 34 38 44 47 46 42 33 22 14 11 8 8 8 8 7 7 8 10 10 10 9 8 7 8 11 14 18 23 26 26
28 22 23 31 32 32 39 38 33 52 62 64 67 70 74 76 73 72 89 79 59 47 55 62 66 66 69 72 63 53 46 32 17 11 9 9 10 8 9 12 13 12 11 9 8 9 13 16 20 24 28 32 35 38
18 16 17 17 17 20 19 20 20 24 30 54 64 64 70 70 68 70 77 90 88 85 84 86 85 78 69 73 64 57 56 43 20 12 11 9 11 12 13 14 13 10 9 11 20 24 27 29 32 36 41 44 49 54
21 23 27 27 29 24 21 29 20 27 44 61 68 66 62 66 69 70 72 78 84 87 86 82 83 82 71 61 58 58 58 41 20 13 10 12 14 14 13 11 11 16 22 26 32 38 42 42 44 48 51 56 63 65
36 39 39 39 34 31 32 31 31 39 48 64 76 74 62 64 59 66 70 69 71 71 72 74 74 72 70 62 53 47 40 25 14 13 15 16 14 12 14 22 29 32 36 40 43 47 53 58 60 61 65 73 76 73
45 42 41 42 38 47 61 55 54 61 65 73 73 66 64 67 60 56 52 60 65 71 69 65 61 50 34 19 16 14 11 12 16 18 14 12 15 22 28 34 39 42 46 52 58 62 69 74 78 80 83 84 80 78
68 61 57 56 58 64 72 80 77 73 62 61 70 74 75 73 61 52 50 52 58 59 59 58 51 26 9 8 9 12 16 17 15 13 14 18 23 30 35 40 46 53 59 63 70 78 83 85 88 88 83 78 78 78

GFSWCAN_700_rhum_057.txt.gz
RH
52 88 98 92 84 89 95 99 92 81 86 87 88 93 92 65 79 88 80 52 27 27 19 38 73 96 87 89 88 83 83 79 82 93 97 94 96 90 98 88 91 83 86 100 97 83 76 73 85 97 99 99 95 94
35 61 100 99 92 92 91 100 82 82 82 89 90 95 96 81 36 44 44 70 93 42 26 16 41 74 85 98 98 94 88 86 90 91 90 92 92 94 100 92 90 91 84 82 79 68 93 92 99 98 98 98 98 94
21 100 84 90 95 85 97 100 85 81 82 87 94 97 93 72 79 65 31 25 29 28 19 13 14 88 100 100 100 95 92 94 93 92 93 88 92 97 97 93 94 96 90 94 93 93 85 96 98 99 98 96 94 92
7 82 100 93 79 96 96 98 81 79 78 84 95 96 96 82 23 20 22 20 14 20 19 12 19 81 100 99 99 99 96 95 91 94 88 88 92 93 92 89 87 85 87 88 86 85 94 95 98 99 99 93 90 85
7 23 98 78 93 99 99 95 82 77 78 89 95 98 71 21 24 26 20 34 38 43 39 31 97 82 94 94 96 95 97 93 91 94 90 92 92 98 94 90 78 69 76 80 89 96 88 91 99 99 97 87 76 71
16 84 66 98 98 94 100 94 84 78 82 88 95 37 22 29 21 23 53 40 28 37 54 84 84 98 99 98 98 98 93 89 94 90 95 94 92 96 94 96 73 69 74 81 84 81 86 84 88 86 79 76 73 77
29 84 59 87 83 94 98 92 83 80 87 91 37 24 30 10 14 50 43 59 24 25 85 95 97 96 96 97 98 99 96 91 93 92 93 95 95 98 94 96 67 74 77 85 82 97 84 85 84 85 84 82 77 80
8 24 93 96 98 100 97 88 84 86 92 64 24 26 8 15 32 68 80 48 39 87 96 96 98 98 97 90 97 93 94 91 95 94 97 99 98 96 98 78 73 74 85 86 89 85 87 94 100 98 93 86 86 85
16 44 88 98 98 97 96 85 84 92 90 23 32 12 31 77 98 100 100 100 98 98 97 98 97 98 99 96 98 97 98 95 94 97 99 100 99 98 90 78 74 75 74 78 86 84 86 81 90 100 100 96 81 82
36 57 98 88 97 96 91 84 87 96 46 33 25 86 98 93 99 99 98 98 97 99 99 97 96 98 92 95 98 96 97 98 100 100 98 99 89 77 84 84 86 84 82 81 85 94 94 81 94 100 100 100 100 100
52 54 92 97 97 96 83 82 91 95 28 51 65 93 98 95 99 98 97 97 99 100 99 94 97 98 95 98 98 94 98 98 99 96 98 99 84 74 82 90 92 88 80 65 60 74 82 79 84 87 93 95 98 98
98 97 96 97 96 89 86 88 96 88 22 53 94 90 100 96 97 99 98 96 98 90 93 96 97 98 96 96 96 95 91 90 99 100 97 90 74 84 82 66 60 67 79 83 90 99 98 94 80 74 76 84 96 99
98 97 96 96 96 93 92 94 96 79 23 67 95 97 98 93 97 100 97 100 100 100 100 100 97 98 99 94 89 91 94 94 99 99 93 85 84 67 66 80 87 88 96 100 99 98 97 98 100 98 85 76 85 97
97 96 96 96 95 93 96 98 97 80 22 59 99 96 91 96 92 99 95 89 97 94 98 97 97 100 96 93 93 91 93 94 100 100 95 84 82 73 81 89 96 97 96 97 97 96 97 98 99 98 100 100 91 88
96 96 96 96 97 99 99 98 97 89 25 64 96 94 95 90 81 91 100 98 99 99 97 97 98 91 91 94 91 91 97 100 99 94 75 87 84 77 86 88 86 88 78 68 73 87 89 92 96 97 98 98 99 99
96 96 95 96 98 100 99 97 96 93 45 72 83 94 92 90 80 82 100 100 96 96 94 94 96 93 91 87 92 90 95 92 73 58 71 94 97 84 79 83 80 78 78 79 78 74 72 69 65 68 75 82 82 91
94 95 94 94 98 99 97 96 97 90 75 78 64 79 90 88 80 82 90 98 97 93 99 96 93 89 93 94 94 95 93 73 75 69 60 70 98 88 78 82 85 85 84 82 78 76 72 71 72 71 66 63 60 55
96 94 96 98 100 98 97 96 97 93 87 67 50 45 58 69 52 37 57 92 100 97 96 98 96 92 100 100 98 72 81 84 77 72 68 65 77 99 96 84 84 86 85 84 85 87 84 75 66 62 58 56 56 56
98 99 98 98 99 98 97 97 97 93 85 75 46 35 34 34 30 29 28 25 45 98 98 97 97 88 82 80 76 79 81 81 83 82 80 70 58 57 70 88 96 92 87 79 69 55 41 27 14 8 6 6 11 21
97 98 97 97 98 97 97 95 94 96 94 93 94 80 45 44 43 41 40 38 32 28 89 88 75 73 75 77 77 80 78 80 83 79 76 68 53 37 26 24 23 18 13 8 6 4 3 3 2 2 2 2 2 2
95 96 98 98 97 96 95 95 96 96 96 96 95 96 95 87 65 75 64 58 48 36 22 16 19 32 42 50 63 90 92 83 79 69 59 31 20 19 15 9 7 6 5 5 4 3 3 3 2 2 2 2 2 2
96 97 95 90 89 93 94 95 96 96 96 96 95 95 95 96 96 96 93 96 78 56 52 49 40 36 30 20 23 29 40 40 32 22 20 23 22 17 11 9 8 7 6 4 4 3 3 2 2 2 2 2 2 2
83 71 64 57 68 73 70 70 70 71 82 92 95 95 96 95 95 95 94 82 74 80 93 92 83 38 27 21 20 25 25 22 19 18 20 24 28 28 23 15 11 7 5 4 3 3 3 3 3 3 3 3 3 3
55 41 37 44 49 60 51 55 64 68 70 72 74 78 81 87 88 89 84 92 95 91 87 82 78 80 57 43 55 69 43 39 40 34 25 27 31 31 27 17 8 5 5 4 4 4 4 4 5 5 4 4 4 3
55 42 35 44 41 42 36 45 63 64 66 63 64 67 71 73 75 76 75 83 75 71 67 65 68 75 81 84 78 74 58 30 29 30 32 32 28 19 9 7 7 6 4 4 4 5 6 6 7 6 6 5 5 5
62 42 40 29 37 35 39 38 38 39 38 50 62 63 66 65 75 77 73 63 58 53 56 64 63 68 68 65 67 66 53 38 32 27 16 10 10 10 9 8 7 7 4 5 6 7 8 9 8 7 7 6 6 6
40 33 40 42 33 29 24 25 32 40 44 41 34 50 67 62 72 73 64 63 74 46 28 36 41 43 44 46 46 47 46 42 39 32 27 20 15 11 9 8 7 6 6 7 9 10 10 9 8 7 9 11 13 13
26 24 25 31 31 32 32 26 23 30 31 27 37 44 40 60 57 61 67 63 67 78 79 74 71 74 75 76 74 71 73 68 57 49 42 29 16 11 9 7 7 8 9 10 11 9 8 8 9 12 16 19 25 28
20 19 20 20 22 22 18 16 14 14 15 18 20 18 20 25 30 47 60 64 62 61 65 78 82 77 74 76 77 69 65 64 58 56 55 39 21 15 10 9 10 12 12 11 9 10 13 17 22 26 30 34 40 44
20 21 23 23 24 24 23 27 26 26 22 21 19 14 13 13 18 20 33 49 59 62 65 63 67 74 80 80 78 76 76 71 62 60 49 28 14 10 10 12 13 11 10 11 16 22 27 31 36 40 44 47 51 53
43 44 41 38 35 32 32 32 30 30 29 26 25 23 19 15 10 12 11 26 48 54 56 60 60 62 63 68 71 70 65 61 58 46 26 12 10 12 12 10 11 13 16 20 27 35 42 46 50 54 58 62 71 72
64 64 63 55 46 40 40 39 38 39 40 45 45 37 35 31 16 10 6 18 46 55 61 59 58 60 59 63 62 58 51 29 15 11 10 13 13 12 12 13 17 22 29 38 47 52 55 58 62 68 75 80 82 86
90 86 78 79 75 66 58 58 58 56 57 65 55 41 34 31 22 14 23 45 50 52 53 54 55 57 60 60 52 17 7 8 10 13 13 12 11 11 14 22 34 44 50 54 56 60 67 74 82 86 88 87 85 80

GFSWCAN_700_rhum_060.txt.gz
RH
4 3 8 24 21 32 100 97 100 100 97 95 78 74 78 80 85 88 79 52 78 67 46 29 41 95 99 98 92 85 87 85 84 97 98 91 97 86 92 93 86 96 99 99 100 97 78 67 86 90 99 96 94 91
5 4 4 3 6 53 51 99 94 96 99 96 82 76 78 84 92 85 64 52 58 80 66 63 31 31 95 100 100 97 87 75 81 89 89 86 92 89 94 98 84 94 79 92 76 74 81 82 98 96 97 95 96 93
5 5 5 4 8 24 81 98 70 95 98 95 83 78 83 90 98 88 84 64 45 56 58 49 66 69 31 100 100 100 98 94 87 88 92 88 86 90 91 96 92 90 83 88 84 81 83 96 90 97 98 99 99 94
7 6 6 6 5 20 54 92 81 100 99 95 81 80 90 97 100 95 70 36 25 30 29 11 11 39 61 59 99 98 97 97 91 93 91 91 87 87 93 90 89 90 92 93 87 78 81 87 95 95 97 99 95 92
9 7 7 6 6 13 29 56 98 94 97 96 77 84 92 92 68 50 26 28 33 50 33 12 47 17 13 34 94 98 99 98 95 89 85 89 87 88 85 87 75 70 70 75 91 74 80 89 86 96 94 98 91 81
8 6 6 7 6 11 38 52 75 82 97 95 81 89 87 36 27 30 18 27 42 47 67 68 79 57 45 96 99 98 93 92 88 90 88 89 82 88 92 90 61 63 67 73 72 74 78 96 100 91 93 94 84 78
10 8 7 4 4 9 45 37 77 90 98 92 87 89 44 29 23 12 30 61 68 35 81 94 97 97 72 95 98 95 98 96 95 95 86 96 96 93 96 86 60 67 72 79 81 83 81 89 82 80 79 79 77 76
8 6 4 2 4 7 89 99 84 98 96 90 91 57 28 11 11 25 42 39 36 65 95 95 97 99 96 97 98 98 97 96 96 96 88 90 91 90 93 74 67 71 75 78 79 86 85 88 95 100 96 94 91 84
5 3 3 4 5 21 100 91 94 99 95 94 69 27 18 74 93 98 96 97 89 97 97 96 98 98 97 96 98 99 98 98 90 95 95 98 99 95 75 75 81 78 76 76 78 78 82 82 87 86 90 100 96 88
3 2 2 29 92 92 100 97 100 97 94 92 39 38 96 96 96 98 97 98 98 97 96 96 97 99 94 91 98 95 90 95 99 97 100 100 84 73 83 93 92 96 84 83 87 90 86 80 86 80 83 89 100 100
2 2 16 89 80 97 95 97 96 96 95 70 35 64 94 97 96 95 98 100 98 98 93 96 96 98 98 95 94 90 98 97 100 100 100 99 80 68 74 82 92 100 98 85 79 69 64 73 88 86 88 94 96 97
5 5 78 86 92 97 93 99 96 95 98 51 44 67 94 98 96 98 98 100 100 97 99 100 95 98 98 96 97 93 93 90 99 100 98 87 61 73 81 80 72 64 65 74 80 87 98 97 90 89 76 78 86 92
18 50 62 85 100 98 96 96 95 96 91 31 74 100 96 95 98 97 96 100 100 100 100 97 100 98 98 97 94 94 94 97 94 96 87 74 73 78 64 70 87 96 98 99 98 100 98 97 97 98 100 96 76 80
44 76 91 98 97 97 96 95 95 96 65 36 82 97 88 97 89 90 86 88 99 96 97 95 97 95 97 94 90 86 95 96 98 98 85 78 86 67 68 84 94 97 97 97 97 97 97 98 98 98 99 100 100 91
70 98 97 97 96 96 96 95 96 96 44 40 80 89 93 88 89 88 100 100 100 100 94 94 97 100 95 88 88 88 95 100 99 95 73 78 89 74 86 95 92 87 81 79 74 78 80 89 92 92 96 97 98 99
95 97 97 96 96 96 95 95 96 96 49 40 76 91 92 90 89 92 100 100 99 100 93 95 97 96 90 83 96 96 93 91 75 72 71 71 88 78 84 88 85 82 79 79 81 81 82 83 81 83 76 68 68 71
95 94 96 96 96 96 96 95 96 97 89 56 67 75 95 97 95 93 100 100 99 95 99 98 86 86 86 89 92 97 88 74 76 74 67 64 100 99 89 86 88 88 86 86 86 84 80 78 76 75 71 65 63 62
97 96 96 95 96 96 96 95 97 96 89 79 65 63 69 94 95 76 99 100 100 95 92 99 89 82 86 100 91 69 79 82 77 74 71 69 66 80 99 100 93 89 88 86 84 81 80 79 75 65 49 38 34 38
95 95 95 96 97 96 94 97 97 90 84 84 90 83 64 49 68 78 48 70 97 99 99 99 97 84 72 74 73 73 75 75 76 78 82 81 77 68 60 64 87 100 99 97 94 81 59 42 28 12 4 3 2 2
95 96 96 97 99 100 98 93 92 91 86 84 92 95 91 55 35 36 36 38 44 62 91 88 77 76 79 78 76 75 80 80 74 66 66 65 63 58 43 30 22 18 20 18 14 8 5 4 4 3 3 2 2 2
93 95 96 97 97 95 94 94 95 96 96 98 93 96 95 94 72 58 59 58 46 39 29 25 24 43 66 86 90 90 97 98 98 95 89 82 74 47 25 23 23 15 8 7 6 6 5 4 3 3 2 2 2 2
92 94 93 94 95 96 96 97 96 96 96 96 95 96 96 96 96 95 88 88 66 49 54 59 77 51 37 33 31 30 27 24 27 38 60 66 46 25 22 22 22 20 14 10 9 7 5 4 3 3 3 3 3 3
90 85 75 79 84 84 78 78 79 90 94 95 96 96 96 96 96 95 96 90 81 83 90 81 77 75 69 50 36 32 24 18 20 26 25 20 18 19 22 27 29 27 22 18 10 6 5 4 4 3 3 4 4 4
54 37 45 56 67 65 62 65 66 68 72 74 78 86 90 95 96 96 96 96 96 97 96 93 87 83 84 85 72 47 35 43 59 48 41 41 39 31 27 30 31 31 23 10 6 6 5 4 4 4 4 4 4 4
38 40 46 47 38 35 49 60 60 59 61 63 64 66 66 75 83 94 92 87 84 83 84 88 80 73 73 77 86 92 85 75 80 73 43 30 30 32 32 24 13 8 8 8 7 6 5 4 4 4 5 5 5 5
43 38 37 34 33 32 30 37 33 36 33 31 37 43 55 69 79 77 72 67 67 56 42 54 60 50 61 72 72 73 79 80 80 76 56 42 29 20 13 13 14 12 11 9 7 6 5 5 5 6 6 6 6 5
39 33 34 35 33 29 24 21 22 22 24 25 26 32 31 54 77 67 49 57 60 62 68 65 46 44 50 54 52 50 50 49 50 46 44 42 40 36 31 26 19 14 11 9 7 6 6 7 8 9 8 8 7 7
29 26 26 26 25 25 25 24 22 22 17 16 18 22 24 24 53 35 32 33 35 48 57 59 62 66 68 69 74 77 77 73 67 66 68 64 57 54 52 42 27 15 9 8 8 8 10 10 10 9 9 10 14 17
22 21 21 20 20 20 20 20 19 19 19 20 20 19 19 19 23 23 25 22 12 12 23 41 50 56 60 67 75 75 74 75 75 67 62 61 62 63 57 50 30 14 8 8 9 10 10 9 10 12 16 19 25 30
23 24 25 24 24 23 22 24 21 22 20 20 19 16 13 11 11 11 10 9 8 8 8 8 17 42 53 55 58 65 69 69 71 70 70 67 65 58 47 28 12 9 11 12 11 10 10 12 17 23 28 32 37 41
46 40 39 40 39 39 37 35 32 30 28 27 26 24 21 16 10 10 8 6 6 6 7 7 8 22 43 48 52 55 58 64 65 64 57 48 37 24 11 10 12 12 11 10 11 14 21 28 35 39 44 49 54 57
44 49 49 45 46 56 62 61 58 51 46 45 41 38 37 33 17 11 7 7 6 6 8 8 12 33 42 45 50 55 57 62 63 63 59 41 15 10 11 12 11 11 10 13 21 31 38 44 50 56 60 67 73 79
36 44 47 51 49 46 45 71 80 71 68 65 64 56 46 33 26 18 14 13 11 10 10 25 38 43 47 50 55 55 59 60 49 16 8 10 12 12 11 10 11 16 26 39 48 52 56 62 68 75 82 87 88 86

GFSWCAN_700_rhum_063.txt.gz
RH
6 5 5 5 6 6 6 6 7 14 54 79 76 86 79 82 71 70 85 93 84 72 65 55 26 47 100 100 100 99 99 98 94 98 96 90 87 89 91 84 89 94 90 92 89 92 81 60 87 86 100 99 98 90
7 7 8 8 7 7 6 6 6 6 29 46 68 83 91 86 74 72 85 92 77 63 66 68 76 46 53 100 99 98 97 97 89 96 93 93 91 98 86 83 88 88 81 80 81 81 72 67 89 84 83 94 95 96
7 7 8 9 9 8 7 7 6 6 7 30 66 79 82 90 76 85 90 91 95 85 71 66 63 80 38 52 98 98 96 94 84 80 97 97 96 99 96 91 98 88 93 85 84 79 76 80 85 88 92 93 97 98
12 11 10 10 9 9 8 8 6 5 6 25 70 71 78 89 79 90 94 82 66 35 36 23 21 34 79 58 53 98 100 97 91 91 82 90 96 86 95 96 94 96 92 82 86 82 77 78 88 86 84 93 98 97
19 17 14 12 12 11 10 8 4 10 25 47 80 90 93 88 89 89 53 29 34 63 51 10 12 7 17 57 62 65 98 97 96 95 89 87 90 83 81 88 87 90 80 98 90 91 92 95 92 83 84 85 96 94
21 19 16 12 12 11 9 5 3 17 70 74 89 98 98 91 95 59 29 34 38 99 98 69 78 79 24 16 34 72 96 95 95 95 90 94 79 84 98 100 78 59 63 64 74 67 70 75 84 96 91 97 98 97
23 21 18 14 12 10 7 4 6 99 61 93 99 100 99 95 76 34 38 38 73 82 87 92 93 96 80 65 35 88 96 98 92 92 95 94 86 83 89 96 68 54 60 69 76 78 75 76 78 80 94 93 85 85
23 20 14 10 9 8 4 4 27 58 57 100 97 96 96 80 29 16 37 40 62 80 93 92 96 97 87 90 64 92 89 97 98 92 90 95 90 86 96 64 57 62 60 66 69 78 78 75 84 87 91 88 86 83
21 17 12 10 9 3 3 21 80 80 100 98 96 96 93 32 52 67 76 79 69 94 97 96 95 97 74 63 97 97 98 98 98 97 98 94 89 87 74 65 64 71 79 81 78 74 72 71 78 83 88 94 88 86
11 9 8 7 5 2 20 77 92 91 98 96 97 95 65 91 96 95 99 97 99 98 91 88 97 98 91 96 98 88 97 97 97 97 89 100 90 76 67 72 78 80 90 88 83 83 77 76 76 79 79 81 83 84
8 7 6 4 2 2 8 100 94 83 100 97 95 94 90 100 97 96 96 97 100 96 89 91 96 98 98 99 99 89 93 90 91 92 100 99 75 60 79 71 72 99 100 100 100 88 86 80 69 68 75 81 81 84
5 3 2 2 3 13 36 98 96 97 98 96 95 92 95 98 96 96 97 98 98 94 100 98 96 98 98 97 96 93 96 97 98 98 98 85 57 69 73 85 86 90 84 77 71 72 79 92 95 86 82 81 76 78
3 6 11 11 17 95 97 90 88 97 97 96 95 95 78 94 97 96 99 99 94 100 97 95 96 98 98 97 97 95 91 100 92 97 92 73 67 72 79 90 85 92 97 95 95 98 94 91 98 97 97 99 99 88
16 24 25 31 60 87 92 96 98 97 96 96 90 95 91 96 89 85 81 83 80 85 85 92 97 98 98 96 95 94 96 96 98 99 96 78 82 89 69 82 96 98 97 97 98 98 98 97 98 100 100 98 99 100
26 51 47 75 71 76 90 97 97 96 96 94 87 90 95 92 93 91 87 89 93 88 82 97 98 98 97 95 90 86 98 99 98 96 80 81 76 85 71 89 98 96 90 90 89 86 85 87 89 89 92 94 96 97
38 57 63 71 91 97 97 96 96 96 96 91 73 83 87 89 88 96 99 100 97 97 96 98 97 96 93 82 90 100 100 94 80 76 72 68 78 82 80 93 92 85 81 78 80 83 85 86 84 81 79 76 73 71
50 71 94 99 97 95 96 96 96 96 95 88 59 65 85 96 95 96 97 99 99 98 94 97 94 96 90 88 88 84 75 75 75 72 68 62 88 94 85 88 90 89 88 87 87 87 86 85 83 80 77 75 73 68
95 97 96 96 96 95 96 96 96 96 95 83 66 58 60 77 95 96 97 96 97 96 95 98 97 96 94 95 69 67 75 77 75 76 72 69 68 66 81 98 98 94 92 92 92 90 87 82 79 81 68 49 38 28
98 99 97 96 96 96 95 96 96 95 88 81 80 76 68 64 79 95 97 98 97 96 97 96 96 93 82 76 73 74 74 76 78 76 74 69 61 66 68 65 61 63 72 88 92 92 88 80 56 28 10 5 4 3
97 96 94 95 95 96 96 93 92 90 80 78 82 87 91 87 78 71 63 90 81 97 96 93 85 90 94 84 79 75 80 86 86 79 76 73 64 56 61 58 46 27 21 16 13 10 9 7 6 5 5 4 3 3
92 94 96 96 96 95 88 87 86 85 88 90 85 88 88 92 94 85 46 41 43 49 45 44 48 78 78 85 97 97 94 91 92 92 90 86 84 81 72 66 35 24 23 20 12 8 8 8 7 5 4 3 3 3
96 95 94 95 97 98 97 97 98 95 94 93 92 96 97 95 96 96 89 70 54 40 40 46 62 70 47 37 31 29 31 34 35 38 34 33 32 46 60 54 27 22 25 27 26 21 15 11 8 6 4 4 4 4
96 95 97 98 98 93 94 95 94 94 95 95 96 96 95 96 95 95 96 86 76 67 66 68 65 60 59 63 65 60 51 40 36 34 22 20 24 30 29 20 19 21 25 29 30 28 22 12 7 6 5 4 4 4
82 79 83 74 74 69 70 68 70 72 75 85 95 96 96 96 97 96 96 96 96 95 95 94 92 87 82 78 80 85 85 77 50 28 31 55 53 42 41 40 37 28 29 30 24 16 9 7 7 6 5 4 4 4
48 46 51 52 44 52 60 62 59 59 60 61 63 66 70 81 95 95 95 94 94 94 94 95 94 93 90 85 78 83 88 93 96 80 66 71 72 60 36 31 32 32 27 14 11 11 11 9 8 7 6 5 6 6
47 33 37 30 31 34 48 27 22 21 17 20 22 33 56 75 82 73 65 54 49 50 51 56 69 82 87 92 91 90 90 92 93 92 90 86 79 69 51 39 24 18 19 20 20 16 13 10 8 6 6 6 7 7
34 34 32 25 20 18 19 19 21 21 18 15 14 16 19 39 75 65 42 39 55 56 56 57 60 62 60 57 60 66 64 63 61 58 54 52 50 50 48 48 47 46 46 42 33 22 14 10 7 7 7 8 9 8
24 22 23 24 23 24 25 24 24 21 19 18 18 18 15 18 43 57 43 17 15 16 16 18 22 24 37 51 58 65 70 74 75 73 71 69 67 67 67 63 58 56 54 53 47 30 16 9 8 9 10 10 10 10
25 24 23 22 22 21 20 19 19 19 19 19 18 17 16 16 19 20 20 16 13 11 10 10 10 9 9 12 30 44 51 58 66 72 73 73 76 79 78 72 70 63 53 45 33 16 10 10 11 11 11 11 13 14
26 24 21 19 18 19 20 22 22 23 22 22 22 18 16 14 14 13 11 10 10 9 9 8 7 6 6 6 7 13 27 43 52 57 60 62 67 73 73 72 64 53 43 24 12 11 11 11 11 12 13 14 18 22
29 30 32 33 31 28 28 27 25 23 22 22 24 21 16 15 10 12 12 11 11 12 12 11 10 8 6 5 4 4 8 34 48 54 57 60 64 66 64 64 58 35 15 11 12 12 12 12 14 21 29 36 42 45
31 33 35 40 42 48 50 49 47 42 37 33 30 27 24 22 17 14 12 15 15 14 12 12 10 9 7 5 4 4 6 30 47 55 58 62 65 64 46 20 11 11 11 12 11 11 15 25 37 45 48 51 54 58
36 45 54 66 77 78 78 83 74 66 46 39 36 38 32 31 30 22 19 19 23 23 20 14 9 7 6 6 4 6 24 48 53 57 62 59 37 12 9 10 11 10 10 15 26 39 47 50 54 58 63 71 79 83

GFSWCAN_700_rhum_066.txt.gz
RH
5 5 5 5 7 8 7 7 8 9 8 6 6 7 22 43 60 67 75 72 70 76 68 74 73 60 31 96 98 95 99 97 98 97 93 89 80 78 84 81 83 91 95 93 88 87 81 61 65 95 96 95 96 92
5 6 6 6 7 8 9 10 10 10 9 9 6 8 20 61 73 69 69 69 76 77 70 73 72 62 71 57 91 99 98 91 94 90 85 88 83 84 83 81 83 89 83 81 76 74 71 66 59 76 90 96 94 94
6 6 6 8 9 10 11 11 10 12 11 9 5 10 15 71 82 92 86 86 88 88 69 61 61 80 80 88 53 83 98 98 94 93 92 92 92 80 82 84 84 88 88 84 83 73 75 71 73 71 82 85 84 91
11 11 12 13 15 17 18 14 13 13 11 8 5 8 35 68 93 100 89 100 97 75 70 24 17 21 35 50 85 54 78 99 97 95 91 97 91 84 84 87 86 88 88 83 76 81 86 80 81 82 86 86 88 92
9 12 14 16 18 20 21 19 16 12 8 6 5 11 56 100 100 98 94 98 77 58 53 15 25 35 12 23 39 79 49 93 99 99 96 86 87 88 83 81 80 82 87 90 86 91 95 95 88 79 85 82 82 88
9 11 14 20 22 23 22 20 14 11 11 6 6 58 100 97 97 95 90 82 60 44 63 52 63 74 79 56 16 40 84 57 96 98 95 92 86 86 84 88 82 80 70 77 84 79 82 80 78 78 80 75 84 84
11 15 23 28 27 24 23 21 16 13 6 4 25 100 90 91 99 92 98 73 38 26 77 71 77 92 87 77 33 29 44 87 87 97 98 89 91 98 95 83 64 65 67 72 68 65 66 69 69 72 78 83 96 96
26 33 31 29 26 23 16 15 11 4 6 51 92 100 85 100 100 93 59 65 48 40 76 82 81 94 92 95 92 64 51 83 88 97 95 82 92 96 96 74 65 69 83 61 63 69 74 75 71 71 76 79 81 82
36 33 30 28 21 14 11 8 4 2 36 82 93 85 95 97 96 89 74 93 73 76 89 84 91 96 97 94 98 72 74 94 90 98 100 87 92 89 85 69 64 62 66 76 78 74 70 69 69 70 72 75 77 83
34 32 29 19 14 11 8 4 3 5 94 100 100 100 99 94 98 92 96 100 98 91 86 76 94 96 98 96 96 94 97 93 96 95 92 98 87 72 76 68 64 68 78 89 87 77 77 74 71 72 71 72 78 80
32 26 22 18 14 7 4 4 3 23 77 100 96 93 97 97 98 95 96 96 99 91 87 88 96 96 97 97 96 96 98 94 90 99 94 94 69 59 61 64 79 78 74 89 95 100 96 80 75 76 81 80 78 77
21 17 14 7 4 4 8 12 78 98 99 96 89 95 97 96 96 96 96 97 94 92 93 95 97 99 98 98 98 89 97 92 98 100 100 91 62 65 69 79 83 80 89 97 99 99 95 80 72 78 88 80 70 73
14 7 3 4 13 19 23 52 84 70 98 97 97 96 94 95 99 96 97 97 97 90 93 96 97 98 98 97 94 96 92 95 92 98 93 76 72 71 73 88 95 94 91 88 87 92 89 77 85 94 95 97 95 100
4 3 7 26 29 35 39 70 95 85 98 97 95 95 90 97 96 94 84 90 94 88 94 95 98 97 98 96 95 96 97 96 98 99 95 84 80 81 88 82 93 96 96 97 97 98 98 97 97 98 99 100 100 95
4 6 19 31 45 79 69 61 96 96 97 97 93 92 93 82 94 96 91 85 95 92 92 95 97 97 97 96 95 93 91 99 99 97 89 83 78 84 82 78 92 96 96 96 96 95 93 91 88 86 86 89 92 91
12 25 25 39 53 96 95 67 89 96 97 96 93 86 80 83 79 82 96 100 100 99 96 96 96 96 96 95 92 96 99 98 90 82 77 69 69 89 77 86 98 98 87 79 78 82 85 86 86 84 81 79 77 76
47 33 38 53 54 81 91 94 97 97 96 95 88 84 88 94 92 84 85 96 98 97 96 97 96 97 96 97 98 95 81 81 84 80 72 66 73 94 86 92 99 96 90 88 87 88 89 89 90 88 84 76 75 72
60 56 54 56 66 76 100 99 97 96 94 89 83 79 88 91 83 94 97 96 97 97 96 96 96 96 100 100 84 86 87 85 83 83 77 72 69 67 72 87 92 94 96 96 95 92 90 88 87 85 84 81 65 37
84 78 76 94 99 99 95 97 97 92 88 86 86 92 92 79 65 64 74 96 96 96 97 96 95 94 88 81 88 92 88 86 85 83 78 74 65 53 55 72 74 65 58 53 50 52 57 54 44 40 28 13 5 4
100 100 96 98 100 98 96 95 94 93 89 84 87 88 86 84 79 75 70 72 89 96 96 95 94 93 95 96 87 82 86 88 90 91 84 79 77 75 70 65 65 66 58 35 22 20 17 12 8 7 6 6 5 4
100 99 97 98 97 96 95 88 85 84 87 87 80 82 80 82 86 89 90 86 71 83 84 80 80 92 94 91 90 93 94 92 91 87 89 92 91 88 77 75 64 64 62 34 23 23 23 21 14 10 10 8 6 4
96 96 96 96 96 95 89 86 88 89 91 92 88 90 90 88 87 88 92 93 84 74 65 48 45 47 51 47 40 37 36 31 30 37 43 44 42 42 36 33 36 47 38 25 22 25 29 29 26 23 15 9 6 5
96 95 96 96 93 86 88 91 96 92 90 92 93 92 90 91 93 93 93 82 79 81 81 70 65 60 54 57 59 61 63 63 60 54 45 36 34 25 22 26 30 28 22 20 24 26 29 30 29 23 11 7 7 6
95 95 95 94 90 87 88 79 81 79 83 91 93 89 88 91 93 93 93 95 97 95 95 95 93 83 77 78 74 72 70 66 66 72 80 68 32 32 54 57 46 40 40 41 32 30 30 17 10 9 10 9 8 6
94 78 69 69 68 65 66 65 64 62 65 62 58 60 70 87 94 93 90 89 89 94 95 95 95 96 94 85 87 84 80 81 84 88 96 94 79 65 68 71 68 52 38 35 35 29 16 16 17 16 13 11 9 7
44 43 45 39 55 58 57 39 23 20 15 15 18 24 52 77 77 64 55 50 50 63 64 66 72 75 78 80 78 81 88 90 91 91 92 90 86 86 84 84 74 54 46 30 26 32 37 36 33 28 20 13 9 8
38 36 30 29 31 39 31 22 16 17 16 13 11 11 12 16 62 59 30 21 22 24 28 33 40 48 52 59 62 64 65 64 62 65 66 64 60 57 56 56 57 57 58 59 58 56 55 53 51 43 29 15 8 7
30 32 31 28 26 22 22 23 23 22 20 19 18 15 12 12 20 25 29 34 27 13 12 12 11 10 10 9 10 14 26 43 54 61 68 71 73 74 73 69 66 64 63 65 66 63 56 46 36 24 13 9 9 9
26 27 27 27 24 22 21 21 20 20 21 21 20 19 18 18 18 18 18 18 15 12 11 10 9 9 9 8 8 6 6 6 6 13 31 47 57 67 71 68 66 69 73 75 71 64 54 41 24 12 10 10 11 11
28 26 24 22 20 20 21 22 21 20 19 20 18 16 14 13 14 15 15 14 14 13 13 12 11 10 9 8 7 7 6 5 5 4 4 15 40 52 58 61 64 68 69 68 68 68 57 26 12 12 12 12 11 11
28 24 24 25 29 31 31 31 30 27 24 21 20 17 14 13 10 11 12 13 13 13 13 12 12 12 10 9 8 8 8 7 6 5 4 5 26 45 54 58 62 67 68 68 52 27 13 12 12 12 12 17 26 33
32 32 33 34 36 41 42 43 41 37 33 32 31 29 25 25 18 11 10 17 18 18 17 16 12 10 10 8 7 6 5 6 6 6 5 6 26 47 53 57 61 60 33 11 11 11 11 11 18 31 42 50 53 55
38 46 50 47 41 38 40 43 43 39 33 29 25 25 26 28 30 23 18 23 35 30 25 22 19 16 13 10 8 6 5 5 6 6 6 23 45 54 58 53 25 10 11 11 11 17 31 44 51 54 58 66 73 81

GFSWCAN_700_rhum_069.txt.gz
RH
2 3 4 5 6 6 7 8 8 9 12 11 12 12 9 7 5 5 23 42 64 66 59 68 70 73 73 66 51 92 84 88 99 98 98 96 94 80 82 83 83 82 88 91 95 92 84 60 69 92 83 86 91 91
3 5 6 7 8 9 12 14 17 19 20 18 16 13 8 6 5 6 12 43 75 80 62 75 70 72 77 58 69 55 89 98 98 98 92 87 85 76 76 86 84 83 75 82 71 64 68 71 63 64 82 88 87 96
5 7 8 10 12 14 17 18 18 19 21 20 15 13 10 6 5 6 18 79 90 86 67 63 54 48 66 81 82 81 58 96 97 98 98 94 93 85 80 79 78 85 86 87 83 75 75 69 71 72 77 90 89 91
6 9 10 11 13 15 16 16 17 22 23 22 18 15 12 7 5 18 69 87 95 94 84 52 50 31 47 32 54 88 79 62 92 97 99 98 95 89 85 77 78 80 86 87 82 77 79 81 77 81 81 85 92 83
7 8 8 8 11 12 14 16 21 25 25 23 15 14 9 5 6 35 98 87 93 98 83 58 24 62 77 55 26 33 46 74 80 93 97 98 90 96 91 81 75 78 84 90 83 81 78 81 78 82 80 84 88 88
6 5 5 6 9 11 12 18 27 26 25 19 13 8 5 7 10 61 91 73 95 96 88 39 42 96 100 95 86 69 27 66 89 80 94 100 93 91 90 83 70 67 68 72 85 92 94 98 93 89 78 72 78 78
5 5 8 10 12 14 20 27 28 26 20 15 7 10 9 25 31 72 76 96 92 79 85 60 60 91 91 80 74 72 39 30 76 88 82 96 99 100 95 86 72 69 69 71 77 86 90 95 94 92 81 72 71 76
12 19 19 19 22 26 30 31 27 21 15 10 4 4 53 95 72 86 99 89 90 52 76 80 72 87 97 90 71 83 65 39 34 80 84 94 94 98 95 71 71 73 72 62 63 72 75 74 72 74 80 76 72 73
29 31 32 32 34 35 32 26 23 19 12 4 4 14 99 94 95 90 96 100 92 89 82 85 80 88 95 99 93 77 93 81 68 88 84 96 97 84 72 70 74 68 70 71 72 73 76 78 77 71 72 70 70 74
34 36 41 40 35 29 24 19 14 6 4 4 4 31 100 97 95 87 90 97 94 94 93 75 77 83 98 98 97 93 84 97 98 72 92 94 97 76 70 60 66 74 77 80 80 83 89 88 83 82 79 74 72 72
45 44 39 33 27 20 16 9 4 4 5 9 18 89 99 96 95 92 95 96 97 92 85 84 94 100 98 96 97 96 97 95 98 95 82 100 78 59 59 60 62 68 71 73 78 86 98 99 99 87 84 78 76 77
45 40 33 26 19 15 8 4 5 11 21 50 82 100 98 97 96 98 98 94 90 91 94 95 97 98 98 98 98 96 98 96 99 97 96 85 68 63 63 64 68 77 83 86 82 84 99 99 100 98 89 82 83 84
41 32 22 16 11 5 4 10 22 28 62 97 98 96 96 93 97 95 91 90 90 94 96 96 97 97 97 97 97 96 93 97 96 98 99 79 78 74 70 74 84 92 92 87 86 92 90 85 78 79 88 92 95 94
25 19 15 10 4 5 18 36 55 63 90 96 90 94 93 94 82 71 75 79 88 95 95 96 97 96 98 96 96 98 98 97 100 100 94 90 85 83 84 96 96 97 96 96 97 97 97 98 97 97 97 98 98 99
13 8 6 4 4 16 39 48 66 68 100 96 97 93 89 79 70 79 93 96 95 88 88 96 95 96 96 96 96 96 96 97 97 95 96 93 84 83 97 88 97 97 97 97 97 97 96 96 96 94 89 86 86 87
5 5 6 11 17 37 48 55 85 75 96 99 93 86 74 76 86 90 92 92 96 95 95 97 96 96 97 96 96 96 97 96 98 90 79 72 77 82 94 84 99 98 95 82 79 83 87 90 90 88 87 86 83 79
6 8 37 43 26 35 46 78 98 95 100 95 80 79 84 85 91 92 97 94 91 96 97 96 96 96 94 96 95 96 96 94 92 84 76 72 89 98 89 86 98 98 96 93 91 89 89 89 88 87 86 83 78 74
31 52 60 70 38 35 51 74 99 99 95 82 76 79 87 90 94 95 95 95 96 96 94 98 97 96 94 95 95 96 98 98 95 88 83 76 73 70 84 93 98 98 98 97 96 93 92 90 87 85 84 80 74 69
62 64 58 54 57 61 70 92 100 96 95 87 83 88 93 90 92 96 91 75 73 94 96 97 96 96 84 87 95 95 96 97 97 95 85 80 73 60 55 56 72 79 67 59 53 44 35 30 26 21 14 8 7 6
73 80 76 78 87 89 100 98 95 97 95 85 86 85 83 90 96 93 77 72 70 70 79 94 91 95 94 93 94 95 95 94 92 92 91 91 86 86 85 80 74 75 72 67 59 45 24 22 20 14 9 8 8 8
96 93 81 91 98 98 97 94 95 92 88 90 86 81 79 79 82 84 85 86 86 82 74 74 91 96 96 92 87 91 94 91 84 82 86 89 91 93 95 93 80 63 49 45 51 54 28 24 28 28 26 22 17 12
89 89 95 97 98 97 96 93 86 81 78 78 82 86 84 83 82 86 87 86 82 78 81 82 78 85 84 78 71 67 58 49 37 33 30 34 43 48 50 45 38 34 30 37 38 27 21 21 24 28 30 30 27 16
95 96 96 96 96 94 94 88 85 88 91 90 88 92 90 88 87 88 90 87 88 86 81 82 89 87 68 47 47 47 46 46 48 50 56 58 56 51 38 30 25 24 33 36 32 28 28 34 31 30 26 12 9 9
96 96 96 95 95 95 94 93 90 92 93 89 87 83 80 90 90 94 98 96 94 92 93 94 93 91 87 80 66 64 56 55 55 56 60 60 64 72 74 48 37 57 62 57 44 38 36 33 33 28 15 14 16 15
96 96 96 95 94 94 90 81 76 70 67 63 62 63 82 88 90 89 90 91 90 90 93 95 96 96 96 92 87 89 87 83 80 82 83 83 86 92 92 83 69 66 72 74 65 51 44 42 25 23 29 31 30 26
85 74 70 65 73 71 66 67 59 45 27 21 16 38 72 76 66 48 51 54 60 67 68 69 70 72 76 73 77 81 89 92 90 90 90 89 87 85 81 80 77 74 68 59 46 36 36 46 54 56 55 53 51 48
53 53 50 55 59 57 39 25 19 16 15 12 12 11 11 12 38 41 16 16 18 20 15 13 13 13 13 13 16 17 22 32 47 61 70 76 79 77 72 69 67 64 62 62 63 64 64 64 64 63 56 48 40 28
56 50 40 40 47 32 21 17 19 19 20 20 19 17 14 12 17 19 16 20 20 14 13 12 12 11 10 10 9 9 8 7 6 5 8 20 34 48 57 62 67 70 70 70 70 72 74 74 71 63 60 53 38 18
43 40 32 30 26 24 23 22 22 21 21 21 21 20 19 19 19 18 19 19 18 16 14 13 13 12 11 10 10 9 8 8 7 6 6 6 6 8 8 24 44 51 57 58 60 64 67 68 66 67 63 48 24 11
27 26 26 25 24 22 22 22 21 20 19 18 18 16 15 14 14 15 14 14 14 13 13 11 10 9 8 7 7 7 7 8 8 8 8 8 8 7 5 6 19 38 47 54 59 62 65 67 68 53 22 13 11 11
31 30 26 23 23 25 25 26 26 25 26 27 28 25 22 18 12 13 14 17 18 18 17 13 12 12 9 8 7 5 5 6 6 6 6 6 6 7 7 5 6 19 41 53 57 62 64 50 17 10 10 11 13 20
29 30 30 32 33 33 33 32 30 29 28 27 27 26 25 24 21 17 18 22 22 19 20 19 16 14 14 13 12 11 8 8 7 7 5 5 5 5 6 6 7 27 50 59 60 44 14 10 10 12 22 42 51 54
38 41 43 42 40 37 34 31 27 24 21 20 17 17 17 22 31 32 43 44 41 35 32 32 27 23 22 19 17 17 15 14 11 9 8 7 6 5 6 8 28 54 57 32 12 10 12 20 38 49 54 62 69 73

GFSWCAN_700_rhum_072.txt.gz
RH
5 4 4 3 4 5 5 7 8 9 14 19 19 20 21 20 17 11 9 7 10 11 28 56 77 79 83 80 76 68 80 96 98 98 99 95 93 80 78 78 81 86 90 97 96 97 85 61 70 74 77 83 84 76
4 3 3 4 5 5 7 9 13 15 18 21 22 24 23 21 17 13 8 8 10 22 21 51 66 69 42 45 70 77 68 92 98 96 98 98 90 84 78 79 80 85 77 80 76 69 64 68 65 62 64 92 82 92
4 4 4 5 6 8 12 13 14 15 18 20 23 25 23 16 12 10 8 9 14 27 15 32 64 64 71 53 51 63 72 66 90 97 96 98 96 82 74 70 74 82 83 85 86 70 68 69 72 69 71 82 92 100
4 4 7 8 9 12 12 11 12 12 14 19 25 26 21 14 11 7 8 9 33 68 63 49 64 58 33 44 55 44 32 79 90 95 95 96 98 86 76 68 69 73 79 82 84 79 77 79 75 83 81 77 77 88
8 8 9 9 11 9 8 9 9 12 21 23 26 26 19 14 11 10 12 22 66 93 93 59 52 37 65 77 74 76 52 54 87 99 93 93 95 99 93 78 73 68 67 75 76 77 82 80 79 82 81 81 84 90
9 10 10 8 6 7 5 7 13 22 22 22 28 24 18 15 10 20 40 47 84 95 93 79 30 71 80 84 81 78 51 47 60 93 88 86 87 97 99 91 66 65 66 68 70 80 84 93 90 97 97 90 81 80
20 10 6 5 5 5 10 14 16 21 25 30 27 22 16 7 54 58 58 91 89 94 96 78 43 72 79 83 78 63 69 85 80 54 74 72 90 97 98 88 66 62 66 70 73 76 75 68 83 97 98 99 95 82
6 5 6 12 16 13 21 21 28 31 32 27 19 10 5 11 17 19 98 97 95 97 99 62 58 71 80 89 98 97 82 90 100 93 67 71 93 96 95 79 72 63 67 71 75 77 74 75 73 74 73 71 73 75
7 17 24 27 29 27 29 35 36 32 24 15 7 5 5 9 77 48 83 97 86 96 97 85 67 70 90 96 98 97 91 92 86 67 53 60 75 96 90 85 68 64 68 76 74 73 77 78 73 70 69 66 67 76
38 45 44 37 42 39 41 37 29 22 13 5 4 6 9 23 41 70 98 86 85 100 99 70 76 78 90 96 97 97 96 96 96 73 75 78 79 71 78 86 72 73 80 74 70 74 80 81 83 87 84 80 77 75
59 49 52 62 48 43 38 28 17 8 5 5 10 13 29 52 93 98 93 84 83 83 86 91 96 93 96 96 97 96 96 96 96 93 96 98 76 63 68 72 86 76 63 62 71 76 83 84 89 100 97 91 84 79
62 60 53 50 46 41 23 13 7 5 6 14 22 30 57 84 97 96 94 81 76 85 87 95 95 96 96 97 98 97 97 97 98 90 82 76 74 78 76 76 72 67 67 68 71 79 92 97 98 100 100 100 97 87
87 76 55 47 40 19 11 5 6 9 26 39 50 66 79 92 97 91 79 68 71 78 89 97 97 98 96 98 98 97 99 98 98 98 95 97 95 92 84 78 79 82 83 88 90 87 86 100 100 100 92 86 92 99
93 64 48 30 14 7 5 5 11 34 52 65 75 88 81 91 79 66 64 67 75 85 96 96 92 97 95 97 96 97 98 98 99 96 99 98 96 88 89 88 91 97 96 93 94 95 95 96 96 98 98 98 97 97
64 36 22 9 5 5 10 11 24 53 68 78 83 82 69 68 57 63 74 85 93 96 96 92 89 95 96 96 96 97 97 97 97 98 100 96 90 86 86 98 97 96 96 95 96 96 97 97 96 96 95 95 94 95
22 16 8 5 6 14 13 21 42 70 82 96 91 75 59 58 68 72 81 86 89 89 92 96 97 96 95 97 96 96 96 96 97 95 85 87 87 81 96 92 98 97 96 95 87 86 88 92 96 97 97 94 91 88
8 6 6 16 29 35 23 48 73 92 100 96 76 63 60 62 69 74 84 82 92 90 89 95 96 96 95 96 93 96 96 95 96 87 82 82 100 100 97 91 98 98 97 95 94 95 96 96 95 94 92 90 86 84
4 6 13 37 43 54 36 58 94 93 89 79 68 73 69 71 77 82 86 90 96 92 95 100 96 91 94 96 93 96 95 94 95 89 81 77 75 87 96 96 96 94 95 96 94 89 83 78 78 74 67 62 50 24
4 7 22 47 68 85 56 62 86 97 94 90 92 90 81 75 76 77 79 84 90 93 86 97 96 98 91 84 89 97 96 96 95 95 90 83 80 63 61 60 57 68 77 70 67 63 54 42 27 23 21 18 12 8
7 35 62 73 77 98 88 100 97 96 94 93 89 89 84 84 73 72 81 90 91 76 74 74 76 88 95 96 96 95 98 97 96 96 92 90 89 86 86 88 86 81 74 66 55 42 37 47 34 24 26 26 23 17
66 72 80 82 93 99 100 95 92 91 94 97 90 85 91 77 75 71 79 88 96 82 75 73 73 78 91 99 98 96 96 96 96 95 91 82 82 85 88 90 83 70 57 50 46 36 39 46 39 23 23 26 29 29
92 89 100 100 98 97 96 96 96 94 87 81 75 75 65 64 74 76 76 80 76 73 78 80 84 89 81 81 81 82 82 75 75 72 56 37 34 36 41 44 40 42 39 38 28 26 28 27 22 21 25 30 30 27
96 97 97 97 97 95 96 97 96 94 85 80 74 71 73 79 82 82 82 74 74 77 80 79 78 78 81 79 76 70 59 52 48 45 44 44 45 53 56 54 52 51 30 25 28 42 43 39 38 39 38 33 32 22
96 97 97 96 95 96 91 87 92 90 88 81 78 81 81 85 86 87 84 84 87 90 91 93 92 84 91 96 89 76 69 62 54 50 49 49 51 54 57 63 67 75 73 48 49 65 67 63 49 37 38 45 38 27
98 96 96 95 94 90 84 87 91 91 85 76 69 67 82 87 86 87 90 87 89 87 89 94 96 96 96 96 97 95 95 92 87 85 81 81 84 86 88 89 93 96 91 82 78 77 82 81 72 61 43 34 42 51
94 93 92 97 92 94 94 94 90 74 62 38 32 74 76 71 67 56 52 52 39 32 34 42 46 57 62 65 59 52 49 64 79 89 92 90 87 84 81 77 71 66 64 59 53 51 47 44 46 53 60 60 60 58
81 63 85 89 93 93 94 68 52 29 15 13 12 15 24 22 37 39 23 16 21 27 22 22 21 20 16 14 12 12 10 9 9 10 12 22 37 47 58 68 73 71 69 68 68 67 67 67 67 67 68 72 71 62
52 46 61 83 85 68 38 25 20 20 20 19 20 18 14 13 20 32 21 21 20 19 17 15 14 14 14 12 12 11 11 10 9 8 8 7 7 6 6 6 8 16 30 44 54 60 64 64 63 65 68 70 70 68
52 48 54 60 47 36 27 23 21 20 21 22 22 21 21 20 20 20 20 19 18 16 14 12 12 13 11 10 9 9 8 8 8 8 8 8 9 9 8 8 8 6 5 5 14 34 47 52 56 60 63 66 68 68
46 43 36 30 26 24 23 24 24 24 22 21 21 19 18 19 20 21 19 17 14 13 12 11 10 10 10 9 8 8 7 6 6 6 6 6 6 6 7 7 7 8 7 7 6 7 18 35 51 57 63 67 56 19
28 27 26 25 23 24 22 23 24 24 23 22 20 18 16 12 9 12 13 12 11 11 11 11 11 12 11 11 10 8 8 9 8 9 8 7 6 6 6 5 5 5 5 6 7 6 10 36 56 63 53 21 11 11
32 28 28 27 28 30 30 28 25 19 16 15 12 11 10 10 10 13 22 21 18 14 20 20 24 26 25 23 21 20 18 18 17 15 14 12 11 9 7 6 6 6 5 5 6 9 35 58 49 18 11 13 27 44
36 35 35 34 32 30 26 22 18 14 10 9 9 14 18 30 38 44 47 48 50 49 50 49 46 44 44 43 43 41 37 30 24 20 18 17 16 14 11 9 8 7 6 6 13 43 47 18 12 17 36 48 58 66

GFSWCAN_700_rhum_075.txt.gz
RH
100 47 17 9 8 6 4 4 5 6 6 11 16 17 17 18 20 19 15 13 8 8 10 18 36 50 64 72 63 59 74 73 93 100 97 97 88 81 78 72 74 73 86 98 98 97 86 62 67 74 72 78 88 86
99 54 13 10 9 6 6 5 6 8 9 13 15 16 16 18 20 20 16 11 8 9 11 15 44 54 66 71 69 78 62 82 100 96 100 97 98 90 80 80 74 80 76 75 72 65 60 65 68 69 66 64 92 84
88 20 10 10 10 6 6 6 8 9 12 13 12 14 16 20 22 20 17 13 7 11 12 21 44 52 73 86 93 72 55 67 82 80 94 96 93 98 87 82 69 70 75 80 76 64 63 67 70 73 73 74 90 98
47 12 10 11 7 7 7 9 11 10 11 10 10 15 21 26 23 19 15 8 13 32 52 29 42 61 40 48 53 70 67 54 48 66 84 94 89 97 97 91 75 64 65 75 80 69 69 75 77 81 74 77 75 82
34 12 11 7 6 8 11 12 11 9 7 9 14 19 29 28 21 14 8 13 36 65 84 40 44 59 42 70 96 84 84 91 91 76 72 90 80 94 94 99 89 71 62 65 52 57 67 73 80 74 81 84 83 84
20 10 6 8 11 12 14 14 7 8 10 12 21 30 31 25 14 8 24 51 58 86 83 60 50 53 81 91 80 70 74 93 82 93 67 62 78 95 95 97 86 72 68 66 66 72 74 74 75 84 82 91 84 80
17 22 13 12 13 12 29 8 7 16 17 25 26 34 28 17 8 8 46 78 90 100 96 76 52 65 78 79 88 93 86 79 94 80 61 54 82 98 97 87 97 90 88 72 69 66 67 67 67 71 88 99 99 89
24 13 12 14 31 25 6 9 22 30 32 26 35 30 18 9 5 7 60 86 72 98 96 77 62 58 62 77 96 100 100 98 91 89 95 87 82 67 86 59 80 95 93 74 68 70 70 67 69 73 74 75 77 74
31 12 14 34 27 13 17 31 35 38 30 37 28 16 8 5 7 42 76 72 72 85 100 76 69 74 76 82 89 97 98 100 99 84 74 92 87 95 70 68 75 93 86 75 80 74 71 68 67 70 72 71 69 67
12 33 28 22 22 40 41 40 41 41 41 28 15 7 5 9 14 41 89 85 90 80 71 74 95 94 96 96 94 97 100 96 96 94 85 84 51 27 48 77 93 96 87 84 80 73 71 71 76 77 76 76 76 75
48 48 34 43 44 41 40 48 52 45 31 13 5 6 12 16 30 82 89 84 76 67 69 89 96 97 97 96 97 96 97 95 96 95 76 96 95 71 50 59 80 90 91 88 82 80 73 68 77 82 80 78 82 82
40 52 58 65 54 54 58 66 50 33 11 5 7 13 24 44 82 82 82 75 68 72 78 93 99 96 96 100 99 97 98 97 97 94 96 97 97 96 93 76 76 76 76 83 82 76 69 68 76 95 99 99 100 100
81 88 82 80 78 76 65 49 32 11 5 7 21 38 44 66 79 76 70 59 60 67 82 100 86 93 96 97 96 97 97 97 99 98 97 97 97 98 94 87 78 78 81 82 80 80 86 93 89 94 99 100 100 98
94 94 92 93 94 86 42 23 8 5 11 27 47 54 55 64 60 52 54 62 64 81 92 97 94 85 80 97 97 97 96 96 96 92 97 97 97 94 91 88 89 95 98 98 96 94 96 96 96 98 98 99 100 100
95 96 95 96 92 37 15 6 5 11 25 50 57 57 50 46 54 59 60 69 83 88 89 86 81 85 87 96 97 96 96 96 97 97 97 96 93 94 86 99 97 97 97 96 95 94 96 96 97 99 98 97 96 94
93 92 96 85 25 9 6 5 11 18 48 78 62 49 46 45 47 56 70 76 81 82 81 82 92 98 99 97 97 96 96 96 97 97 91 92 100 93 91 98 97 98 99 99 98 96 94 92 93 94 94 92 90 88
91 87 38 11 7 8 9 21 28 95 81 75 55 53 49 54 60 70 78 79 86 87 94 93 89 97 97 100 93 91 92 95 97 96 92 90 99 100 98 98 97 97 97 96 95 95 94 93 92 92 92 90 87 84
21 9 6 7 9 10 27 43 70 99 94 68 54 62 53 56 66 73 82 89 90 88 92 95 88 79 85 95 93 88 88 94 97 97 95 88 77 90 97 97 97 97 96 95 93 83 70 59 52 42 34 28 25 23
4 5 7 12 21 46 63 80 66 97 96 79 64 62 63 66 79 82 85 91 93 88 91 97 83 83 84 91 96 96 91 92 95 96 95 94 91 71 65 68 66 64 60 60 62 63 55 45 36 39 33 22 22 20
5 10 27 52 91 100 99 98 97 89 74 70 65 75 78 78 81 83 85 90 89 93 94 89 68 68 81 90 96 97 97 94 94 99 97 95 96 99 90 89 89 88 84 78 69 52 41 38 30 36 43 26 26 28
14 28 52 90 100 100 99 100 93 88 76 70 65 69 78 74 78 83 92 86 88 86 79 74 70 72 70 68 74 89 98 94 91 93 94 95 95 94 88 87 85 87 77 57 52 47 41 31 27 36 40 27 22 24
57 77 100 100 98 97 98 95 96 88 80 82 83 77 74 72 77 72 81 90 78 65 69 71 75 80 78 72 66 67 91 95 91 90 81 78 73 57 51 40 37 39 37 42 40 35 30 25 27 28 26 23 27 36
96 100 98 99 98 96 97 95 95 97 96 87 81 81 79 78 80 81 84 72 67 68 68 71 76 77 75 72 69 71 75 78 80 80 76 63 53 48 48 53 56 60 62 66 65 60 33 39 52 55 49 42 38 36
99 99 98 96 96 97 92 88 92 91 87 91 94 93 88 87 88 90 81 73 70 71 75 79 81 83 80 75 82 92 94 89 82 72 62 55 49 46 46 52 53 57 62 67 75 79 71 58 65 71 72 71 65 60
98 97 97 96 96 95 92 92 92 88 94 95 96 90 74 86 87 84 81 80 78 75 71 69 75 86 84 85 90 92 94 94 96 97 95 94 90 84 82 82 84 85 84 85 88 89 91 91 89 85 75 58 44 41
96 94 84 90 91 88 94 85 88 94 96 95 77 62 78 75 63 58 56 53 47 29 20 20 27 26 30 31 25 22 18 16 16 26 36 46 63 84 91 90 82 76 74 70 66 63 60 58 58 59 62 64 64 65
94 91 86 78 85 87 88 94 96 95 91 46 21 60 68 49 27 30 38 23 14 21 18 16 16 16 17 17 15 14 13 12 11 10 10 9 9 8 8 9 14 21 27 39 52 59 64 68 70 70 70 68 68 66
85 77 70 90 95 96 96 95 90 52 20 14 13 15 14 14 14 22 22 24 22 20 18 18 17 16 16 15 13 12 11 11 10 10 10 9 9 9 9 8 8 8 8 8 7 6 7 11 26 42 50 54 59 60
55 52 74 96 96 95 89 44 23 20 20 20 20 20 20 22 22 22 22 21 20 18 16 14 14 13 11 11 10 9 9 8 9 9 9 8 7 8 7 7 7 7 8 8 7 8 7 7 6 7 13 20 32 47
58 65 79 83 79 47 30 23 22 22 24 24 24 22 21 20 18 16 14 13 12 10 10 10 10 9 8 7 6 7 8 7 7 7 6 6 6 8 8 7 7 6 6 6 6 5 5 5 6 6 7 7 25 52
64 59 47 34 26 24 24 24 23 22 22 22 19 16 12 9 7 7 7 7 7 6 7 7 8 9 9 12 12 11 12 13 12 12 11 10 10 11 11 11 10 9 8 7 6 6 6 5 5 6 7 21 51 52
32 27 26 26 26 28 27 27 26 24 19 15 12 10 7 7 9 13 18 20 23 23 24 27 29 32 32 31 31 30 29 29 26 24 23 24 24 21 19 18 16 14 12 10 9 8 7 6 6 7 24 43 25 14
31 31 30 30 30 28 22 16 11 9 6 6 6 10 14 26 32 37 42 42 43 49 56 60 61 58 60 62 62 63 63 62 59 52 47 42 39 36 31 26 21 19 18 16 13 11 9 8 10 30 31 17 29 50

GFSWCAN_700_rhum_078.txt.gz
RH
100 99 100 98 100 74 24 10 11 4 5 6 9 12 10 10 9 13 17 19 17 10 8 10 15 33 52 65 66 71 67 75 80 92 98 92 83 94 86 70 68 70 93 98 99 97 90 61 62 65 62 79 77 84
100 99 100 100 100 89 17 13 11 5 6 7 12 12 10 9 10 13 21 21 15 9 10 17 29 50 58 66 90 88 82 81 77 99 98 93 97 98 97 85 77 77 68 69 72 73 58 61 67 71 74 68 67 86
100 99 100 100 99 30 18 14 10 6 8 11 14 11 9 9 12 16 23 20 11 12 10 16 29 43 52 43 48 62 63 75 72 64 75 93 94 96 97 97 88 76 70 76 75 66 63 65 71 72 74 74 82 98
100 100 98 100 98 57 18 15 8 9 10 16 13 9 9 13 15 16 22 16 12 22 30 11 30 53 52 54 51 86 95 76 68 49 52 83 90 85 92 94 97 94 78 68 70 66 67 71 76 80 79 74 79 76
100 100 100 99 97 45 18 12 10 12 17 13 9 11 13 18 17 20 20 15 14 30 39 14 31 51 80 79 86 86 80 73 70 78 84 84 79 76 79 87 87 94 86 75 60 56 66 66 74 77 74 80 79 80
100 100 99 99 76 21 21 10 12 16 13 8 13 19 25 25 23 24 19 16 14 30 64 32 37 65 58 74 70 90 89 83 81 81 74 75 62 93 89 93 72 78 94 83 78 76 77 71 72 73 78 78 85 86
99 98 98 83 36 21 12 13 16 12 9 20 27 30 29 30 28 22 14 11 12 69 61 41 45 54 58 58 61 82 84 90 94 93 83 90 80 99 98 87 74 83 97 92 83 82 79 74 75 72 78 93 99 96
100 100 98 74 32 14 14 16 13 16 21 29 34 36 36 31 27 12 8 11 42 60 62 62 55 64 70 69 75 81 86 98 96 98 90 94 97 92 79 49 53 87 98 87 88 80 80 79 80 73 73 74 87 89
99 97 92 54 16 15 15 14 17 24 32 33 42 40 37 27 12 8 8 20 43 56 74 60 84 94 90 92 89 86 94 98 99 97 93 98 99 89 45 41 45 67 76 92 85 81 78 78 76 78 72 72 76 75
98 95 60 17 18 20 21 22 38 49 39 40 43 43 30 12 8 8 19 34 56 52 56 64 94 95 89 95 94 97 97 97 97 93 97 82 59 54 48 98 63 67 65 89 85 77 78 80 83 81 76 73 72 72
85 32 34 49 24 23 36 41 50 57 44 43 50 39 14 7 9 19 42 58 61 59 60 74 84 81 81 94 98 98 97 98 96 95 96 95 95 81 50 96 93 83 89 90 82 85 84 80 83 80 80 80 78 79
60 50 24 25 32 38 51 67 78 60 53 57 47 19 6 11 26 39 63 60 56 62 66 75 81 81 75 94 95 98 98 98 96 96 96 96 97 97 86 40 89 71 82 86 90 90 86 86 83 79 77 76 90 99
72 47 43 52 64 76 82 91 79 68 73 48 16 6 10 25 40 44 49 51 53 60 74 84 83 90 83 92 89 97 97 98 99 97 98 97 97 96 97 97 90 80 78 80 78 79 84 86 78 80 92 98 95 99
44 54 68 90 84 84 90 91 87 66 25 11 7 15 23 33 35 38 45 54 60 71 78 81 80 91 86 100 96 97 98 97 98 96 94 96 96 96 96 97 91 87 93 93 96 96 98 98 94 94 95 96 96 98
88 92 86 88 93 94 94 95 73 20 8 9 16 27 30 31 36 47 54 60 69 76 77 71 72 86 100 99 97 97 97 96 97 96 96 92 95 96 96 96 98 97 97 97 95 95 96 96 96 96 96 97 98 98
84 92 95 96 96 96 96 60 15 7 8 21 21 20 30 36 40 47 55 61 74 73 72 72 90 99 98 100 99 97 96 96 96 97 97 94 96 96 95 96 97 97 97 96 96 96 96 96 96 96 96 94 92 92
96 95 94 97 96 88 38 12 8 12 26 28 17 21 39 46 53 52 59 68 69 71 74 87 97 96 96 97 97 97 94 91 94 98 97 92 95 96 96 96 96 96 96 96 96 96 96 96 96 91 78 68 62 57
95 96 95 90 66 34 16 12 24 40 55 31 31 36 52 54 56 59 64 63 68 71 76 93 96 90 85 86 86 93 82 84 89 96 98 95 88 91 95 96 96 96 96 95 94 85 68 61 54 47 41 40 30 22
91 82 45 18 10 9 15 36 47 85 70 72 57 51 56 62 66 65 69 75 76 79 86 92 93 82 70 79 84 92 96 99 99 94 95 99 95 88 78 73 75 78 78 76 71 69 67 53 42 37 27 26 38 26
21 9 7 11 16 40 91 99 80 86 78 77 72 74 67 62 70 78 79 80 82 85 89 83 61 70 76 79 80 80 89 95 98 96 96 99 98 96 94 92 96 96 95 94 91 84 73 62 50 41 28 29 40 29
7 15 74 100 100 99 95 100 97 89 82 85 78 80 81 70 70 74 77 84 84 83 72 63 67 82 92 82 76 71 70 76 95 97 95 95 92 89 90 91 91 80 70 86 84 64 50 44 35 28 26 24 25 24
11 27 73 100 98 99 99 98 98 90 86 83 79 82 84 79 77 74 74 71 64 57 59 64 71 76 88 88 80 74 71 71 72 89 96 91 88 89 77 76 73 57 46 47 44 46 50 62 45 30 39 49 50 46
43 81 95 100 99 95 97 98 99 92 92 89 86 88 81 76 73 71 71 62 59 65 66 65 66 68 72 74 74 75 75 77 78 79 76 75 76 78 80 62 53 50 49 53 49 52 61 63 65 69 57 61 64 66
96 100 100 97 96 97 97 96 88 95 90 86 83 80 80 84 82 82 74 66 68 68 70 74 78 82 84 82 81 81 79 82 87 88 86 84 79 68 61 58 54 52 52 54 61 64 69 76 81 85 79 80 85 87
99 97 97 96 96 96 91 81 86 85 86 78 85 89 91 83 82 83 77 72 69 63 61 67 73 75 81 88 83 83 89 85 79 80 81 91 96 99 98 95 92 87 85 87 90 90 90 84 80 78 72 62 54 50
94 96 92 96 96 85 85 86 87 86 78 84 91 91 87 88 88 70 70 62 56 36 20 17 17 18 27 29 19 18 16 15 14 13 16 19 12 9 14 27 55 68 81 85 82 75 72 72 70 69 69 69 68 68
94 92 85 80 84 82 84 80 80 87 92 96 92 85 68 76 54 45 48 48 33 15 21 20 18 18 19 19 19 15 15 13 12 11 11 11 10 10 9 8 8 8 8 8 8 8 9 10 12 15 19 26 36 42
90 86 78 81 84 84 94 95 98 100 100 93 68 34 40 24 14 28 33 32 21 15 18 19 20 20 18 16 15 15 15 14 13 12 11 11 10 10 10 9 8 8 8 8 8 8 8 8 8 8 7 7 7 7
84 76 77 71 82 99 100 100 98 85 49 22 15 16 17 18 20 21 22 22 22 22 21 20 17 14 12 11 10 9 9 8 7 7 6 6 7 9 8 7 7 7 7 7 7 6 6 6 6 5 5 5 5 6
70 63 59 79 98 99 94 88 38 25 22 22 22 22 23 24 24 22 17 12 10 8 7 7 7 7 7 7 8 9 10 8 8 8 7 7 8 9 9 9 9 9 9 8 8 7 8 7 6 7 6 6 5 5
63 68 85 92 93 71 39 30 25 24 24 24 23 22 19 15 13 10 8 7 6 6 6 7 8 9 11 12 12 12 15 19 18 18 16 14 13 13 13 12 14 16 16 16 14 13 12 11 10 9 8 7 6 6
64 67 64 43 28 27 27 27 26 26 25 24 20 16 12 8 6 7 7 10 14 18 21 24 26 29 32 33 36 37 37 42 50 49 46 43 43 40 34 34 30 25 23 22 21 19 17 16 15 13 11 8 7 10
43 30 29 32 32 31 29 26 18 12 8 6 5 5 7 8 8 12 20 25 27 35 44 48 48 48 49 52 54 55 56 56 59 67 75 78 78 78 68 59 53 47 41 36 31 27 23 21 20 17 13 9 12 24

GFSWCAN_700_rhum_081.txt.gz
RH
92 91 98 98 100 100 100 99 53 38 14 5 6 7 7 9 9 7 7 13 18 18 13 15 14 13 26 38 37 48 58 73 68 90 99 96 97 97 97 90 74 66 93 97 100 98 89 65 62 63 55 63 79 73
96 96 100 100 100 100 100 99 91 33 18 6 6 7 8 10 8 7 11 17 19 20 18 18 12 14 25 39 38 46 50 59 75 79 98 97 93 94 97 96 91 92 72 69 63 59 57 61 61 66 69 74 68 71
91 99 100 100 100 100 100 100 97 47 20 8 6 8 11 11 7 13 20 20 21 21 16 17 9 18 31 45 45 53 70 73 70 67 55 64 67 80 92 94 96 97 96 84 71 60 64 66 65 68 72 74 77 89
87 95 100 99 100 100 100 100 97 29 21 8 8 11 14 9 13 24 28 25 24 21 14 11 12 30 58 68 77 79 81 73 69 73 69 72 63 69 70 78 83 96 95 90 78 68 65 67 70 75 77 74 74 77
87 97 100 100 100 99 100 99 73 37 17 8 11 17 11 12 29 34 35 28 26 20 12 12 20 58 62 55 73 68 75 81 80 78 78 76 76 80 71 71 55 69 83 92 86 81 79 67 73 72 73 73 78 81
86 98 100 99 100 100 100 99 87 40 11 10 18 13 13 32 37 35 31 30 24 15 10 18 29 45 52 57 54 59 61 84 91 92 90 84 82 89 63 93 42 50 69 87 84 96 88 82 79 73 76 80 86 88
86 96 100 99 100 99 99 98 64 26 11 17 16 14 40 50 48 35 35 29 14 9 10 24 38 53 68 76 75 75 81 83 94 99 89 93 95 97 95 79 48 100 99 93 95 96 87 84 81 77 74 89 94 98
86 100 99 100 99 98 97 92 51 15 16 17 14 35 50 55 46 43 30 17 9 10 22 31 46 68 82 86 77 80 83 80 84 88 81 84 100 97 89 54 44 70 96 89 96 91 90 87 79 85 79 74 84 97
96 100 99 99 99 99 94 70 26 25 18 15 32 45 57 52 46 33 16 9 8 17 32 40 76 76 72 73 74 74 85 86 88 81 85 96 94 90 88 72 59 46 63 91 97 93 95 88 82 85 83 79 76 77
98 99 98 98 98 97 77 59 39 17 19 37 50 81 64 48 39 30 10 7 14 27 43 52 83 75 70 70 81 90 96 92 94 84 98 94 78 97 88 40 77 78 82 90 96 98 97 94 86 83 83 81 82 81
99 99 99 98 98 94 72 40 18 29 43 50 62 74 50 50 38 10 8 17 33 39 53 64 64 64 67 66 78 98 97 96 97 92 97 97 92 97 55 70 75 95 83 80 83 94 95 96 95 88 86 83 80 81
99 99 98 98 73 70 37 20 34 43 55 52 82 65 62 41 14 11 24 34 33 46 59 62 64 69 67 64 84 99 99 99 92 98 96 95 97 97 85 76 91 99 100 99 97 99 98 98 98 96 93 87 85 79
98 98 97 94 73 33 34 43 56 56 50 82 93 87 50 18 13 20 26 30 39 51 54 62 63 64 80 97 100 99 99 98 99 97 96 97 96 96 96 95 59 94 92 86 92 91 90 93 86 79 77 81 77 92
97 96 81 44 50 62 64 61 63 69 93 94 88 28 10 13 17 22 26 34 46 56 60 59 58 65 76 100 100 98 96 99 96 97 95 96 95 98 98 96 97 90 90 91 91 95 96 97 97 97 100 96 95 95
69 66 74 70 68 71 79 74 85 95 95 83 17 9 9 13 18 22 29 43 52 62 63 61 60 68 98 96 99 97 98 96 97 96 97 95 96 98 97 96 96 97 98 96 96 97 99 97 97 97 97 97 96 96
70 77 91 86 91 87 93 96 94 94 97 17 7 9 16 21 24 29 40 52 55 65 66 65 66 93 99 100 99 96 97 95 94 88 91 93 94 97 96 96 96 96 97 96 96 97 97 96 96 96 96 96 95 94
94 95 96 89 93 96 96 89 92 89 14 8 7 6 11 16 29 37 42 54 51 66 72 73 71 100 99 99 96 93 95 90 80 82 81 92 95 96 96 96 96 97 97 96 96 96 96 95 86 70 59 52 45 39
91 91 94 96 94 91 94 92 51 20 15 11 10 13 22 33 45 49 50 56 64 66 67 79 80 74 78 84 83 89 93 79 73 81 78 78 90 97 94 96 96 96 96 96 94 81 66 63 54 40 34 29 24 28
96 96 95 95 98 97 91 70 43 17 17 14 13 22 32 40 45 54 57 61 66 70 79 86 83 65 54 61 70 75 78 87 89 90 92 90 85 97 98 94 92 95 94 94 90 86 82 66 49 47 41 30 26 36
96 96 95 85 68 60 25 26 34 28 32 30 30 47 56 57 57 55 66 70 72 84 87 87 62 60 70 77 76 77 87 81 76 83 95 95 96 95 96 98 98 96 96 96 97 96 94 77 57 47 37 29 25 24
95 86 44 32 18 28 41 62 60 61 70 63 67 69 67 63 64 63 64 76 86 66 60 58 65 72 79 76 74 83 81 81 78 71 69 85 95 93 94 95 95 94 91 90 70 51 50 50 45 56 41 29 40 48
26 29 49 84 100 100 85 83 82 77 71 73 74 77 75 74 77 76 82 84 68 55 62 63 63 62 63 68 68 70 80 79 77 76 74 69 68 81 93 91 86 91 93 88 76 54 57 62 58 64 69 68 57 54
47 89 99 100 99 96 95 88 93 88 88 80 76 76 77 79 78 76 78 64 60 65 69 65 64 62 63 63 65 68 74 80 83 80 78 76 75 73 72 72 72 75 83 90 74 53 56 54 54 60 68 77 77 72
30 76 100 100 98 97 91 93 88 93 89 86 85 86 83 84 80 81 74 67 70 64 64 66 67 69 70 70 70 75 79 80 83 86 87 89 88 88 88 91 88 82 79 83 85 72 66 73 79 84 88 91 91 90
87 98 95 96 97 100 97 93 87 91 92 89 82 78 86 84 93 87 76 75 65 60 58 61 67 73 76 76 79 82 85 83 72 45 29 30 26 21 31 52 76 92 96 96 96 96 94 91 83 72 67 65 63 62
94 96 94 98 99 94 95 95 88 79 74 78 84 88 87 87 92 81 73 64 35 20 18 14 16 31 43 38 39 34 24 21 17 13 14 13 14 12 11 11 11 11 10 17 24 42 57 62 62 60 57 50 45 41
94 95 91 85 82 78 82 82 82 79 76 88 90 94 96 88 73 64 52 49 34 14 13 19 19 19 19 18 18 16 15 15 14 14 13 13 13 12 12 11 10 10 10 9 9 9 9 8 9 8 8 8 7 7
85 79 72 72 75 75 84 86 92 96 94 92 94 94 88 68 33 23 30 41 45 36 17 14 17 21 22 21 20 18 16 15 13 12 11 10 10 10 10 9 9 9 9 9 8 8 8 7 7 7 6 6 6 5
83 77 81 81 81 82 86 86 86 84 87 90 90 79 44 28 17 17 23 23 22 22 23 23 21 18 16 15 13 11 10 8 8 8 8 8 8 8 8 9 8 8 8 8 8 8 7 7 7 6 6 6 6 6
80 77 75 74 72 73 79 86 88 95 89 61 29 24 22 22 23 24 24 23 18 13 11 9 8 7 7 7 8 9 11 11 11 11 9 10 11 11 9 9 9 9 10 10 10 10 9 10 10 10 10 10 9 8
80 74 69 66 79 94 97 95 64 40 29 26 25 24 24 24 22 19 15 12 9 7 6 6 6 7 8 11 14 16 24 31 33 34 33 33 36 39 39 36 33 30 27 26 24 21 17 15 14 14 15 14 13 12
72 68 87 94 94 75 56 45 33 26 25 24 24 25 23 18 10 7 6 6 6 8 9 15 22 32 39 43 44 40 41 45 44 37 32 34 35 42 50 57 63 65 62 55 47 40 35 30 26 24 22 20 18 16
77 84 78 48 31 30 29 31 28 26 24 18 12 7 5 5 6 6 6 7 9 16 29 42 48 51 53 55 54 52 42 33 26 25 26 29 34 49 66 75 91 95 91 84 73 61 52 45 38 33 29 25 23 20

GFSWCAN_700_rhum_084.txt.gz
RH
100 99 99 100 100 100 100 100 99 100 72 40 12 5 7 8 7 6 8 7 18 22 23 22 16 8 9 21 33 41 48 52 60 81 84 92 97 96 97 90 96 96 97 98 99 96 79 58 66 68 63 57 57 64
100 99 100 99 100 99 99 100 100 100 93 24 11 6 7 8 7 6 9 12 24 27 28 27 12 8 15 32 35 41 58 56 53 56 58 69 87 85 89 92 97 98 95 96 86 79 57 57 61 60 66 70 73 67
100 100 98 99 100 100 100 100 100 99 86 38 27 13 6 8 7 8 9 25 29 29 31 19 11 9 24 47 54 60 62 66 64 63 63 56 48 51 78 97 83 95 98 95 79 64 60 63 68 66 66 75 72 75
100 100 100 98 99 100 100 100 100 100 99 90 42 10 7 7 8 10 14 32 31 32 28 17 10 14 39 55 63 65 62 66 70 71 70 69 74 76 63 56 52 65 91 97 88 71 71 71 72 74 74 73 75 73
100 99 99 98 99 100 100 100 100 100 99 74 36 13 7 9 10 11 29 34 28 37 27 14 12 25 38 44 45 54 61 57 75 78 79 82 82 89 84 79 55 38 44 80 98 94 87 77 77 82 77 76 76 76
100 100 100 95 100 99 100 100 100 99 98 74 29 10 8 13 13 31 25 24 30 42 23 9 14 27 48 63 67 59 62 72 79 84 89 86 88 98 96 81 50 57 43 49 73 88 87 86 86 84 79 80 82 86
100 97 94 100 100 100 100 100 100 99 96 47 17 11 16 15 42 30 30 42 42 24 12 11 23 43 66 71 78 73 76 78 83 88 79 81 91 97 94 77 68 64 90 93 73 79 90 97 91 88 83 79 92 94
100 98 100 100 100 100 100 100 99 97 92 58 13 15 17 43 46 31 38 47 36 17 10 16 27 48 74 64 59 66 71 73 80 82 74 80 89 96 86 93 84 60 90 99 100 98 97 94 92 91 84 80 81 96
98 99 100 100 100 100 99 98 98 97 84 25 18 19 31 54 36 40 45 46 36 14 11 21 34 58 68 62 60 66 75 82 80 72 76 84 82 94 97 99 87 74 76 96 97 100 96 96 97 90 90 86 86 86
99 99 100 99 99 99 99 98 96 93 53 37 19 25 48 54 54 51 45 42 16 15 23 31 56 64 59 58 58 73 86 89 88 76 84 83 80 97 97 89 51 51 63 85 86 87 99 97 97 93 94 92 89 90
99 99 100 100 99 99 98 97 95 91 55 24 38 47 49 54 83 55 47 14 16 25 36 45 47 47 54 57 57 76 87 90 90 87 95 92 91 98 97 84 78 45 56 68 72 98 99 97 96 92 89 95 96 95
99 100 100 99 99 99 98 98 96 57 46 52 56 57 47 91 66 50 23 14 18 24 32 43 39 46 47 53 70 86 95 97 90 96 98 91 95 96 96 96 91 76 74 94 94 94 93 96 96 96 96 97 97 96
99 99 99 99 98 98 97 90 81 84 40 59 63 55 93 76 37 9 13 18 16 20 31 38 48 49 53 65 74 88 95 100 96 98 95 92 98 94 96 97 93 88 94 95 97 97 98 97 97 99 98 95 92 83
99 99 100 99 98 97 95 91 53 44 62 59 63 93 83 29 15 13 13 16 18 26 35 46 51 49 53 65 85 97 98 100 97 97 93 93 90 85 90 96 96 91 70 91 80 83 86 89 94 92 98 99 100 100
99 98 98 98 96 95 81 61 53 69 61 78 92 78 64 26 12 16 17 18 25 34 46 50 50 50 58 80 93 98 99 96 96 94 85 86 88 83 86 93 96 96 97 94 96 97 96 97 97 96 97 97 97 97
99 98 97 94 89 70 60 70 83 76 94 95 82 22 13 14 13 17 23 26 34 37 44 49 53 54 78 96 99 91 99 93 94 80 78 79 84 85 89 91 95 96 96 96 97 96 98 97 97 97 97 96 96 95
97 93 79 74 78 88 92 83 91 96 96 94 63 18 14 18 22 21 25 36 40 46 45 55 57 63 84 93 89 87 88 93 86 81 69 74 78 84 91 93 95 96 96 96 96 96 97 96 82 63 51 45 39 36
96 94 94 94 92 89 95 96 96 96 92 64 22 14 9 10 13 22 34 40 48 45 48 61 64 62 64 68 64 68 80 94 91 73 72 74 87 83 97 92 94 96 96 96 96 94 84 74 71 54 49 42 32 25
93 92 92 94 96 96 96 96 95 67 44 46 33 20 18 24 29 33 46 53 54 54 58 58 64 58 54 53 64 67 71 72 76 81 89 89 94 95 97 100 96 95 96 95 95 94 93 93 87 70 60 44 34 25
95 96 96 96 95 94 96 81 84 52 82 60 22 18 21 32 39 44 46 55 62 62 63 52 34 42 56 72 80 76 76 76 77 81 81 73 79 96 97 98 98 97 96 96 96 96 94 87 89 69 58 46 30 30
97 97 95 88 88 84 63 54 76 64 29 27 33 38 50 59 64 68 66 64 66 57 40 34 40 53 67 72 79 78 79 79 76 77 83 76 73 70 76 84 92 92 91 94 94 92 90 88 61 50 54 63 66 61
82 88 89 91 84 68 56 58 59 60 56 58 60 66 69 69 69 69 71 71 60 49 58 63 62 63 59 58 60 59 61 66 75 81 87 81 75 74 72 70 68 68 74 79 79 84 91 89 83 83 76 62 61 65
95 95 95 88 83 72 82 69 70 69 66 70 71 73 70 68 72 74 74 62 53 54 58 50 51 56 57 59 62 64 67 74 76 79 85 82 78 78 80 81 79 77 75 72 70 73 79 86 80 65 63 60 61 71
67 100 99 96 90 96 88 84 84 84 84 80 78 76 76 72 67 66 59 51 58 52 54 54 58 63 65 66 68 71 69 74 80 79 81 85 84 83 80 79 77 82 86 90 90 86 87 90 91 91 88 89 90 90
98 96 94 89 93 97 98 92 83 84 75 81 82 82 74 69 70 64 54 55 64 60 54 54 62 70 75 74 76 78 82 88 90 86 62 41 28 21 16 13 12 12 16 33 52 69 81 90 92 93 91 88 83 74
81 86 74 94 94 88 94 90 89 79 74 76 83 73 72 82 80 72 63 67 54 26 27 22 24 35 35 31 32 40 52 46 34 20 16 15 15 14 13 12 12 13 11 10 10 9 9 9 10 13 16 21 24 23
95 96 92 88 86 83 86 84 80 81 83 90 80 75 77 82 72 69 66 66 47 20 12 16 18 19 21 21 21 20 20 20 19 18 18 16 16 16 14 14 13 12 12 11 11 10 10 9 9 9 9 9 9 8
91 81 73 76 72 74 76 72 74 81 89 89 84 79 80 79 70 61 51 56 60 52 44 29 19 20 23 26 26 22 18 15 12 11 10 10 10 9 9 8 8 9 9 9 8 8 8 9 8 8 8 8 7 6
70 70 73 72 69 68 68 72 73 72 74 75 79 82 91 85 78 31 29 41 41 39 34 30 29 26 22 16 12 10 8 7 7 7 7 8 10 12 10 9 9 9 9 9 9 8 9 9 9 9 8 8 8 8
64 67 69 70 72 75 74 74 72 73 79 89 91 89 90 79 33 23 23 24 24 22 19 15 12 10 9 7 7 8 8 9 10 12 12 17 22 24 26 26 25 24 22 22 23 22 19 14 12 14 14 13 12 11
69 73 74 73 70 66 67 70 82 89 92 90 70 39 31 27 25 24 23 20 18 15 11 7 6 6 6 7 10 13 19 22 28 33 34 36 41 43 39 32 29 29 32 36 42 46 45 41 35 27 23 21 19 18
75 83 79 72 72 83 86 92 77 47 33 29 27 26 25 24 23 22 14 9 7 6 6 6 6 7 10 14 19 24 35 46 52 51 50 46 39 32 28 28 32 29 29 30 38 46 68 75 68 51 40 34 30 26
84 84 77 91 88 80 67 51 37 28 28 29 29 29 27 20 9 7 6 7 8 10 11 12 13 15 24 34 44 52 58 58 60 60 56 46 40 41 49 64 77 80 74 62 64 75 95 99 91 70 54 45 39 33

GFSWCAN_700_rhum_087.txt.gz
RH
83 89 98 99 100 98 99 100 100 100 46 28 22 24 6 7 20 7 7 6 8 16 25 29 26 13 9 12 20 25 43 45 46 72 82 96 100 99 88 94 92 95 96 97 98 98 73 67 64 72 74 65 61 58
77 94 98 99 100 98 99 100 100 100 90 55 45 9 6 8 8 8 8 6 9 25 28 26 24 16 8 17 24 31 48 53 51 52 52 49 90 81 96 77 79 97 97 94 91 81 70 67 69 60 63 69 71 73
54 94 97 99 99 97 99 99 100 100 100 88 27 15 19 9 9 8 7 7 19 30 27 27 25 16 10 22 38 51 57 60 59 64 62 60 57 54 80 78 80 82 91 98 94 71 74 68 67 69 71 70 74 76
36 97 98 99 100 100 99 99 100 100 100 99 72 26 11 7 9 9 7 8 20 30 29 34 27 14 15 28 35 50 59 58 54 62 69 72 74 77 82 85 66 69 81 80 87 82 79 72 77 76 76 73 77 79
51 95 98 99 100 100 100 99 100 100 100 100 94 44 30 20 10 9 8 10 31 30 35 35 25 15 21 34 48 45 45 48 50 64 71 76 78 81 83 77 54 64 68 84 80 96 94 91 81 77 80 78 78 77
66 96 98 99 99 99 100 100 100 100 100 100 99 74 62 17 9 10 12 12 27 31 38 24 17 15 28 52 62 65 64 64 68 74 76 71 81 89 93 96 65 71 78 76 77 95 89 86 88 79 81 82 83 83
91 97 98 100 99 99 100 100 100 100 100 100 99 94 28 10 10 14 14 16 32 32 40 16 15 23 42 54 56 58 60 65 64 69 70 75 84 94 95 85 85 92 86 71 52 50 74 94 88 86 87 84 80 85
96 98 99 100 99 99 99 99 100 99 100 99 98 82 31 11 14 22 20 32 34 39 36 10 16 27 48 56 53 54 62 59 64 77 74 77 88 94 85 97 97 98 98 71 85 87 71 84 94 92 90 84 82 87
98 98 99 100 100 99 99 99 100 100 99 98 97 62 13 16 26 33 28 29 42 47 31 10 16 32 50 52 50 52 60 68 75 77 78 83 81 90 97 100 98 71 87 58 79 91 98 84 98 98 94 88 88 88
99 99 98 99 100 99 99 99 100 99 99 98 87 42 25 29 36 35 38 54 52 44 18 13 22 34 41 48 51 56 73 82 92 80 83 82 72 87 100 100 94 66 62 62 82 94 99 98 98 99 95 88 89 90
99 100 99 99 99 99 99 99 99 99 98 96 78 40 32 43 43 40 74 53 25 17 16 22 30 33 43 44 54 62 75 79 91 87 94 88 74 95 95 98 94 79 46 65 86 89 96 96 99 98 93 91 92 91
100 99 95 99 99 99 98 99 99 98 96 93 63 46 40 46 69 90 55 28 15 17 20 28 32 36 40 45 57 68 79 89 93 96 98 83 84 95 89 90 93 88 65 59 71 83 94 97 98 98 97 96 95 96
99 98 99 100 99 99 100 99 98 98 96 90 70 50 64 80 92 70 34 17 14 12 17 25 33 38 42 51 58 67 83 100 96 100 90 84 89 84 82 85 93 93 88 81 85 95 97 97 97 97 97 97 99 100
99 99 99 99 99 100 98 97 97 95 93 71 84 89 74 92 86 65 17 12 11 11 19 30 41 41 39 46 62 90 96 99 97 95 98 85 76 80 77 80 88 95 92 79 98 96 96 89 93 96 99 98 100 99
100 99 100 99 100 99 98 97 96 89 77 92 92 88 82 84 47 20 16 13 12 17 27 42 42 40 43 60 69 90 99 99 96 98 81 72 69 71 73 80 88 93 98 99 94 93 98 98 98 97 97 96 96 96
99 99 98 98 99 98 97 97 89 94 96 95 90 91 90 91 45 16 16 15 19 24 34 45 39 43 48 61 80 79 97 90 93 78 72 69 62 63 68 80 89 91 93 98 96 97 97 96 97 99 98 97 97 96
98 98 98 98 97 96 96 96 97 97 93 90 91 91 61 36 33 18 16 19 26 32 35 39 38 45 57 69 70 74 71 66 82 85 84 81 67 59 66 76 86 95 94 96 96 96 96 96 95 82 60 48 40 34
99 98 98 96 96 95 96 95 96 94 96 94 93 94 57 17 18 18 18 23 31 37 42 44 44 47 49 52 48 50 62 65 74 90 94 84 68 64 62 74 80 92 96 96 96 95 95 94 87 67 54 51 45 37
98 97 96 95 95 93 96 97 96 95 93 93 93 83 37 20 15 18 26 33 43 49 57 53 46 39 38 41 52 56 59 62 55 59 69 83 83 80 84 90 90 90 95 96 96 97 97 96 95 87 83 66 54 40
96 94 95 94 94 96 96 96 96 95 94 81 58 27 19 20 24 29 36 45 51 55 53 46 25 28 43 54 59 56 63 66 62 62 68 71 74 76 72 70 83 93 94 95 96 96 96 96 95 94 70 65 52 57
95 94 94 96 96 96 96 94 94 88 61 54 54 48 31 26 28 36 43 49 52 43 33 33 39 42 50 58 56 50 55 62 65 67 71 78 85 88 79 71 66 66 70 79 87 90 90 94 93 92 94 89 82 70
95 96 96 96 96 96 94 92 91 89 73 65 57 35 38 47 55 61 64 66 54 49 56 56 54 52 50 50 51 53 59 61 63 67 68 73 81 88 88 81 74 72 70 68 67 68 74 78 81 90 92 88 86 91
95 96 96 95 95 93 88 81 81 67 64 59 60 64 65 64 65 70 72 65 56 54 53 47 45 44 46 51 56 60 60 60 61 65 71 76 80 82 81 80 77 78 79 77 76 79 76 72 71 74 81 85 86 79
95 95 95 93 93 90 77 81 68 55 58 62 69 67 65 65 66 66 59 50 54 50 48 46 48 51 54 58 60 63 65 68 68 70 79 80 80 83 83 68 44 31 30 40 54 69 83 89 90 91 91 94 97 96
93 94 96 92 86 82 82 70 60 60 64 66 71 72 68 67 64 62 54 52 51 56 52 48 49 56 64 67 67 69 71 73 73 78 78 81 70 34 24 20 16 13 12 12 12 11 11 12 16 27 54 75 85 90
96 86 77 74 83 85 79 76 70 65 67 77 78 74 64 70 73 62 52 56 62 46 30 32 46 46 38 31 32 40 49 58 62 60 38 24 20 18 16 14 14 16 15 14 13 13 12 12 11 10 10 9 9 9
92 85 65 60 72 63 66 66 64 70 75 77 74 74 80 74 62 58 60 66 69 43 14 13 15 17 18 20 22 23 23 22 22 23 22 21 20 18 16 15 14 13 12 11 11 11 11 11 10 10 10 9 9 8
76 74 67 68 70 68 70 71 80 86 86 83 79 77 76 70 64 62 63 60 65 60 38 21 15 16 16 18 23 27 26 21 17 15 14 14 11 9 8 8 8 7 7 7 7 7 8 8 8 8 8 8 8 8
75 68 71 72 74 73 72 72 71 70 69 71 74 79 83 77 77 74 55 28 36 56 60 55 46 34 28 26 21 14 11 10 8 8 8 9 11 12 13 13 14 14 13 13 14 13 13 13 13 12 11 10 9 9
67 72 71 73 75 75 70 69 70 75 76 80 83 82 82 84 86 81 71 32 28 26 25 25 23 19 15 13 11 8 7 8 10 11 12 16 21 26 25 24 24 24 24 26 30 35 35 33 35 35 37 31 22 17
76 71 70 74 75 75 74 73 71 69 70 74 80 82 82 77 66 33 23 23 24 24 22 19 17 12 7 6 6 8 10 14 17 20 22 27 33 40 45 49 50 48 44 40 34 30 26 26 25 25 30 45 53 42
76 76 75 77 74 69 68 70 76 80 84 87 79 54 31 24 24 24 24 24 23 17 12 8 6 6 8 10 12 16 24 30 33 38 43 46 50 53 54 51 46 41 40 42 47 54 61 67 58 41 34 36 56 67
75 78 82 82 75 74 82 80 60 37 31 29 28 28 28 28 28 30 30 19 10 7 6 7 10 15 22 27 31 35 42 48 53 54 52 40 30 31 38 56 68 76 79 82 86 89 91 93 91 75 67 66 84 91

GFSWCAN_700_rhum_090.txt.gz
RH
42 46 55 64 87 94 99 98 98 99 99 100 99 60 69 13 10 8 16 16 9 7 9 20 26 23 20 13 11 22 30 44 41 43 54 92 99 93 79 91 98 97 93 95 99 95 89 69 68 68 80 79 70 64
36 39 46 60 95 96 98 100 100 99 99 100 99 83 54 21 12 8 22 21 9 8 14 26 24 25 24 13 13 22 31 46 48 47 50 48 56 72 84 82 92 87 95 100 95 92 90 76 75 65 72 71 74 74
30 39 45 70 72 96 98 99 99 99 100 100 99 75 33 50 11 10 29 16 10 9 21 21 25 30 26 13 13 25 45 54 57 58 59 61 58 62 71 78 73 71 80 93 91 90 94 90 81 72 66 71 72 77
22 31 36 67 88 98 98 98 99 98 99 98 58 31 40 37 11 14 13 17 18 15 22 22 30 28 26 14 18 32 45 56 59 54 55 59 64 67 70 71 69 64 65 64 69 77 84 91 93 77 73 74 73 76
20 29 34 66 89 98 99 95 98 99 99 97 45 66 68 13 12 14 12 24 11 16 28 26 25 29 20 15 29 45 42 43 48 48 58 63 61 67 66 66 58 68 70 70 83 91 91 100 95 84 76 72 74 77
23 36 31 52 94 96 99 99 99 99 99 99 96 54 15 13 26 20 19 21 12 17 26 31 31 25 15 18 37 53 55 60 63 64 63 62 64 73 70 65 69 72 75 78 73 72 82 90 98 89 87 87 82 82
24 28 42 85 97 96 99 99 99 99 99 99 92 51 40 30 29 24 16 11 12 22 30 35 30 19 16 26 43 48 50 54 57 58 61 67 72 77 75 76 94 98 97 97 97 88 69 74 95 99 90 88 86 83
24 25 64 97 98 98 99 99 99 99 99 98 98 92 75 72 31 22 12 12 24 34 33 36 23 16 22 34 45 47 50 55 58 64 66 70 76 79 77 94 93 96 97 91 93 88 66 54 76 96 98 91 91 84
24 30 66 88 98 98 98 99 99 99 99 99 99 99 94 85 27 12 13 19 37 34 39 43 20 18 27 36 47 48 50 65 66 69 70 72 72 72 87 92 100 100 80 52 68 64 75 77 70 87 97 98 92 85
41 99 100 96 98 99 99 98 99 99 99 99 99 98 77 30 16 20 31 41 41 35 36 50 30 18 25 37 45 48 57 77 76 74 72 72 63 75 92 98 97 94 50 57 51 78 78 97 85 90 98 99 92 89
80 95 98 98 99 99 98 99 98 99 99 98 97 96 80 32 25 44 73 46 47 38 38 43 20 22 30 31 37 47 59 73 82 89 88 84 68 82 84 87 88 88 67 62 84 92 94 97 95 93 98 96 94 92
100 97 97 98 99 98 99 98 98 98 98 99 97 90 42 31 58 82 72 66 49 24 15 16 18 22 34 38 45 54 66 79 95 93 96 78 76 77 76 79 80 87 85 63 54 73 91 85 95 97 97 98 99 97
100 97 97 98 99 98 99 100 99 100 99 98 95 87 86 86 90 88 69 48 27 16 12 13 21 32 37 45 49 55 69 99 95 99 88 80 84 70 72 76 78 84 86 82 69 69 79 92 96 99 99 98 97 98
98 97 98 98 98 99 99 98 99 98 98 96 94 94 89 75 81 80 80 61 21 9 12 20 31 36 36 41 48 60 84 98 98 92 86 80 70 63 64 71 75 81 85 82 78 86 83 94 96 96 96 96 97 95
98 98 98 98 98 99 99 99 98 98 97 95 94 88 81 87 90 93 89 33 13 12 14 22 34 36 36 46 51 82 94 98 89 87 84 75 64 61 57 64 72 78 80 83 90 91 86 91 96 96 97 98 97 97
98 98 98 98 98 98 98 98 98 97 97 94 95 92 79 90 94 64 57 31 14 15 21 33 36 37 40 42 61 76 99 89 70 78 79 71 74 75 65 56 62 74 81 82 83 89 92 96 98 98 97 96 97 97
98 97 98 98 98 98 98 98 97 96 95 95 95 95 96 96 96 39 17 19 18 20 25 34 32 36 44 47 56 70 49 48 63 78 86 84 80 84 80 62 58 72 82 84 86 86 92 96 96 94 89 66 50 42
98 98 98 98 98 97 97 97 95 95 96 93 93 95 96 89 91 64 19 22 22 24 29 32 33 35 35 42 38 37 45 51 57 54 51 52 55 60 67 70 74 84 94 93 92 93 92 94 95 95 93 78 61 53
98 98 98 98 98 97 96 97 96 95 94 87 95 96 96 48 20 30 26 25 28 39 38 39 34 26 27 31 38 46 52 53 56 59 62 60 59 61 72 78 76 84 93 100 98 97 96 94 94 94 97 93 72 56
97 98 98 97 97 98 94 95 94 94 95 94 95 95 94 68 26 22 23 32 35 38 39 36 20 24 35 42 46 53 58 55 52 56 58 65 66 65 65 68 70 69 68 75 84 89 93 96 95 93 94 95 94 78
97 97 96 96 96 94 94 93 94 94 94 92 95 95 85 55 28 21 22 31 32 24 22 26 34 42 44 46 47 48 49 50 53 52 55 61 68 72 72 75 80 77 72 68 67 66 65 68 78 80 80 87 89 88
96 96 96 96 95 94 94 94 95 94 92 86 74 41 35 32 30 30 36 35 29 30 39 45 45 43 42 43 44 48 55 59 61 62 62 62 66 72 79 81 86 84 78 76 74 72 72 70 69 69 71 76 81 88
95 95 95 95 95 95 95 95 96 94 84 77 64 60 55 43 42 46 48 39 39 47 52 49 46 45 44 44 45 47 50 53 57 60 60 64 70 76 81 85 82 83 85 78 73 77 81 84 84 82 79 76 76 82
96 96 96 95 95 92 91 92 91 92 68 60 68 62 58 58 54 56 48 42 45 45 43 42 42 42 44 46 50 52 55 59 63 65 68 70 78 82 84 85 82 43 18 15 14 13 13 14 20 31 44 61 77 86
96 96 95 95 93 88 86 87 83 66 64 66 69 66 60 56 60 61 52 40 42 46 43 44 46 46 51 58 62 62 65 69 71 72 77 81 86 89 73 29 23 22 18 14 13 13 13 12 12 12 11 10 9 10
94 94 92 92 91 89 85 92 86 59 59 63 61 64 62 66 63 54 44 42 47 50 49 37 52 58 50 34 27 27 39 50 50 54 48 38 31 24 21 20 20 20 18 17 16 15 14 14 14 14 13 12 11 11
94 90 86 85 91 92 91 86 74 64 65 66 64 64 62 62 60 50 47 52 58 62 38 14 17 17 19 20 21 22 24 25 25 25 24 22 22 19 17 14 12 11 10 9 8 8 8 8 7 8 8 8 8 8
94 92 92 94 95 95 77 59 59 64 65 65 63 65 66 65 60 53 55 59 63 70 61 25 15 16 16 20 24 27 28 27 22 15 12 11 10 8 8 7 7 7 7 7 7 8 9 9 9 9 8 8 8 8
92 92 79 77 78 72 73 70 70 69 66 65 63 68 71 63 63 66 67 62 48 51 66 70 66 60 58 46 31 25 19 14 12 9 8 8 8 8 8 9 10 10 10 10 13 14 16 17 20 23 25 28 29 27
93 77 72 73 77 72 62 57 59 61 63 65 64 66 68 68 72 76 76 78 52 41 46 39 30 25 23 20 16 14 10 7 6 6 6 7 8 9 10 12 16 22 27 32 36 44 47 46 46 45 42 40 35 30
77 75 74 74 72 70 71 70 67 68 67 66 65 66 68 72 75 80 81 63 35 24 24 24 23 20 16 11 8 7 7 8 8 9 9 11 15 20 26 32 35 38 42 44 42 40 40 42 44 43 40 38 37 33
80 75 63 64 67 72 70 68 65 62 60 60 63 69 75 76 66 62 37 25 24 25 24 20 15 10 8 8 8 10 12 14 16 17 18 21 26 36 43 44 38 31 29 32 47 58 66 68 70 75 77 76 75 73
72 81 76 73 73 68 66 66 65 69 71 76 71 59 35 26 25 25 27 30 29 25 15 9 8 9 13 16 18 20 22 24 27 32 40 45 43 33 27 34 49 62 68 71 76 80 84 89 90 93 96 99 100 99

GFSWCAN_700_rhum_093.txt.gz
RH
27 34 41 43 45 52 58 53 51 90 99 98 99 98 82 23 19 19 14 14 15 13 8 8 12 24 22 26 23 16 17 26 35 36 38 45 49 64 78 95 92 96 96 97 95 94 92 81 79 73 79 81 78 70
33 36 36 34 35 41 91 98 42 83 99 99 99 99 57 22 25 23 36 15 20 17 9 9 18 23 25 27 22 13 16 27 39 42 43 46 49 50 55 75 98 96 92 96 98 96 95 96 94 95 91 87 78 67
40 34 37 31 30 35 96 96 54 95 99 99 99 99 46 40 62 23 52 15 16 14 10 9 14 23 26 25 25 13 19 36 46 50 52 54 54 58 65 72 64 68 66 64 64 86 92 96 98 95 89 75 72 73
49 26 33 28 32 39 91 86 89 99 99 98 99 99 96 86 87 40 24 16 18 15 10 12 19 26 25 27 20 14 23 34 47 52 49 49 60 60 62 64 64 63 68 65 65 57 59 76 93 98 86 75 72 74
52 22 30 33 36 73 94 98 96 98 98 98 99 98 97 96 59 14 15 19 19 15 20 18 22 23 27 29 17 18 32 36 42 51 44 56 54 60 60 60 57 64 68 70 71 71 66 61 91 99 96 84 77 76
38 21 27 30 45 100 91 97 97 98 98 98 99 99 96 50 17 16 21 20 18 18 18 21 22 28 31 26 17 23 39 50 52 55 53 51 52 63 60 59 65 77 83 87 91 93 93 78 75 96 100 96 89 95
33 18 28 27 85 100 98 94 98 99 98 99 98 96 93 59 17 19 21 17 18 24 15 22 27 28 29 22 22 28 39 41 46 48 47 50 58 66 64 64 83 94 97 98 100 97 91 91 84 74 95 97 96 94
36 19 27 31 68 87 78 94 98 98 98 98 97 58 63 32 18 19 23 24 19 35 24 26 28 31 30 19 28 34 40 43 44 52 53 55 62 66 62 75 85 91 94 83 63 71 88 89 78 65 88 98 97 94
24 24 32 39 59 68 77 97 98 98 98 98 97 93 95 23 19 24 26 27 21 19 33 33 33 29 29 21 28 38 42 47 53 58 59 61 62 59 67 73 76 89 88 59 40 54 73 76 66 60 66 96 97 97
22 28 32 82 98 83 95 98 97 98 98 98 97 85 27 26 39 36 24 20 20 26 29 39 35 35 34 20 30 40 47 56 63 66 65 63 56 65 67 66 69 83 86 69 70 78 78 90 98 91 87 92 98 98
25 31 86 100 99 96 98 98 98 98 98 98 96 80 81 77 70 37 22 26 37 41 42 44 41 39 42 23 28 39 49 64 76 83 78 72 64 67 62 64 67 72 83 65 77 86 93 97 100 82 85 88 100 99
33 50 99 100 98 98 99 99 95 97 98 93 94 95 96 86 32 36 61 72 55 45 34 36 45 46 31 22 29 44 56 63 92 89 84 66 67 63 57 61 64 68 77 86 66 67 84 89 86 86 87 93 97 98
44 98 100 100 90 98 100 100 98 99 98 98 96 95 92 81 66 86 88 69 58 38 30 24 39 28 25 29 36 49 61 88 89 93 79 60 74 58 54 54 58 66 70 79 83 63 69 79 83 82 82 89 96 96
98 100 100 98 95 98 99 100 99 98 98 97 95 91 90 92 89 81 74 60 47 29 15 18 26 23 26 34 41 49 80 96 100 97 68 75 65 58 59 56 51 58 68 71 79 82 79 84 91 92 91 94 96 96
98 99 98 97 97 97 98 99 98 99 98 96 94 94 95 81 77 85 89 92 47 13 14 18 24 23 29 33 38 59 92 99 87 62 64 77 68 68 72 67 59 51 57 68 75 85 93 90 93 96 95 92 93 92
99 97 98 98 99 97 97 98 98 98 97 96 96 96 91 90 95 97 97 69 17 11 19 23 27 27 30 28 43 78 94 70 55 60 78 81 74 77 73 71 73 62 51 64 77 83 84 90 95 98 98 98 96 94
98 96 96 97 96 97 98 98 98 98 96 96 96 95 93 97 97 97 96 66 17 16 17 22 24 25 27 30 42 45 37 47 53 50 67 77 65 53 49 49 53 56 58 69 79 88 89 92 98 97 96 96 84 55
98 94 96 96 97 98 98 98 96 96 96 91 94 97 97 97 96 55 23 32 22 17 19 21 21 19 21 26 26 31 41 44 43 47 52 51 53 54 51 53 66 77 85 91 92 94 96 97 96 96 96 96 95 79
83 91 96 96 97 99 97 97 96 95 94 95 96 97 96 96 96 59 22 22 23 27 24 23 21 20 19 20 25 32 38 44 47 46 47 46 48 56 58 60 60 70 75 75 88 96 98 99 99 98 96 96 96 97
97 98 97 97 97 97 96 96 96 94 96 96 96 96 96 94 77 87 52 30 30 30 32 24 19 22 26 28 32 36 43 47 49 49 45 47 51 50 55 66 67 67 75 75 73 70 70 79 89 92 96 96 95 95
97 97 98 98 97 98 93 96 93 95 96 95 95 96 96 80 30 23 29 31 32 19 14 16 24 30 32 36 36 36 35 35 38 42 44 47 50 57 64 71 76 74 79 83 82 78 74 72 72 72 72 80 88 93
97 97 98 97 97 95 96 95 95 95 94 94 96 96 95 95 84 40 33 28 19 16 24 31 38 38 34 36 39 43 46 47 50 51 51 50 52 59 67 74 82 81 86 88 86 83 82 81 81 83 81 77 75 74
97 97 96 97 96 95 96 96 96 95 95 96 96 96 87 62 47 40 34 28 26 34 36 33 37 42 45 47 45 43 43 43 44 46 50 54 59 62 68 77 87 90 91 88 68 41 33 34 34 45 62 77 84 85
97 97 96 95 96 95 94 95 94 95 94 90 82 58 52 48 46 46 44 42 46 40 35 39 43 43 41 40 40 40 40 44 48 51 54 59 65 68 73 83 87 90 76 28 18 16 15 14 13 13 13 12 11 11
96 95 95 95 94 93 94 94 95 95 89 80 73 71 68 65 54 47 43 42 39 34 35 41 42 41 41 42 43 46 49 52 57 61 63 65 73 77 81 86 75 35 25 22 18 16 16 16 16 16 15 15 14 13
94 95 94 94 90 94 93 93 90 88 79 69 71 66 60 54 54 49 40 37 36 36 42 45 41 41 48 54 46 38 34 35 27 24 24 19 24 22 23 21 20 20 18 17 16 14 12 10 9 9 9 9 9 10
95 91 85 84 88 83 82 84 84 80 67 66 57 56 58 53 50 46 43 43 45 49 54 36 30 32 21 19 22 23 23 24 26 26 26 24 21 18 16 14 12 10 8 7 7 6 6 7 7 7 7 7 7 7
92 85 84 86 89 90 92 94 95 90 66 57 57 58 55 51 49 45 46 50 54 61 65 38 16 17 19 18 15 19 21 24 26 25 18 14 12 10 9 8 7 7 7 7 7 7 7 7 8 9 10 11 14 14
92 92 94 95 96 97 97 96 83 73 66 62 55 56 58 57 58 56 59 60 58 58 60 69 64 38 25 26 44 47 32 24 18 15 11 8 7 7 7 7 8 8 9 11 15 16 18 20 23 26 29 30 33 36
93 93 95 91 90 86 73 64 61 60 59 61 63 62 65 68 67 67 69 68 68 66 37 37 49 56 52 41 27 22 19 15 10 8 8 9 10 11 11 13 17 20 24 28 36 45 48 46 45 42 40 37 37 40
93 94 80 75 76 69 62 57 55 54 55 59 60 61 62 64 64 64 65 69 77 76 43 28 24 24 25 24 19 14 10 9 10 10 12 15 19 22 26 34 39 42 43 42 36 34 33 36 42 45 49 53 56 54
94 83 72 71 72 70 68 65 65 64 63 64 63 60 59 61 63 66 71 67 42 26 24 24 25 23 21 15 9 8 9 12 17 21 25 31 40 46 47 42 34 31 38 55 66 71 72 72 73 74 74 76 78 79
95 80 69 63 60 63 67 70 67 62 61 59 59 60 62 67 61 46 40 28 26 30 31 24 15 9 8 10 14 17 22 27 35 42 41 35 28 24 26 39 58 68 71 74 77 80 83 85 82 78 78 79 83 91

GFSWCAN_700_rhum_096.txt.gz
RH
78 69 24 26 40 36 46 58 62 53 82 97 99 99 99 99 92 41 27 47 54 53 31 22 10 9 18 20 26 24 20 15 25 32 32 34 43 55 72 89 92 86 91 94 94 94 88 82 81 77 85 99 88 77
79 76 24 26 35 37 42 46 48 49 48 97 98 99 99 99 72 32 28 27 48 39 17 10 8 8 20 20 26 24 20 16 28 36 36 40 45 46 45 64 88 96 93 95 97 89 90 90 90 90 91 90 96 82
78 72 35 24 28 34 36 37 34 34 46 50 97 99 99 99 79 32 31 23 26 16 16 12 10 14 16 23 23 27 19 17 31 40 44 42 41 45 50 51 57 80 74 88 73 65 68 79 94 97 96 100 90 80
76 68 41 24 27 30 32 30 45 32 54 74 97 99 99 99 72 24 28 43 46 17 18 14 11 12 18 20 27 28 15 20 31 46 48 44 43 46 50 52 55 60 62 61 64 64 62 66 63 73 92 97 90 80
77 66 38 24 27 30 27 27 54 95 57 62 98 99 100 98 53 27 62 50 47 18 21 15 14 17 19 22 29 27 15 27 32 47 48 44 47 52 50 53 49 57 63 69 78 82 82 82 90 98 100 98 96 82
75 69 34 26 33 34 27 24 67 100 55 75 99 98 98 98 68 52 86 75 57 19 21 27 24 23 22 26 28 28 20 30 41 39 41 48 48 52 53 52 53 62 73 81 89 97 91 86 95 94 78 85 98 98
97 75 26 28 39 84 70 54 100 93 89 99 99 98 98 87 52 70 86 50 22 21 21 28 23 21 20 24 30 24 23 31 37 43 45 46 48 54 53 53 55 70 81 93 96 89 80 93 98 93 82 68 95 97
100 71 22 30 49 100 73 90 100 99 99 98 97 98 98 97 95 97 48 22 20 19 21 29 24 30 32 30 22 21 27 31 33 42 44 45 50 54 52 52 60 67 75 75 60 44 42 73 86 88 80 64 82 99
98 46 20 35 68 100 93 100 96 98 97 97 98 98 98 98 97 49 24 21 20 21 33 33 37 29 34 34 27 24 32 31 35 41 49 52 54 49 52 54 57 63 65 69 66 58 54 66 69 82 74 67 93 98
84 33 22 36 89 100 99 97 98 96 95 98 98 97 97 64 32 24 29 26 24 25 26 28 26 26 33 34 20 27 35 36 47 50 51 54 44 55 54 52 51 56 63 77 63 82 66 70 85 70 60 65 90 97
59 27 27 38 96 99 99 90 96 96 97 98 97 95 88 78 32 30 28 32 32 35 32 26 28 33 37 41 29 27 32 39 51 57 58 55 46 56 54 50 50 54 63 72 76 73 89 96 99 91 84 87 89 97
44 24 36 49 98 99 86 95 95 94 96 92 94 95 94 38 34 35 39 36 32 29 32 32 31 33 36 42 35 29 33 41 64 69 67 53 51 60 51 49 48 48 57 64 74 71 66 88 88 91 93 92 93 93
29 36 76 78 100 95 87 98 100 99 96 96 95 90 65 50 57 56 44 40 39 47 41 43 46 51 48 47 25 30 42 57 64 80 61 45 60 58 52 52 49 46 46 58 67 76 60 67 83 88 92 95 99 100
56 97 98 99 99 99 98 98 97 96 98 96 94 92 84 71 54 52 58 59 58 60 44 36 46 54 42 26 29 36 59 67 99 97 40 44 59 56 57 60 59 54 49 46 61 69 79 73 69 87 94 98 100 100
95 98 98 100 98 97 98 98 98 97 97 95 90 81 82 78 74 66 77 72 62 39 22 29 51 29 21 29 29 40 64 82 65 34 35 48 60 60 64 68 53 54 63 55 51 69 74 82 90 93 97 97 96 97
99 96 99 97 97 97 97 97 97 97 97 96 90 83 74 77 75 76 83 68 52 28 21 36 30 26 24 21 28 30 49 28 28 31 34 53 64 69 68 45 40 43 47 54 58 72 82 84 87 92 95 95 95 96
98 98 96 97 97 97 97 97 98 98 96 95 86 80 82 80 88 98 98 85 43 16 24 21 22 18 19 18 24 22 18 20 24 29 33 44 59 54 44 44 42 44 53 63 75 87 90 89 89 91 96 95 95 95
98 97 97 97 97 96 97 97 97 97 97 92 86 91 97 98 98 97 97 56 20 19 23 19 15 15 11 16 14 14 16 20 25 28 34 42 46 45 47 50 50 50 52 63 76 87 93 93 94 98 96 96 96 95
95 96 97 96 97 97 98 97 97 95 91 88 93 96 97 97 96 96 95 75 25 25 26 23 15 12 12 14 13 15 18 21 26 31 40 44 44 44 46 45 50 55 56 56 63 72 74 83 92 95 96 96 96 96
95 97 97 97 97 96 96 97 96 94 96 97 96 97 97 96 96 94 72 47 34 30 29 26 17 15 15 16 16 17 19 21 26 34 42 49 50 44 45 46 47 55 62 62 64 71 76 75 71 68 70 77 86 94
96 97 97 97 97 95 95 98 94 96 96 96 96 97 96 96 96 93 56 30 36 32 22 18 22 21 19 17 18 21 23 25 29 33 39 44 47 52 56 56 59 65 67 69 71 76 84 83 81 80 78 77 81 87
97 96 96 97 98 96 96 94 95 96 95 95 96 96 96 95 95 88 81 55 33 23 20 22 24 22 22 23 23 26 32 38 42 45 47 47 49 53 56 60 66 69 74 77 84 86 84 80 74 73 77 83 88 89
97 97 97 98 96 96 96 95 95 95 96 97 96 96 96 96 87 62 38 31 28 21 21 22 24 28 28 29 35 40 42 44 44 43 42 43 49 54 60 65 68 72 78 85 86 78 30 16 15 14 14 13 14 17
97 96 96 96 96 94 94 96 94 96 95 95 96 96 95 96 95 96 75 64 41 31 28 33 35 33 33 37 39 40 40 40 39 41 46 51 56 60 67 70 73 78 84 87 74 24 18 17 16 15 15 15 15 14
96 96 96 96 95 93 94 95 96 96 94 95 95 95 89 82 50 43 39 38 41 45 40 32 28 30 36 38 39 38 39 42 46 51 54 55 58 65 68 72 77 80 69 40 26 23 20 17 16 16 15 14 13 12
95 96 95 96 96 95 95 96 96 96 96 96 95 89 76 65 64 56 56 46 40 38 34 32 32 37 38 39 44 46 40 35 25 14 16 17 19 19 19 19 20 20 19 18 16 14 11 8 7 7 7 7 7 7
96 93 89 80 87 85 92 96 95 95 95 94 89 79 69 55 48 44 41 39 36 35 34 35 38 38 40 46 30 20 22 24 24 25 26 26 26 22 17 15 14 13 10 8 7 6 6 7 8 8 8 9 10 9
94 87 84 84 89 93 92 93 95 95 93 83 77 72 51 47 44 41 39 38 36 37 43 49 36 28 20 19 20 18 14 19 24 24 26 25 20 16 13 10 8 7 7 7 8 8 8 9 10 12 14 15 20 24
93 93 93 94 94 94 94 95 94 91 84 69 59 52 50 48 44 39 40 43 46 50 53 58 49 30 18 17 17 18 27 44 42 27 22 18 13 10 9 10 10 10 10 12 15 16 18 21 26 29 31 32 34 38
91 92 94 95 95 94 91 93 95 94 93 83 68 60 54 53 54 56 55 54 57 56 57 51 51 59 64 65 62 52 37 26 22 18 13 12 12 12 10 12 15 19 20 23 31 40 41 39 38 35 34 34 36 36
94 95 96 95 95 95 94 95 92 69 59 59 59 64 62 60 60 61 59 60 60 62 65 52 34 31 27 25 25 24 20 16 14 12 10 10 12 17 24 30 32 33 31 28 28 33 44 60 69 72 73 74 76 76
95 96 95 95 95 82 70 67 66 59 55 55 57 57 59 61 62 60 60 59 63 68 72 59 28 24 25 26 21 12 9 8 8 11 17 26 39 46 44 34 27 30 46 66 71 72 74 75 73 73 73 73 75 76
96 96 96 90 84 76 68 67 64 66 65 64 64 63 61 58 57 55 60 60 55 32 25 28 31 26 14 9 8 9 13 21 30 36 43 48 46 31 28 47 64 69 72 69 70 75 65 59 64 71 77 82 84 85

GFSWCAN_700_rhum_099.txt.gz
RH
48 65 77 73 68 16 31 48 52 72 76 96 98 97 97 98 97 91 41 32 42 48 49 32 11 11 13 17 17 20 23 19 13 26 32 32 39 43 55 71 77 80 95 98 95 98 81 72 77 86 79 97 98 91
60 69 72 70 74 17 27 43 44 64 61 84 97 96 98 99 99 69 40 31 49 72 65 52 15 10 11 14 16 21 23 24 13 25 33 36 38 40 44 51 72 85 78 87 92 82 82 78 83 84 88 91 91 84
69 67 63 68 72 21 25 42 40 44 47 67 98 98 98 98 98 68 39 29 66 75 65 68 18 11 10 16 20 21 28 22 13 23 36 40 38 38 44 46 52 69 79 84 69 57 58 59 54 60 68 88 97 88
73 57 54 64 67 24 22 41 37 36 37 53 97 98 98 98 98 68 31 38 79 58 58 28 15 13 18 17 15 21 30 19 13 26 40 45 43 41 42 46 46 53 57 57 57 60 64 65 69 68 63 63 80 97
54 39 36 64 68 40 19 39 30 31 29 33 49 98 98 99 99 67 27 50 61 36 36 26 18 14 16 19 19 21 28 22 16 26 36 44 43 44 44 46 39 45 50 56 63 68 76 81 89 95 91 82 82 69
48 82 87 100 75 56 17 36 28 28 50 74 68 96 97 99 98 52 41 49 55 44 24 25 23 22 20 22 21 19 26 24 20 31 32 36 36 45 45 44 42 48 54 61 68 74 75 72 79 85 95 91 84 75
69 98 100 100 98 62 22 32 28 47 76 99 64 96 98 98 98 58 43 64 77 59 72 22 23 24 24 24 24 25 29 21 22 31 34 39 42 45 42 40 45 48 53 61 69 68 59 43 48 61 66 83 80 77
71 94 100 98 98 40 35 31 43 81 90 100 100 96 98 98 98 86 51 54 90 88 42 22 23 26 31 31 31 30 25 20 21 31 33 36 40 41 41 41 45 45 48 60 73 63 62 49 62 71 80 92 83 72
90 100 99 96 71 35 84 99 100 100 99 100 97 98 98 98 97 96 93 83 92 92 46 24 25 26 32 35 35 35 25 23 22 29 36 42 42 38 41 43 43 42 47 51 67 62 65 48 57 64 88 77 64 62
97 100 96 90 41 93 99 98 98 100 100 100 100 98 98 98 97 95 91 87 97 78 25 26 27 27 29 35 29 26 23 26 32 37 39 43 30 36 42 45 45 43 47 52 61 67 71 68 64 65 69 70 69 91
96 95 95 39 77 98 98 98 97 100 100 100 98 96 96 97 97 96 91 66 39 27 26 24 27 29 28 30 37 34 22 27 33 45 48 40 26 29 40 48 44 40 42 48 59 72 66 79 84 68 75 89 95 93
96 96 39 33 94 98 98 97 97 99 99 96 95 94 97 97 89 68 47 39 32 29 30 24 22 27 30 31 37 38 31 22 42 51 46 32 22 30 42 46 43 41 42 42 53 63 72 60 80 81 77 74 76 83
89 34 31 58 97 98 96 98 100 100 100 98 97 95 94 85 72 58 42 33 32 32 28 29 39 41 38 33 37 40 19 39 43 51 37 22 26 34 46 49 47 46 43 44 44 54 64 66 55 75 79 79 84 93
29 30 36 90 96 92 97 99 100 99 96 96 94 93 86 74 56 43 36 33 32 30 42 37 33 44 43 41 39 21 33 42 66 65 19 18 29 45 50 51 52 45 40 49 52 45 51 64 74 66 69 82 89 91
36 36 95 97 98 97 98 99 99 99 98 96 88 76 65 58 56 43 42 35 34 42 47 49 50 52 50 39 30 24 39 57 41 20 16 21 35 46 52 53 46 35 35 38 46 50 49 60 70 76 85 90 91 93
34 67 96 98 97 97 98 97 96 97 97 95 93 86 66 66 67 58 54 53 50 52 44 48 53 38 33 21 22 20 33 17 15 17 19 25 38 47 48 41 35 36 36 39 45 47 52 67 79 83 85 88 93 98
77 81 95 96 97 97 97 97 97 98 96 93 81 79 78 73 80 65 72 72 70 56 34 42 30 16 16 14 19 17 11 10 14 15 19 22 29 36 37 36 38 41 41 42 47 57 64 78 89 89 88 88 90 92
96 96 96 96 94 96 96 96 97 96 96 88 91 86 78 76 77 81 86 65 55 35 32 25 21 14 11 12 10 9 9 12 16 18 19 23 31 34 37 36 36 42 46 48 50 52 61 70 79 88 89 90 94 96
96 97 96 97 96 96 97 97 97 96 92 90 92 98 96 93 99 98 98 93 71 35 29 21 14 12 11 10 10 10 12 13 15 18 20 27 35 38 40 37 34 39 41 45 54 58 60 64 67 72 74 80 86 93
97 96 97 97 97 97 96 97 97 90 88 96 97 97 98 98 98 98 98 78 29 28 31 23 15 12 11 12 12 12 14 15 16 19 25 31 38 42 42 38 42 45 47 54 60 65 66 67 71 78 78 76 74 72
94 96 96 96 97 96 96 96 92 87 92 96 97 98 97 97 97 95 95 87 39 33 27 22 21 18 16 13 13 14 15 17 20 22 27 31 36 39 43 46 48 53 58 65 71 74 76 80 81 81 80 78 80 82
94 95 96 97 97 96 95 93 89 96 96 95 97 97 97 97 96 94 92 87 73 49 38 28 24 21 17 15 17 21 23 24 26 30 35 39 41 42 43 46 50 57 63 69 74 78 84 85 69 37 25 19 19 20
97 97 97 97 96 96 96 95 95 95 96 97 97 97 97 96 95 96 95 88 73 46 28 26 24 22 16 17 25 28 28 28 34 34 35 38 40 41 45 49 53 59 65 70 78 86 89 60 21 18 18 17 16 16
96 98 96 96 95 93 94 96 95 95 95 96 97 96 96 96 96 95 88 72 54 43 37 29 23 17 21 30 31 30 33 32 31 33 35 39 41 44 48 52 58 63 69 75 80 84 79 26 19 20 18 17 17 17
96 96 93 96 94 94 95 95 96 96 94 95 96 95 95 96 96 93 83 72 75 64 41 32 28 31 36 34 31 31 31 33 34 38 42 42 37 30 33 36 43 50 53 52 47 36 27 24 21 19 17 14 10 8
95 96 95 94 90 92 95 97 96 95 96 96 96 96 96 95 92 77 68 55 44 38 37 42 41 34 28 27 31 36 38 38 35 25 15 16 21 24 25 24 22 19 18 17 16 16 15 12 9 8 7 7 7 7
96 95 92 92 94 92 94 95 94 95 96 95 94 94 94 92 79 64 59 55 56 47 41 37 32 28 30 35 40 42 27 19 21 22 22 22 23 25 25 23 19 16 14 10 9 8 7 7 7 8 8 9 10 10
94 90 85 90 94 95 95 94 96 96 96 93 92 88 86 74 53 48 43 40 39 37 36 33 32 37 37 37 34 23 21 19 14 15 20 24 28 24 21 18 15 12 10 10 10 11 11 12 13 16 18 21 29 34
92 92 92 95 96 96 96 96 94 91 90 90 90 87 80 63 47 43 38 35 35 31 34 39 42 41 31 21 19 19 19 17 16 27 41 32 23 18 15 15 14 11 10 12 15 20 25 30 33 33 32 33 33 34
94 95 96 96 95 95 94 95 96 96 96 95 94 86 71 52 46 40 35 36 38 42 46 49 52 53 47 38 34 37 46 45 35 26 22 19 17 14 9 8 10 16 24 35 39 34 30 31 38 49 58 64 69 70
95 95 95 95 95 96 95 95 95 94 95 95 88 69 59 56 53 50 49 50 51 54 55 56 56 50 42 36 32 26 25 24 23 20 12 8 8 14 21 30 39 40 32 31 44 59 67 69 69 70 71 65 61 59
95 95 95 96 96 96 96 96 96 92 83 84 80 73 64 59 60 61 59 57 58 58 58 60 61 41 27 23 24 28 27 17 6 6 13 22 30 37 40 30 25 39 58 63 65 62 60 67 65 57 62 69 70 73
96 96 95 97 96 96 96 94 94 85 72 68 67 61 60 60 64 57 59 58 57 55 61 64 54 33 30 30 24 10 6 10 20 28 33 39 39 28 27 46 57 59 61 60 58 59 56 62 69 70 68 69 73 80

GFSWCAN_700_rhum_102.txt.gz
RH
35 14 21 34 48 68 66 33 34 48 64 57 97 98 99 98 96 97 79 53 43 37 19 14 18 12 14 19 17 17 20 24 21 17 27 28 32 45 51 57 59 63 77 98 100 97 76 63 76 87 93 91 91 98
21 15 23 36 63 65 64 33 28 45 62 59 96 99 99 95 94 98 62 40 35 48 34 46 52 12 16 20 16 18 18 26 20 12 23 29 31 36 40 44 55 69 57 73 72 70 64 52 54 56 58 74 91 97
16 18 22 45 63 59 63 32 26 47 58 60 95 98 98 98 98 98 62 38 52 72 57 40 24 17 13 17 18 20 18 28 25 14 20 32 33 34 35 39 41 51 60 64 62 53 55 59 60 59 59 62 62 69
26 28 40 57 57 52 60 38 24 45 49 54 96 100 96 97 100 100 78 42 67 92 86 72 69 58 15 13 16 17 19 25 26 15 25 32 34 36 34 35 39 44 48 49 48 54 59 65 74 80 84 82 74 69
57 62 58 41 31 39 48 45 22 41 45 47 92 99 97 97 97 95 79 49 60 79 73 58 51 31 15 15 15 18 21 23 28 19 24 33 36 38 34 38 31 35 40 46 50 54 63 74 83 86 75 92 98 84
64 31 25 26 22 54 52 50 22 39 44 44 92 96 96 97 97 98 90 47 51 72 59 37 45 29 23 14 18 21 20 20 28 21 25 28 31 38 38 34 31 36 43 44 49 49 58 62 57 44 45 50 59 83
34 54 64 67 73 98 100 62 23 37 50 75 80 86 97 98 98 98 81 55 67 70 53 28 30 45 25 21 22 24 26 28 30 22 20 27 33 40 37 28 28 34 39 39 39 42 57 62 48 56 64 61 73 77
82 82 76 87 98 93 94 77 28 37 86 100 96 84 98 98 98 99 96 57 76 60 66 50 35 25 24 26 28 31 31 27 24 22 20 25 30 34 29 24 29 35 36 36 37 44 59 62 44 56 64 70 79 76
81 96 100 100 97 87 94 68 31 44 100 99 100 100 97 98 98 98 96 65 52 75 88 79 40 26 26 27 31 34 32 30 27 21 24 24 30 25 24 30 34 37 36 34 39 44 56 60 48 55 60 65 55 60
71 96 98 97 92 90 95 38 32 86 98 99 100 100 100 98 98 97 96 88 71 95 96 71 55 39 28 32 32 35 30 20 24 24 25 26 15 20 27 32 35 39 38 34 35 42 54 56 65 59 57 66 65 59
80 96 96 96 90 95 69 30 60 97 98 99 98 99 98 98 97 96 96 96 96 96 92 80 52 28 27 30 34 32 32 21 23 28 27 30 13 13 21 31 38 41 39 35 35 38 46 57 63 71 59 67 75 73
90 94 96 95 96 73 29 34 94 96 97 98 98 99 100 98 96 95 96 94 90 80 66 70 75 40 28 30 29 31 35 36 23 30 30 19 11 12 20 30 39 42 40 37 36 37 42 55 54 63 69 65 73 72
87 91 96 96 58 42 57 83 99 98 98 100 100 100 95 94 96 92 93 72 54 47 48 47 50 52 32 26 30 32 33 25 25 26 20 12 10 12 21 34 41 42 40 35 31 37 39 44 57 63 57 68 73 71
89 95 82 43 94 98 99 97 98 98 98 99 92 88 84 79 73 71 66 61 54 47 39 32 25 29 30 33 34 34 37 30 27 27 11 11 11 15 26 35 41 40 36 27 27 32 40 44 46 57 71 76 72 76
89 60 67 98 100 96 95 97 97 98 96 94 85 78 76 68 63 58 56 55 50 40 35 32 31 36 43 41 39 36 22 25 20 11 10 9 11 20 30 35 38 36 26 25 27 32 37 41 44 56 69 76 79 84
82 64 94 100 100 97 97 98 96 97 97 92 94 80 70 65 55 54 54 51 44 38 35 44 45 47 46 41 36 29 23 11 9 9 9 9 13 23 31 36 35 27 27 30 32 35 40 45 51 59 67 76 80 82
56 74 96 98 97 96 97 97 97 97 96 96 88 78 67 59 58 66 49 42 39 36 39 50 48 41 39 37 19 15 12 8 7 8 9 10 16 24 30 32 29 26 29 35 38 40 42 45 50 55 70 82 88 90
58 85 83 96 95 96 97 96 96 96 97 96 83 79 75 71 79 81 52 54 46 41 49 46 34 27 15 14 15 18 10 8 9 10 10 12 16 22 28 31 28 27 27 30 36 38 45 47 47 50 58 67 79 91
79 97 96 90 95 97 97 97 96 96 98 88 78 86 91 91 93 88 68 73 70 52 51 44 31 19 12 9 8 8 8 10 11 10 12 15 19 24 31 34 35 32 32 33 35 38 44 48 50 54 60 68 74 76
85 93 97 98 97 96 96 97 97 93 86 82 92 96 96 97 96 97 94 69 67 60 45 34 20 12 12 10 9 8 9 10 11 13 16 19 23 27 31 35 37 37 42 45 47 48 50 54 60 67 74 76 80 81
97 95 95 95 96 97 97 97 93 94 89 96 96 96 97 97 96 98 95 87 75 56 47 39 20 12 10 10 10 11 11 12 14 16 21 23 27 30 34 37 41 44 45 47 50 53 58 65 73 78 78 74 62 48
94 95 95 96 97 96 96 88 85 95 94 94 96 97 97 96 97 97 97 94 86 66 50 34 24 20 18 14 11 12 16 20 24 26 27 29 34 38 39 41 42 43 45 51 54 58 65 72 80 83 51 19 17 16
95 95 96 96 94 94 96 96 95 95 96 97 96 97 97 96 96 97 96 92 86 74 46 31 26 24 21 17 13 14 20 27 28 29 32 32 33 34 38 39 41 44 48 55 60 65 71 80 83 78 32 18 18 19
97 98 96 96 96 94 95 96 94 94 95 96 96 96 96 96 96 96 88 80 87 89 63 47 42 36 27 20 15 18 27 30 32 31 28 28 30 33 36 41 45 47 50 55 60 67 72 77 81 60 25 22 23 22
96 96 96 96 95 94 94 95 96 96 93 94 96 96 95 96 96 94 85 87 90 67 59 51 42 29 25 19 20 30 34 33 27 25 27 32 34 34 24 19 19 20 22 22 23 23 22 22 22 22 20 16 12 10
94 96 92 94 87 90 88 90 94 96 96 96 96 96 96 96 96 94 85 95 84 73 72 49 28 25 26 29 35 34 28 25 27 33 32 23 15 18 22 22 24 23 21 20 18 16 14 12 12 11 11 11 11 9
96 94 82 85 79 75 80 87 87 92 96 95 95 96 96 96 94 80 71 64 61 54 53 46 38 38 40 37 31 28 28 33 30 20 20 20 17 14 14 18 22 21 22 21 18 14 11 11 12 13 15 19 24 24
95 90 85 84 84 88 91 91 90 95 96 95 96 96 96 88 74 69 74 64 54 52 52 51 47 41 34 28 28 34 37 28 21 20 16 14 16 26 30 29 25 20 18 16 14 12 13 17 23 31 34 34 34 35
91 81 88 96 96 95 95 94 92 91 88 92 96 96 93 84 74 64 51 44 44 42 39 37 34 30 30 32 35 33 23 20 19 17 20 34 34 26 21 21 18 10 7 11 20 30 35 33 32 36 44 55 64 68
90 91 93 95 95 95 94 89 90 91 95 96 95 92 89 86 77 57 43 39 39 39 34 30 33 37 39 34 26 24 23 28 41 37 26 23 23 21 12 6 8 18 28 32 28 31 45 57 62 63 60 58 53 50
93 92 92 91 92 92 93 95 95 95 95 95 95 95 95 89 64 46 37 32 32 35 38 42 46 48 51 52 52 50 38 27 23 24 25 20 8 7 13 22 30 29 24 34 51 56 57 56 48 42 47 52 55 57
94 94 94 94 95 96 96 95 96 96 95 96 96 93 83 67 53 50 48 44 44 47 48 50 52 54 51 41 28 23 23 26 27 17 6 7 16 22 30 28 22 30 46 48 51 47 34 35 48 55 57 58 59 59
98 97 96 96 96 96 95 96 95 96 96 95 94 94 91 82 65 60 56 56 57 57 55 54 55 55 48 32 28 28 27 14 5 7 14 21 29 31 23 28 43 44 43 39 25 28 46 50 52 56 58 60 64 67

GFSWCAN_700_rhum_105.txt.gz
RH
79 75 66 62 30 11 22 56 43 24 36 34 79 99 100 83 79 78 84 96 65 47 53 58 29 29 20 22 22 19 21 22 26 17 22 24 28 36 38 38 41 45 49 50 74 84 66 60 76 83 87 88 91 96
78 73 63 49 19 10 19 54 45 22 33 36 67 98 100 100 100 98 95 74 50 50 46 41 20 17 20 18 22 20 19 24 25 18 16 23 27 32 34 33 39 50 46 46 49 47 50 51 51 50 57 60 64 72
80 69 60 31 14 15 29 52 47 22 31 40 70 91 100 99 100 99 98 64 50 60 37 24 22 33 40 16 21 20 20 23 28 21 13 18 28 30 32 32 34 37 46 47 47 44 48 52 56 63 66 68 69 68
74 61 43 16 14 35 45 48 45 24 29 36 68 85 94 100 98 98 92 50 60 60 54 37 37 41 24 16 15 19 20 22 26 28 18 17 25 31 32 30 30 33 38 38 35 41 48 51 60 68 70 73 84 89
61 49 23 12 31 50 43 38 45 28 24 39 74 84 94 99 100 100 83 53 58 70 77 62 49 45 56 40 16 17 20 22 23 24 25 18 24 32 31 31 22 25 29 35 38 39 44 50 64 64 60 48 51 59
51 24 13 31 48 40 30 26 33 35 24 43 85 91 100 100 100 100 100 57 68 79 88 77 74 59 57 28 20 18 18 22 24 28 27 16 21 30 32 28 23 26 30 35 37 35 39 48 57 52 41 50 55 55
25 14 36 48 34 29 29 27 28 42 26 47 88 100 99 99 100 100 98 76 60 75 88 64 42 41 48 29 21 20 21 25 28 30 28 17 20 30 28 20 20 26 29 34 33 32 36 45 54 40 49 47 64 71
14 39 48 33 37 55 60 70 42 48 28 47 88 98 99 98 100 100 97 80 70 65 71 63 51 33 38 41 45 26 28 34 32 26 20 15 18 22 18 15 18 23 30 32 32 29 33 39 51 40 48 51 68 74
42 43 31 49 66 73 77 99 58 61 32 43 90 98 98 98 99 98 99 99 92 56 60 54 52 46 30 29 28 31 33 32 31 28 24 19 18 14 13 17 21 26 28 32 30 25 29 40 49 43 43 46 54 59
37 36 59 62 83 100 100 100 95 83 36 42 97 97 98 98 99 99 98 96 91 68 62 58 56 58 52 29 28 32 31 31 21 20 16 15 8 10 11 16 22 25 28 31 30 26 27 34 47 46 40 48 48 55
49 49 45 59 90 93 96 94 99 76 64 86 97 97 98 100 100 97 97 97 96 91 79 70 75 69 58 43 34 31 33 32 26 24 18 16 9 8 7 12 20 25 29 33 32 26 27 32 42 47 48 43 56 63
51 47 42 69 99 96 97 96 100 74 68 89 98 98 99 99 97 96 97 95 92 82 77 69 74 77 66 49 35 30 29 31 36 34 20 13 8 8 6 10 18 25 30 32 30 25 26 30 35 46 53 53 55 57
64 61 73 91 94 97 96 97 93 73 71 97 97 96 98 97 95 90 93 97 83 79 69 59 61 78 72 52 32 27 29 33 35 29 15 10 8 7 6 9 18 27 30 31 24 22 23 27 32 35 42 55 57 56
76 74 73 81 95 96 97 97 96 95 97 97 96 95 92 81 76 82 73 69 60 60 58 59 62 71 68 53 33 25 31 34 27 20 15 12 8 8 8 13 22 29 29 24 19 19 20 24 28 33 37 43 52 70
96 97 100 100 100 96 98 84 90 95 97 97 91 81 71 74 71 68 58 64 60 60 58 55 60 61 62 45 36 31 36 38 36 25 16 12 9 9 12 19 26 27 23 19 19 20 22 25 29 34 40 45 54 65
94 96 97 97 97 98 98 100 97 97 96 90 73 74 70 72 60 56 55 53 64 62 48 43 49 40 41 38 39 37 37 17 10 7 6 7 8 10 15 22 25 24 20 18 20 24 27 30 31 33 38 48 58 74
92 87 73 98 58 98 91 94 98 97 96 88 86 81 74 62 54 53 53 53 55 52 37 37 35 36 37 39 40 38 38 18 6 6 6 6 9 13 18 23 24 21 19 18 19 22 28 32 35 38 42 46 52 61
71 96 97 98 97 98 98 97 96 96 98 86 81 78 70 62 57 60 55 51 45 44 41 41 42 42 39 41 39 36 27 24 10 7 7 7 8 10 16 20 21 21 22 22 24 25 26 29 33 41 46 49 52 57
94 97 98 90 89 96 97 97 96 97 96 89 87 84 76 67 62 67 55 44 44 47 42 43 44 43 36 22 12 14 19 13 9 9 8 8 10 12 16 19 22 25 28 29 32 36 38 40 44 48 51 55 60 66
96 97 98 98 97 99 95 96 97 88 85 90 95 95 87 78 79 81 55 48 44 44 47 46 45 33 32 20 9 9 8 7 8 8 9 10 11 14 18 22 25 28 32 35 37 38 41 45 50 54 59 65 70 72
96 94 97 96 97 96 95 90 93 96 88 96 100 95 96 97 98 98 93 71 61 54 53 49 44 39 19 14 10 9 8 9 10 10 11 14 20 25 25 26 28 33 37 38 40 42 46 50 56 61 65 70 73 61
93 97 96 97 96 96 94 88 90 96 90 92 96 96 97 97 96 97 97 95 91 76 60 48 38 22 12 10 10 10 10 12 14 17 23 27 28 27 28 29 31 37 38 41 43 46 51 56 61 64 71 78 73 33
86 91 96 96 96 95 94 94 98 81 97 96 96 97 97 96 97 97 96 95 94 93 83 77 60 36 18 16 15 13 13 14 18 24 28 30 30 27 26 29 32 36 40 43 45 48 52 57 62 70 78 83 82 46
96 98 97 95 96 89 94 99 87 93 96 96 96 96 96 94 97 97 87 85 96 96 95 95 86 47 29 24 20 17 15 15 20 27 31 31 25 24 27 32 37 38 31 26 25 26 25 29 40 39 40 41 39 28
96 96 96 96 85 82 85 94 98 94 89 96 96 96 92 96 96 90 85 95 92 92 92 76 62 50 36 34 33 25 18 19 27 33 30 24 26 31 33 26 16 16 19 21 21 20 20 18 17 16 15 14 13 13
94 92 96 89 72 95 92 89 83 94 94 96 96 96 96 96 93 92 82 91 87 86 85 76 63 52 45 37 32 27 23 29 34 27 26 28 30 20 16 18 18 17 16 18 20 22 22 19 16 14 13 14 16 18
95 95 84 92 83 75 75 87 88 94 96 96 93 92 95 95 94 85 80 86 94 93 87 72 51 47 34 27 23 27 35 33 28 32 27 21 19 18 14 12 17 26 28 27 24 20 16 12 11 18 27 32 34 35
93 94 85 86 83 72 68 66 68 82 94 93 95 95 95 93 90 80 81 81 84 87 75 73 60 43 35 36 38 38 32 32 34 27 22 20 16 16 23 31 29 23 22 17 8 8 19 27 28 28 35 50 59 59
85 91 96 92 86 88 87 87 86 90 95 96 95 94 94 92 81 74 80 85 75 50 46 42 41 45 46 40 33 31 36 36 26 21 19 19 28 33 25 23 23 12 7 10 21 26 24 30 45 52 52 39 32 34
94 90 92 95 96 96 93 93 92 95 95 95 96 94 95 94 86 72 60 52 51 54 51 47 42 39 35 34 36 39 34 23 20 26 37 32 23 24 24 10 6 10 21 25 22 31 42 44 37 24 30 38 41 43
91 93 96 96 95 96 95 96 95 96 96 97 97 96 96 93 83 64 46 42 41 42 40 38 34 35 38 38 33 27 28 39 43 30 23 25 24 9 6 8 16 23 21 28 39 40 30 19 27 34 34 38 43 44
93 96 95 91 89 94 96 96 96 96 96 96 98 98 98 99 83 69 53 42 38 37 36 40 44 46 48 48 50 50 43 28 24 27 25 9 5 8 11 21 22 21 35 38 36 22 20 29 34 30 28 34 41 48
97 95 94 94 96 96 96 96 95 96 96 96 96 96 96 96 92 70 56 47 45 49 50 49 48 49 50 49 45 32 26 28 26 11 5 6 9 16 23 20 23 39 39 36 21 18 25 32 32 33 44 50 52 56

GFSWCAN_700_rhum_108.txt.gz
RH
78 76 78 74 66 62 50 18 22 49 24 26 64 57 53 57 55 54 53 65 79 63 62 61 55 36 36 38 25 23 21 20 26 21 18 22 27 27 32 30 31 33 38 40 48 70 54 45 57 68 63 55 62 68
84 81 81 72 64 56 43 18 25 48 30 26 44 58 58 73 54 54 64 74 75 54 55 55 59 43 36 33 24 23 20 20 27 26 20 18 20 25 28 37 30 36 33 34 36 36 40 41 46 47 50 53 55 59
80 79 77 69 62 55 39 14 27 44 38 24 38 68 73 60 67 65 72 80 60 47 56 52 46 28 24 20 19 21 20 20 23 26 25 18 18 25 29 26 27 27 30 32 33 33 35 38 40 41 46 58 64 64
81 79 76 66 61 53 32 11 30 43 43 22 38 62 71 73 72 80 80 90 54 57 57 44 34 19 23 30 22 17 20 21 21 24 25 25 20 23 25 26 26 25 28 26 26 32 36 36 35 37 50 52 51 61
82 82 74 64 61 49 23 9 28 44 43 26 39 65 76 70 86 96 98 60 56 61 64 45 23 25 36 25 24 16 15 19 20 23 22 28 26 21 24 28 19 18 18 23 29 32 32 30 30 44 45 37 41 42
86 81 72 63 59 40 15 16 26 41 41 34 35 61 82 85 90 100 100 98 59 63 75 67 47 41 42 38 61 56 18 18 19 23 25 29 30 20 23 21 14 17 20 24 28 31 29 27 32 45 35 39 42 41
88 77 73 65 52 23 12 25 32 36 32 40 32 54 87 87 100 99 98 86 57 66 76 70 58 64 68 65 57 40 26 19 22 25 30 31 32 24 17 10 12 18 21 24 28 28 26 24 30 42 32 40 45 42
80 74 70 58 33 15 21 40 39 30 30 37 31 52 99 100 100 99 99 87 60 61 69 81 67 51 46 47 51 40 30 31 26 31 35 32 26 19 12 8 10 13 18 23 27 27 24 24 31 39 32 40 45 44
78 76 61 33 16 25 42 42 32 30 43 38 37 51 100 99 98 99 98 99 97 86 80 72 77 69 55 43 39 41 41 35 33 35 35 34 27 17 9 9 12 14 18 25 25 26 23 23 27 34 36 37 42 43
78 61 29 19 34 44 42 42 41 53 62 66 53 52 98 98 99 100 99 98 97 97 71 65 65 59 51 47 30 32 31 31 32 32 30 23 18 14 9 8 11 14 18 21 22 23 20 22 23 30 42 40 41 49
61 29 18 44 44 48 58 68 83 100 100 100 92 58 97 97 98 99 97 97 96 95 88 67 61 54 50 49 47 32 31 32 33 32 34 22 18 10 7 8 9 13 18 21 22 21 20 20 23 25 34 43 43 45
25 22 43 46 50 54 60 87 100 99 98 96 61 62 97 98 97 96 97 96 94 83 79 74 62 58 53 50 52 50 46 39 33 39 32 20 15 12 8 6 8 12 17 20 21 20 17 17 19 24 29 37 46 49
30 49 48 50 51 50 75 90 98 98 98 100 95 98 97 96 97 94 88 85 84 81 70 67 66 67 63 60 67 61 34 29 32 35 31 29 25 10 7 6 8 12 16 19 20 17 14 14 17 20 25 30 36 46
54 53 55 53 50 58 96 98 97 97 98 100 96 97 96 93 86 73 71 71 77 59 58 62 62 65 67 66 67 60 41 30 32 34 32 30 21 14 9 7 10 14 17 20 19 14 14 15 16 18 23 29 35 41
59 63 62 61 68 85 100 98 97 96 97 95 96 96 90 81 70 69 72 70 61 62 56 58 73 69 70 73 72 50 34 32 30 27 30 26 28 14 8 7 10 15 19 19 16 14 15 18 19 22 27 32 37 45
77 97 95 79 80 85 97 97 98 96 99 86 95 91 71 74 73 74 62 65 63 59 60 62 75 79 67 66 47 57 38 32 32 28 7 6 8 8 8 9 12 17 20 19 16 15 15 17 21 26 30 34 38 44
90 89 99 100 93 98 98 96 96 96 96 96 84 68 72 71 67 59 57 55 66 65 62 64 67 70 54 61 45 38 40 36 30 13 7 5 6 6 7 10 16 20 19 17 15 15 16 18 20 24 29 34 40 43
92 94 95 97 97 98 97 96 96 94 89 95 81 77 76 77 69 65 60 66 68 68 61 57 55 48 36 35 37 37 36 38 28 6 5 5 5 6 10 14 17 18 18 17 17 20 21 24 28 33 38 40 41 45
98 100 99 94 96 94 99 96 96 94 96 97 88 76 87 67 60 63 64 64 66 64 59 51 43 38 36 38 35 31 35 33 31 16 9 7 8 8 10 13 15 18 19 20 23 25 27 31 34 37 40 43 46 50
98 96 96 98 98 91 95 97 90 96 96 95 80 59 94 70 59 59 59 57 57 55 52 45 44 43 44 42 37 18 22 25 17 10 9 8 8 9 11 14 19 22 23 25 28 30 32 34 36 40 43 47 52 55
98 96 93 81 80 96 95 97 97 100 91 96 78 76 94 83 74 60 54 52 50 50 48 45 45 44 30 37 24 10 9 8 9 10 10 10 10 12 19 25 26 26 26 28 30 33 35 36 39 41 46 50 56 69
97 96 96 91 96 97 97 96 89 96 95 94 97 90 94 94 96 93 74 58 47 47 48 47 48 46 40 20 12 10 9 8 9 9 10 13 20 27 29 29 29 28 26 28 32 34 35 36 38 40 41 49 58 67
96 97 97 97 96 96 93 80 72 85 94 99 94 99 96 96 96 97 96 93 68 51 49 50 52 49 34 22 12 10 10 10 11 14 18 24 28 30 31 29 26 26 29 31 33 31 25 22 22 21 24 30 33 36
97 98 97 95 94 93 87 84 75 83 83 96 96 96 99 98 96 96 94 81 82 77 68 73 52 26 22 23 18 15 14 14 14 18 23 27 30 32 28 24 26 31 31 23 16 16 16 16 17 18 19 20 19 18
95 96 97 96 94 94 96 94 75 77 88 82 95 96 95 96 96 92 83 92 93 92 97 97 95 88 66 54 40 22 19 18 16 17 23 30 32 26 23 27 30 20 16 16 14 14 16 21 23 24 22 18 14 14
96 94 96 82 81 73 67 81 84 93 91 94 95 96 96 96 95 95 90 95 92 89 91 93 96 95 94 70 38 32 32 30 21 21 29 31 28 25 28 20 17 16 14 16 24 27 26 23 18 12 12 19 24 27
96 92 76 69 68 60 62 64 75 87 96 94 92 96 96 96 94 84 76 76 80 85 92 96 97 96 96 95 77 46 45 42 28 31 32 31 28 22 19 17 14 19 27 27 24 22 13 7 14 21 23 28 39 43
87 75 73 68 64 61 81 78 75 83 95 95 95 96 96 94 90 79 76 76 83 85 91 94 94 94 84 68 58 43 36 30 34 34 31 26 21 20 17 19 30 28 23 21 8 6 13 20 21 30 38 34 20 21
66 69 84 84 74 69 77 77 82 80 76 89 95 94 94 91 83 78 79 80 91 98 97 96 96 94 84 52 33 28 34 38 36 34 28 23 19 21 30 30 24 21 8 5 11 18 20 27 35 29 16 20 28 29
84 61 88 99 98 89 85 83 85 82 84 96 97 96 97 93 79 75 81 84 93 97 96 95 94 76 45 37 40 40 36 34 34 27 22 21 30 32 26 24 11 5 7 17 18 22 32 33 19 15 23 26 24 24
91 80 93 96 96 86 89 94 96 96 96 96 96 96 95 96 93 77 63 67 82 87 84 75 64 60 52 42 36 34 36 34 26 22 32 37 26 25 17 6 6 11 18 18 28 34 30 16 15 21 25 25 33 39
95 97 95 96 96 96 96 96 96 96 96 96 96 96 96 95 92 91 82 64 67 81 87 76 62 57 52 45 36 35 29 26 35 42 28 26 24 8 6 7 16 19 19 32 37 31 17 15 20 23 32 39 41 42
97 96 95 96 96 96 96 96 96 96 97 97 96 96 96 96 95 92 90 66 61 72 76 70 55 44 41 39 35 37 48 48 31 26 26 14 6 6 9 18 19 19 33 39 34 23 16 19 26 39 42 46 51 53

GFSWCAN_700_rhum_111.txt.gz
RH
85 79 77 79 71 70 71 75 52 12 44 25 46 47 56 51 39 31 39 49 60 60 57 59 57 48 34 34 34 25 20 19 25 26 19 31 42 47 28 32 26 36 46 52 63 71 54 26 33 58 54 42 48 45
91 78 76 78 71 68 66 70 55 17 32 39 32 49 55 51 51 44 36 42 61 68 57 55 52 48 35 41 42 26 22 22 21 26 26 22 19 18 23 42 26 33 35 61 32 51 31 28 35 35 40 44 46 53
96 85 76 81 73 70 63 67 56 28 15 47 27 47 51 61 56 61 44 44 48 66 60 52 47 49 39 37 35 21 19 20 19 20 26 26 25 24 44 42 26 20 21 27 25 27 27 31 34 32 32 38 47 50
99 96 78 83 73 71 66 64 58 35 10 37 40 29 52 61 60 54 58 58 74 74 54 52 48 46 38 32 25 17 18 19 19 19 22 24 24 28 25 21 20 30 20 20 18 21 26 28 28 25 28 36 29 32
100 97 82 88 81 76 70 63 62 39 14 32 44 28 38 64 66 68 74 76 82 74 57 53 50 42 31 19 25 30 18 15 16 18 21 22 22 27 30 24 10 12 14 16 27 19 24 23 23 24 30 29 31 36
100 99 88 89 91 87 75 66 60 42 16 30 44 42 28 54 78 82 92 88 92 68 75 64 52 37 24 24 40 30 39 46 38 19 20 20 22 30 33 24 9 10 12 14 14 21 24 22 20 22 27 25 33 35
100 100 91 90 93 94 82 74 63 41 17 28 42 48 31 52 93 99 92 89 92 79 82 76 62 45 27 28 41 40 51 59 47 26 23 24 25 33 34 26 13 9 12 14 16 20 21 21 17 17 26 26 33 34
99 100 97 93 97 92 83 80 61 33 18 36 45 41 43 41 99 100 98 88 91 82 87 84 68 51 45 48 57 59 60 58 51 32 34 32 31 34 33 14 8 8 9 13 16 18 20 18 15 17 23 26 30 35
97 99 93 93 96 92 84 74 47 24 32 47 44 36 51 38 91 98 100 99 93 98 98 84 74 65 51 49 50 45 40 44 46 44 42 40 37 34 26 10 8 9 10 14 15 16 19 17 14 16 23 32 28 36
100 100 89 92 94 87 85 61 29 29 52 51 64 87 84 47 54 99 98 98 98 98 95 81 72 70 62 56 52 41 36 40 40 37 34 31 29 28 28 23 16 9 10 11 12 16 17 14 12 14 19 26 32 33
100 100 98 98 99 93 68 35 31 55 62 78 97 100 94 61 64 100 98 98 98 98 93 79 82 70 66 58 51 43 32 32 34 33 35 33 27 26 23 14 12 12 10 11 12 14 13 11 11 13 18 21 26 33
99 98 90 95 94 68 36 32 55 61 70 78 91 100 100 97 98 95 95 96 90 89 81 76 72 70 64 64 56 47 44 42 40 42 38 34 25 17 18 11 7 8 10 12 13 13 11 10 9 9 14 16 19 22
97 98 96 96 82 34 34 55 67 87 100 100 98 98 96 92 96 96 91 88 86 84 74 72 78 83 67 61 55 50 55 55 54 46 41 38 34 30 26 8 7 7 10 12 13 12 10 9 9 10 12 15 19 23
97 96 96 74 35 51 63 67 93 100 99 98 99 97 93 94 83 94 78 77 64 73 70 70 71 76 68 61 56 58 61 52 33 34 37 37 33 29 26 16 7 7 11 14 14 13 11 10 10 12 15 19 22 26
94 92 69 31 34 58 67 77 98 99 99 98 97 93 93 80 88 72 75 78 62 66 76 63 78 71 68 62 63 71 58 49 47 45 40 39 38 31 30 14 8 8 12 14 15 14 12 11 12 14 17 20 23 27
96 63 31 40 52 58 65 85 100 99 98 96 96 94 89 87 78 80 61 80 76 77 74 66 87 78 72 69 76 70 57 41 44 37 29 20 10 26 25 10 9 10 13 14 15 13 12 12 13 15 18 21 24 29
46 36 56 57 53 55 67 100 98 98 98 95 95 84 76 70 64 78 84 72 71 72 60 75 90 84 68 68 67 65 59 49 45 29 30 19 7 10 13 9 9 13 15 16 15 13 13 15 17 18 20 23 28 35
61 68 65 65 72 98 99 99 99 96 95 95 89 67 53 96 64 58 95 82 66 78 67 73 69 67 63 64 60 45 43 48 48 44 39 19 6 6 7 9 13 15 16 15 15 16 18 20 20 22 24 27 32 38
77 77 88 99 94 94 98 97 97 94 90 82 62 60 46 81 71 58 83 96 86 82 83 71 61 58 59 54 50 48 40 42 48 45 19 6 5 6 7 10 12 14 16 16 19 21 24 23 23 26 28 31 35 39
90 90 90 89 96 100 97 96 96 91 72 62 67 64 90 87 71 95 96 96 97 95 96 80 59 48 53 55 49 43 36 33 39 38 29 8 8 8 10 13 13 14 16 22 24 25 25 25 26 30 33 35 36 40
97 99 99 97 98 97 96 95 93 82 60 66 72 78 96 97 91 88 100 98 96 93 95 81 61 51 42 49 46 42 36 27 35 34 24 15 9 8 9 10 12 21 27 27 26 26 26 27 30 33 34 33 34 35
99 91 95 98 98 93 79 66 75 73 80 88 67 91 96 99 91 82 97 96 92 90 94 90 67 52 46 37 40 43 39 18 19 14 13 12 11 10 11 18 27 30 30 29 25 25 29 31 28 23 20 20 21 21
98 96 99 97 96 90 91 96 95 92 86 86 95 96 96 97 96 88 88 93 86 92 94 93 84 72 51 46 30 10 10 10 10 10 10 12 13 16 23 28 31 32 29 27 27 30 28 18 15 15 16 17 18 21
93 98 96 95 91 91 95 95 96 97 96 95 96 97 97 98 97 97 94 87 84 83 91 95 84 67 50 58 56 23 10 10 11 11 12 15 22 27 29 32 32 27 26 29 29 20 15 14 14 18 23 24 23 19
96 96 95 92 97 96 97 94 94 90 90 92 96 96 96 95 95 92 76 79 94 96 97 96 89 64 50 58 58 29 14 14 14 14 17 21 26 29 31 31 26 26 28 22 16 14 16 23 26 24 19 10 9 16
94 94 94 96 88 80 87 83 72 72 70 72 84 85 93 96 94 90 79 71 91 95 95 96 94 62 59 42 24 21 33 48 27 25 19 20 28 31 30 28 28 23 18 16 17 24 26 22 14 6 7 15 19 27
94 86 83 94 75 58 64 76 59 58 66 71 82 92 94 94 92 91 82 88 93 97 97 97 97 92 82 64 70 86 81 64 66 50 26 26 31 32 30 26 19 17 17 25 27 23 15 5 6 13 17 24 32 25
93 95 75 65 59 50 56 65 67 68 65 73 84 82 91 93 86 82 88 96 97 97 97 97 98 98 96 95 96 94 92 82 77 67 34 32 33 30 23 20 17 22 29 25 19 6 5 10 14 20 28 28 15 15
84 85 85 61 62 68 70 61 50 51 59 60 70 76 83 78 82 84 86 96 96 96 96 96 96 95 95 96 96 96 95 94 85 40 36 36 29 22 20 20 29 28 23 9 4 6 12 15 23 29 21 12 15 19
77 78 81 83 78 78 74 59 62 67 70 70 71 84 92 83 80 83 91 94 95 96 96 98 97 97 96 96 96 96 81 52 36 41 40 30 23 21 25 30 27 17 5 4 7 13 17 28 29 17 13 17 21 32
77 72 78 95 100 86 82 81 88 84 83 79 75 95 96 96 93 89 89 92 94 95 96 97 97 96 96 96 91 68 53 51 45 40 29 25 23 31 30 26 11 4 4 9 14 18 29 30 18 15 19 30 37 41
89 98 88 83 91 100 99 100 98 97 96 93 91 94 96 97 96 95 94 94 95 96 96 96 96 95 93 84 74 65 61 50 41 34 24 26 35 29 22 7 4 6 12 15 20 32 31 23 20 26 34 39 45 52
90 92 91 93 96 96 96 95 93 94 95 96 96 96 96 95 96 94 92 90 92 95 95 95 94 95 95 94 86 87 73 40 30 27 35 35 29 18 6 5 8 14 15 22 34 33 28 28 32 38 43 49 51 52

GFSWCAN_700_rhum_114.txt.gz
RH
100 88 88 88 78 75 82 79 73 66 27 15 28 31 44 42 34 34 38 47 54 55 53 57 54 48 45 35 29 28 20 16 21 25 23 26 21 34 21 28 31 25 34 37 54 66 59 22 23 31 29 33 31 33
100 92 84 88 80 74 76 76 77 70 52 13 23 29 42 53 45 28 31 46 54 63 53 54 54 50 40 32 34 34 27 20 19 19 23 26 25 27 22 30 33 29 25 53 35 39 25 22 22 25 28 32 27 40
100 99 89 87 83 79 77 78 81 72 63 33 11 29 32 44 51 38 32 41 46 55 62 58 56 55 43 35 38 38 31 18 19 19 19 22 23 26 30 32 30 21 21 23 22 21 19 21 22 23 21 24 27 38
100 100 97 86 88 83 78 83 80 79 66 53 17 21 31 41 51 49 51 46 45 51 69 61 58 54 48 43 38 38 35 17 17 18 19 19 20 21 24 26 28 28 24 18 15 17 18 19 20 20 19 21 26 24
99 100 100 93 90 85 79 80 87 83 72 63 33 14 39 29 44 54 54 63 62 59 72 64 62 53 50 46 40 34 32 22 20 16 20 22 20 21 22 26 24 15 11 12 13 12 15 16 18 18 15 17 22 25
100 100 100 100 94 90 86 83 85 88 80 72 47 17 28 40 30 61 65 74 73 74 90 82 52 56 52 50 39 26 20 32 25 23 39 41 36 25 25 28 26 26 22 10 10 11 14 17 17 16 13 15 21 26
100 100 100 100 99 97 93 92 93 93 86 79 53 23 22 41 38 44 85 74 75 86 100 100 82 51 57 47 35 23 34 36 42 54 50 46 47 35 33 34 28 27 17 15 8 12 13 15 16 14 11 12 18 19
100 99 100 99 100 100 100 99 99 98 91 88 56 28 28 41 45 39 81 99 85 98 99 98 81 60 56 55 34 25 29 39 47 52 50 49 49 46 44 31 30 25 10 7 7 11 12 15 14 12 10 11 14 19
100 100 99 99 100 99 99 99 99 99 96 87 48 44 42 43 41 40 48 100 100 100 97 92 87 73 59 55 51 38 42 55 53 53 51 48 46 44 36 34 32 19 8 7 7 8 11 12 12 10 9 10 12 19
100 100 100 100 99 99 99 98 98 98 97 72 50 58 59 38 37 42 55 100 99 98 98 91 77 74 67 64 55 61 56 47 44 43 43 43 39 33 33 34 29 29 23 9 8 7 10 11 12 9 9 9 10 13
100 100 98 99 99 99 99 98 98 98 96 80 55 60 64 67 53 61 76 99 99 99 93 87 86 80 72 68 65 53 42 35 36 38 40 36 32 28 29 27 27 24 22 19 9 8 8 9 9 8 7 8 9 12
100 100 98 98 99 98 98 98 98 97 96 76 54 60 87 100 88 70 76 77 80 93 91 82 77 79 86 73 70 57 48 46 44 49 40 34 32 27 24 21 20 14 12 15 9 10 9 9 8 7 7 8 9 10
99 99 100 99 99 98 98 98 98 96 96 87 95 97 98 96 95 90 81 74 74 83 80 81 86 91 97 86 72 74 71 50 53 50 46 41 37 32 32 33 22 10 8 8 9 10 10 9 8 8 9 9 9 10
99 99 99 99 98 98 98 98 97 93 96 95 95 97 90 87 86 76 72 63 62 70 73 74 83 85 91 84 72 75 75 63 50 48 47 41 40 38 36 28 27 9 7 7 10 12 11 10 9 10 11 11 11 12
99 99 98 98 98 98 98 97 96 95 97 98 94 91 82 65 66 70 64 71 70 72 82 84 86 89 88 78 83 91 87 66 60 54 50 41 38 39 37 34 32 21 8 8 13 13 12 11 11 11 11 12 13 14
98 98 97 98 98 98 97 96 96 98 98 99 96 84 80 74 72 74 69 67 78 83 81 80 88 94 94 88 90 81 68 60 54 49 41 34 30 33 35 34 32 18 10 11 15 14 13 12 11 11 13 15 15 15
98 97 94 98 97 97 96 96 97 98 98 99 94 90 91 82 76 68 66 62 64 78 90 92 93 87 81 88 78 74 66 62 52 44 44 40 36 26 14 29 21 11 10 13 15 15 14 11 11 14 18 18 16 18
96 98 98 97 96 96 97 97 98 100 99 99 100 96 94 88 84 74 62 59 71 84 88 92 87 78 69 66 63 65 62 57 52 50 50 47 35 31 11 17 17 12 12 15 16 15 12 11 16 21 20 18 18 21
99 98 97 96 92 93 96 98 97 99 96 96 95 96 96 91 86 69 66 56 55 70 99 99 97 95 76 65 58 54 48 55 52 52 52 52 46 36 17 9 12 13 13 15 15 12 13 20 24 23 20 20 21 24
97 96 96 92 96 100 99 98 98 100 95 94 91 93 95 84 71 73 72 72 82 72 96 97 94 86 76 69 65 57 54 51 58 55 51 52 51 26 8 9 12 14 15 14 12 15 24 26 25 21 20 23 24 26
96 98 100 99 99 99 96 96 96 97 96 95 92 86 82 79 72 70 76 77 77 88 91 81 92 94 75 44 50 58 59 57 62 45 42 46 47 29 9 12 16 17 16 15 19 27 27 27 22 21 23 23 20 16
96 97 98 99 99 97 96 94 88 86 92 87 80 80 78 79 71 68 65 76 78 84 75 69 97 93 88 81 46 46 47 40 33 39 54 38 30 15 11 15 15 15 17 24 29 30 28 23 22 23 18 15 14 15
96 100 100 98 97 95 96 88 78 79 86 84 85 79 70 61 59 67 72 68 74 70 87 95 96 95 94 91 81 49 56 84 71 37 35 28 20 26 27 23 18 20 28 31 32 28 24 26 21 15 14 15 21 23
98 96 99 96 96 95 94 93 75 68 78 85 75 71 66 82 90 85 77 71 67 74 93 95 96 96 94 94 93 78 37 56 65 36 22 23 21 24 25 25 26 31 33 33 28 25 26 18 14 15 22 22 18 10
98 97 96 96 96 88 87 83 87 91 94 74 56 72 92 82 95 93 81 64 73 87 94 97 98 100 99 95 94 94 61 23 24 24 27 20 18 21 25 30 32 33 32 28 27 24 16 15 21 24 18 8 6 11
94 96 92 93 79 84 80 73 62 61 78 91 93 98 91 90 96 93 79 74 90 95 91 93 97 97 96 96 94 93 86 39 31 29 25 22 27 36 36 32 33 32 30 26 19 16 19 24 21 9 5 8 13 19
96 95 87 76 72 65 70 96 91 86 95 90 83 83 79 94 95 94 80 71 75 78 79 86 94 96 97 96 82 67 92 80 45 30 44 67 78 58 44 35 32 32 23 17 18 25 25 15 5 5 10 13 23 24
94 87 72 64 66 58 64 77 79 80 83 78 71 68 67 80 78 79 86 86 78 80 88 97 97 97 96 87 78 82 68 44 38 64 85 94 89 64 42 42 35 20 17 22 26 22 8 4 6 11 16 25 21 11
73 77 90 87 86 88 78 72 61 58 70 71 70 58 66 70 84 89 88 77 86 96 97 97 96 96 94 91 88 55 69 76 86 93 94 93 80 70 74 47 20 19 26 27 16 5 4 8 12 18 25 20 14 18
83 62 81 80 87 88 78 59 55 54 58 68 64 61 68 79 79 75 80 88 92 97 97 97 96 96 95 96 93 88 88 93 94 95 95 87 79 77 45 20 23 28 26 11 4 5 9 12 18 26 22 19 24 28
95 72 82 95 92 92 86 75 68 65 64 64 63 62 66 75 86 92 84 79 85 96 96 96 96 96 96 95 95 95 95 96 96 95 94 93 88 47 22 27 30 23 8 4 6 10 12 19 27 25 24 28 30 31
92 85 81 87 87 87 85 88 85 75 71 76 89 86 74 82 91 97 94 91 83 93 97 97 96 96 96 96 96 97 97 96 94 94 95 80 30 24 30 31 21 6 4 6 10 12 19 28 28 27 31 32 31 27
65 65 61 74 71 76 82 82 86 92 91 94 95 86 78 86 94 94 96 97 96 96 96 96 96 96 97 97 96 95 94 94 95 94 65 26 27 32 30 18 6 4 7 11 13 20 29 30 30 33 33 31 25 26

GFSWCAN_700_rhum_117.txt.gz
RH
99 98 100 99 99 80 73 78 78 70 51 34 14 21 28 26 24 22 30 35 42 47 46 48 56 55 52 40 29 25 21 17 17 20 25 26 18 28 24 22 24 28 25 24 34 58 34 18 18 22 17 21 21 22
100 98 100 99 100 86 78 78 82 82 69 48 30 14 22 22 22 34 28 24 27 39 48 50 57 54 53 47 35 33 31 24 18 17 18 20 20 23 24 26 24 29 19 22 27 13 14 15 14 16 18 18 18 22
100 100 100 99 100 95 80 81 80 86 78 65 47 28 14 25 27 31 34 32 28 33 45 52 54 55 54 54 40 36 37 36 21 19 18 18 17 20 23 22 26 25 27 26 20 12 12 15 13 15 15 15 15 20
99 100 100 100 98 99 88 84 85 84 87 79 66 48 23 20 28 31 40 32 30 33 42 50 54 57 56 56 51 41 39 37 32 21 20 18 16 21 22 24 24 24 26 22 15 10 11 12 12 13 13 12 14 18
98 97 100 100 99 98 98 86 96 96 92 93 80 66 44 18 22 31 39 49 39 36 34 34 37 54 58 55 55 50 46 38 37 27 22 22 20 21 29 33 28 24 24 27 20 8 9 9 11 11 12 12 12 15
100 98 100 100 100 100 100 99 97 100 97 96 92 79 61 30 20 34 31 44 52 51 51 40 30 46 52 57 54 52 47 40 33 27 26 27 28 30 41 38 29 30 31 34 28 19 8 10 11 11 12 12 10 12
89 99 100 100 100 100 99 99 100 100 100 100 100 94 75 48 22 42 41 39 56 67 79 70 45 31 44 60 53 52 51 45 28 27 28 31 35 46 47 39 30 37 37 29 15 14 8 9 12 13 11 10 9 10
84 86 97 100 100 100 99 99 99 99 100 100 100 100 90 60 32 28 41 46 56 94 98 100 83 53 51 55 53 51 52 46 34 30 32 33 38 42 42 30 34 37 26 21 16 8 8 10 11 11 10 8 8 9
97 81 82 100 100 100 100 99 99 99 99 99 98 100 96 70 49 34 37 55 99 95 100 100 90 75 58 57 58 56 55 51 40 32 30 34 39 40 29 33 35 36 34 34 13 7 7 8 11 10 8 7 6 7
100 100 99 100 100 100 99 99 99 98 99 99 99 98 92 78 58 40 57 79 100 98 99 100 100 94 71 66 64 61 58 54 55 50 45 44 40 32 30 29 33 34 37 36 30 13 7 6 7 8 8 6 6 6
99 100 100 100 100 100 99 99 99 98 98 98 98 97 95 83 77 56 60 68 83 98 97 95 100 100 85 82 72 67 58 50 47 46 50 49 46 34 33 33 33 29 28 27 27 18 8 7 8 8 7 7 7 7
99 99 99 100 100 99 99 99 98 98 98 97 98 96 97 96 96 82 68 74 53 60 67 87 82 76 81 82 84 78 71 67 59 56 49 46 43 35 28 29 30 22 25 26 26 23 13 8 8 8 8 8 8 8
99 98 99 100 100 99 98 98 98 98 98 98 97 96 95 96 95 84 90 73 62 52 69 54 54 61 84 99 97 86 76 67 63 60 56 52 49 43 39 36 35 35 30 15 19 23 16 9 9 10 9 9 10 11
99 99 99 99 98 98 98 97 97 98 98 97 95 96 92 90 74 60 57 49 45 46 35 46 53 71 92 100 93 83 77 76 67 57 52 50 47 41 38 40 38 38 34 25 10 15 13 11 11 11 10 10 12 12
99 99 99 99 98 98 98 98 96 97 98 95 94 91 82 65 62 56 55 57 52 45 48 56 73 85 98 99 94 86 77 82 60 53 53 46 44 45 39 44 45 41 31 18 9 10 11 13 13 12 11 12 12 13
99 99 98 98 98 98 97 97 97 97 96 95 90 79 65 64 69 66 59 54 50 54 72 87 92 100 96 91 92 83 70 62 51 50 49 44 38 36 41 39 35 43 36 29 10 10 16 18 16 14 12 12 13 16
98 97 96 98 98 97 97 97 97 96 96 94 86 76 80 75 65 56 57 63 59 62 72 90 90 81 94 94 83 77 64 59 56 55 47 39 44 60 68 70 29 20 34 29 13 13 21 21 17 13 12 13 18 20
97 93 96 98 98 98 97 96 95 96 90 80 77 77 82 74 66 74 70 67 65 63 76 88 83 89 90 87 76 64 60 57 62 63 51 36 40 45 45 68 69 21 29 22 16 20 24 22 18 13 13 20 22 20
97 97 97 97 97 96 95 97 95 94 87 83 86 77 73 72 75 89 90 81 73 68 63 63 91 98 97 90 79 70 68 64 65 59 54 40 55 59 55 64 69 31 19 20 22 24 26 24 16 16 22 25 22 19
98 97 98 97 97 97 97 96 93 100 92 83 77 81 88 93 90 88 89 87 80 83 79 73 73 71 64 56 70 79 82 72 65 62 56 57 84 91 92 89 55 18 19 24 31 28 26 20 18 24 27 25 19 20
97 97 97 96 96 96 96 96 96 91 99 88 89 96 95 93 93 86 82 90 96 92 90 75 60 49 52 58 66 76 87 89 92 72 64 57 69 87 97 92 84 43 22 29 33 33 25 21 26 28 26 20 20 21
98 97 95 97 97 96 96 93 94 88 82 96 100 93 90 88 81 78 81 100 98 77 62 60 56 58 64 64 64 82 87 85 52 66 79 73 70 74 79 94 66 27 30 38 40 33 27 29 30 27 22 22 18 14
96 96 97 97 97 95 96 96 97 96 94 93 94 99 95 84 75 82 100 91 72 60 58 57 61 68 68 66 68 66 83 92 93 55 47 54 55 61 79 91 68 35 39 38 33 30 32 32 28 24 23 16 15 19
97 97 97 96 96 95 95 98 98 96 88 83 92 97 91 88 90 96 80 62 57 57 54 53 58 60 60 58 69 92 100 86 94 83 94 92 53 74 81 47 43 48 48 36 30 33 35 29 25 22 15 17 20 14
96 96 96 96 96 96 99 97 97 92 84 91 88 93 89 87 84 74 61 42 43 42 40 40 51 56 56 55 86 96 96 96 84 65 92 95 59 76 51 52 50 42 34 34 35 34 30 26 19 15 20 20 9 4
94 95 92 95 95 89 86 90 87 83 73 73 80 83 82 84 84 70 50 52 55 57 62 67 77 64 54 70 96 96 96 97 94 71 90 87 51 77 65 41 33 38 48 58 56 57 54 21 16 22 18 6 5 8
95 95 89 95 88 86 81 74 71 70 68 70 71 74 81 95 83 65 51 72 72 61 70 87 93 90 91 96 97 96 96 97 94 63 54 54 58 61 56 56 64 84 87 79 88 69 20 19 23 13 5 5 9 19
96 83 73 70 81 75 73 69 62 52 54 56 50 66 90 78 60 46 51 67 86 75 74 77 93 96 97 97 97 96 97 97 93 73 75 78 58 56 82 90 94 94 93 94 58 18 23 23 10 4 6 11 21 20
85 72 92 90 74 71 69 55 45 61 55 60 62 68 76 63 57 63 70 89 96 97 94 93 92 97 97 95 97 97 97 96 93 73 74 63 70 86 90 95 94 94 92 43 20 25 20 6 4 7 12 21 22 22
87 74 73 82 79 61 48 44 43 52 58 64 61 58 70 70 72 73 80 84 92 95 97 96 95 96 96 96 96 95 95 96 97 96 66 71 89 95 95 94 94 79 26 23 27 16 5 5 9 13 22 24 24 26
68 73 70 66 65 60 77 79 71 69 68 67 76 76 76 71 62 52 50 74 80 92 96 96 96 96 96 96 95 95 95 95 95 96 97 95 94 95 95 91 53 23 26 27 11 5 6 10 13 22 25 25 28 27
91 100 94 74 63 76 90 87 82 80 78 72 68 65 66 66 68 69 68 77 91 96 96 96 95 96 96 96 96 96 96 96 95 94 94 96 95 94 91 54 28 29 24 7 5 8 11 14 22 26 27 29 28 20
76 97 99 88 70 82 97 93 79 75 74 75 70 66 81 94 86 72 68 75 86 94 96 96 95 96 96 96 96 95 96 97 97 96 96 96 94 64 29 29 30 19 6 6 10 12 16 24 28 28 30 29 21 20

GFSWCAN_700_rhum_120.txt.gz
RH
98 100 100 99 97 97 98 94 84 79 66 52 47 20 18 24 15 17 20 21 28 38 41 42 52 50 43 40 30 25 24 21 18 19 22 23 24 25 26 23 21 20 21 19 25 33 23 10 11 15 12 12 14 16
94 96 100 99 98 96 98 98 87 80 78 66 54 47 21 17 24 24 24 23 21 21 33 38 43 47 48 44 40 35 29 26 21 18 19 18 17 18 21 22 24 25 20 22 17 11 10 11 11 12 12 13 14 14
90 96 96 100 99 100 100 99 95 85 79 78 68 56 49 30 14 23 28 29 26 25 20 27 36 43 50 48 48 44 36 36 37 29 22 21 18 19 21 22 24 23 25 24 22 12 12 11 10 10 10 11 10 10
83 97 92 100 100 100 100 99 97 91 82 84 81 71 59 50 37 14 27 30 30 31 24 23 38 42 43 48 48 50 46 36 39 39 31 25 20 18 19 22 26 25 30 28 20 19 15 8 8 10 10 10 9 8
90 94 91 98 100 100 100 100 100 98 90 89 95 88 77 64 53 35 19 29 32 36 34 25 24 34 45 48 48 49 52 48 45 45 42 39 35 28 23 24 30 29 30 27 32 34 30 16 9 8 9 8 9 8
100 100 94 98 100 100 100 100 100 100 100 98 100 100 97 81 68 53 30 26 28 36 52 34 31 32 37 39 42 55 53 52 50 46 47 43 37 35 29 27 26 29 33 36 39 39 34 22 13 8 9 9 8 7
87 98 100 100 100 100 100 100 100 100 100 99 100 100 99 99 87 66 42 36 29 33 58 86 46 26 32 30 34 38 54 55 54 53 48 45 40 33 32 31 26 27 30 35 40 36 23 12 13 10 10 9 7 7
99 97 99 99 100 100 100 100 100 100 99 99 98 98 99 99 98 84 58 37 30 40 80 100 59 40 36 34 36 39 45 54 57 53 52 48 44 40 35 32 29 27 30 35 32 26 19 16 8 8 8 8 7 7
100 100 100 100 100 100 100 100 100 99 99 99 98 98 98 98 97 90 78 53 49 67 100 99 67 62 44 43 44 50 57 56 59 57 52 50 46 43 36 29 29 29 31 32 32 37 37 32 8 7 7 7 7 7
84 93 97 100 100 100 99 100 100 98 98 98 98 97 98 98 96 97 95 94 100 100 100 88 67 80 60 58 58 61 63 63 61 56 54 50 44 38 35 33 35 36 34 34 32 32 34 37 22 8 8 9 8 7
70 77 88 98 100 100 99 99 99 98 98 97 97 98 99 100 96 96 95 95 90 98 93 91 92 91 86 61 65 68 66 62 58 49 56 52 38 32 28 28 32 33 34 34 32 32 35 37 26 8 7 8 8 8
87 98 99 93 99 99 99 99 98 98 98 97 100 98 99 96 96 94 95 88 76 69 68 63 60 56 82 82 87 87 81 74 62 57 57 49 32 33 31 30 28 30 32 35 28 27 31 31 26 10 8 8 8 8
96 95 99 93 99 99 99 98 98 98 97 98 97 96 95 95 96 94 89 88 76 61 57 55 48 50 79 98 100 94 85 75 65 62 55 42 42 35 30 27 34 37 34 36 36 31 24 29 28 16 10 9 9 8
95 93 99 99 99 99 99 98 98 98 99 97 97 95 93 92 85 71 69 60 62 57 55 48 51 58 74 95 100 92 83 80 75 64 48 40 36 23 22 24 34 39 40 37 38 35 32 22 29 20 13 12 10 9
96 98 98 99 98 99 98 98 97 98 98 96 96 93 88 83 76 64 60 63 65 63 57 67 72 68 84 100 91 88 82 77 73 56 47 40 31 29 42 43 44 44 39 38 41 35 26 20 29 23 17 14 12 11
99 97 98 99 98 98 98 98 98 98 97 96 95 84 70 70 73 67 65 59 60 64 81 91 96 100 100 87 94 85 80 71 47 47 49 43 40 35 36 40 46 66 68 51 39 38 22 21 27 23 20 17 14 12
100 97 98 98 98 98 97 97 97 97 97 96 87 83 78 71 73 68 67 67 60 83 87 90 82 69 76 91 90 76 69 53 53 47 44 39 40 46 50 48 42 51 43 48 60 36 28 24 25 25 24 20 15 13
97 97 99 98 98 97 97 97 97 97 95 94 87 88 85 82 89 72 71 69 85 90 94 88 80 73 71 63 69 66 75 68 56 52 54 54 53 50 48 46 50 43 51 66 64 52 30 20 26 32 26 19 14 14
97 98 98 97 96 97 98 97 96 95 91 90 87 83 92 96 86 85 80 91 94 96 94 94 93 77 73 67 64 67 67 65 56 58 57 58 63 57 55 56 56 59 69 66 74 52 24 25 39 37 28 18 15 20
98 98 98 95 98 98 96 95 95 97 94 85 88 99 94 82 80 80 88 94 95 95 96 93 76 62 59 66 70 62 49 44 51 55 58 59 71 71 71 70 69 73 74 69 76 30 26 29 38 35 24 18 21 26
98 97 97 97 97 97 95 95 98 96 96 94 88 86 79 77 86 92 92 96 96 89 81 74 69 65 57 47 47 50 49 51 53 64 56 68 80 73 74 95 91 88 95 97 56 31 30 35 40 30 22 25 28 26
98 95 96 98 97 96 95 95 93 93 99 94 93 94 91 91 94 94 96 96 91 77 65 58 45 40 47 52 56 62 56 60 65 65 61 62 71 84 67 89 96 93 96 97 89 45 46 41 34 26 28 29 26 22
98 98 98 97 96 96 96 96 96 97 96 96 97 97 96 96 95 95 96 88 73 62 50 41 40 42 45 45 52 58 66 71 69 64 67 74 75 90 74 79 96 93 95 96 73 59 51 41 31 31 32 27 23 18
98 98 96 94 96 94 96 97 95 95 95 96 95 95 93 90 93 92 80 65 49 43 46 37 46 51 52 48 48 47 52 59 65 70 67 74 84 88 63 63 95 94 96 84 66 54 47 37 35 34 28 26 29 17
96 95 94 95 95 93 95 96 100 97 92 95 93 93 92 91 90 85 64 36 29 30 33 39 47 56 58 50 51 49 52 73 79 71 77 82 85 91 96 94 94 96 93 78 65 56 43 39 36 38 75 83 19 19
94 95 95 97 93 93 83 90 94 96 93 87 88 94 89 79 74 74 30 18 24 39 54 74 73 66 58 60 60 55 59 77 82 81 89 88 89 96 97 95 95 95 92 74 66 55 44 44 76 95 81 20 20 13
95 96 89 95 91 80 87 89 87 83 84 82 81 73 72 76 70 32 23 41 53 62 76 94 70 64 77 90 90 88 91 92 92 95 98 97 93 97 96 94 92 94 94 90 66 56 79 93 95 63 20 21 10 5
95 87 83 87 89 83 82 82 76 70 81 76 72 75 66 53 48 38 51 53 60 62 80 91 81 80 94 92 96 96 95 95 95 97 97 96 96 95 96 96 97 97 89 86 94 93 95 94 38 22 22 8 5 8
84 68 73 83 81 88 91 86 78 71 63 58 52 51 41 35 38 47 53 60 73 68 80 92 98 93 81 92 97 96 94 94 94 96 95 88 80 92 90 87 90 94 94 95 95 96 88 26 24 21 6 6 11 18
73 67 74 86 82 76 73 63 56 54 54 55 52 48 44 43 57 65 66 67 50 47 63 80 94 95 96 96 96 96 94 93 96 96 96 92 92 95 95 95 94 95 95 96 95 58 24 25 16 6 8 12 20 23
67 66 68 70 87 85 79 72 61 59 52 52 58 57 46 43 61 72 66 52 40 45 69 81 90 93 95 95 95 96 95 95 96 96 96 96 96 96 95 94 94 96 96 87 31 26 25 10 6 9 14 21 24 27
76 75 74 64 61 68 75 73 71 70 65 62 56 52 51 71 77 69 53 46 54 73 77 81 91 95 96 94 95 96 96 96 96 96 97 96 94 95 97 95 96 95 65 28 27 22 7 7 10 15 22 26 29 26
70 64 62 72 73 74 72 76 77 80 85 83 82 77 71 67 60 50 46 63 71 69 78 80 92 96 96 95 96 96 97 96 96 95 95 96 97 95 96 96 94 52 29 28 15 7 8 12 17 23 27 30 27 18